.

MPMG - Transparência

Contracheque - Verbas indenizatórias e outras remunerações temporárias - Tabela III (Resolução nº 200/2019) - Pós Resolução CNMP 200/2019

Período: 2024 - Fevereiro

Ordem Matrícula Nome Cargo Lotação Verbas Indenizatórias *1 Outras Remunerações Temporárias *2 Data de Referência
Auxílio Alimentação Auxílio Creche Auxílio Saúde Auxílio Transporte Estagiário Indenizações Indenizações e Diligênias Adicionais de Periculosidade e Insalubridade Gratificações Outras Remunerações
1 498900 ABDON MARCIO BARBOSA DA SILVA OFICIAL DO MP ABRE CAMPO - COMARCA; ABRE CAMPO-PJ-01PJ 1.978,00 0,00 605,00 0,00 2.882,57 0,00 0,00 0,00 0,00 29/02/2024
2 293600 ABELARDO GUIMARAES CASTRO PROMOT.ENTRANC.ESPECIAL BELO HORIZONTE - COMARCA; BH-18PJ VIOLENCIA DOMESTICA-GAB 044PJ 1.978,00 0,00 3.773,18 0,00 18.865,91 0,00 0,00 0,00 576,46 29/02/2024
3 1636200 ABRAAO SANTANA DOMINGOS ESTAGIARIO BELO HORIZONTE; COORD DE INCLUSAO E MOBILIZACAO SOCIAIS 0,00 0,00 0,00 288,00 0,00 0,00 0,00 0,00 0,00 29/02/2024
4 99200 ADALBERTO DE PAULA CHRISTO LEITE PROMOT.ENTRANC.ESPECIAL SÃO JOÃO DEL REI - COMARCA; SAO JOAO DEL REI-PJ-02PJ 1.978,00 0,00 3.773,18 0,00 16.914,06 0,00 0,00 0,00 0,00 29/02/2024
5 177800 ADALBERTO MENEZES FARIA SAMORA OFICIAL DO MP BELO HORIZONTE - COMARCA; DIRET DE PLANOS PROJETOS E PROGRAMAS INST 1.978,00 0,00 605,00 0,00 6.213,67 0,00 0,00 0,00 0,00 29/02/2024
6 306400 ADALBERTO MOREIRA GONCALVES ANALISTA DO MP BELO HORIZONTE - COMARCA; BH-24PJ JUIZO REG BARREIRO-SECRETARIA 1.978,00 0,00 605,00 0,00 5.998,28 0,00 0,00 0,00 0,00 29/02/2024
7 100400 ADELAIDE CRISTINA DE CARVALHO MACHADO PROCURADOR DE JUSTICA BELO HORIZONTE - COMARCA; GABINETE DE PROCURADOR DE JUSTIÇA - SALA 708 1.978,00 0,00 1.488,14 0,00 25.411,35 0,00 0,00 0,00 776,46 29/02/2024
8 96500 ADELIA LAGE DE OLIVEIRA PROCURADOR DE JUSTICA BELO HORIZONTE - COMARCA; GABINETE DE PROCURADOR DE JUSTIÇA - SALA 403 1.978,00 0,00 1.623,43 0,00 25.411,36 0,00 0,00 0,00 776,46 29/02/2024
9 49200 ADEMAR PEREIRA PROMOTOR 2A ENTRANCIA MACHADO - COMARCA; MACHADO-PJ-01PJ 1.978,00 0,00 3.584,52 0,00 25.411,36 0,00 0,00 0,00 776,46 29/02/2024
10 179300 ADENISE AUXILIADORA SOUZA SAD OFICIAL DO MP BARBACENA - COMARCA; BARBACENA-PJ-06PJ 1.978,00 0,00 605,00 0,00 5.977,03 0,00 0,00 0,00 0,00 29/02/2024
11 272200 ADILSON BATISTA ORNELAS OFICIAL DO MP LAVRAS - COMARCA; LAVRAS-PJ-SECRETARIA 1.978,00 0,00 605,00 0,00 3.513,14 0,00 0,00 0,00 0,00 29/02/2024
12 143000 ADILSON DE OLIVEIRA NASCIMENTO PROCURADOR DE JUSTICA BELO HORIZONTE - COMARCA; GABINETE DE PROCURADOR DE JUSTIÇA - SALA 614 1.978,00 0,00 3.971,77 0,00 22.004,26 0,00 0,00 0,00 672,35 29/02/2024
13 380100 ADILSON GONCALVES DE MELO JUNIOR ANALISTA DO MP ARAXÁ - COMARCA; ARAXA-PJ-05PJ 1.978,00 0,00 605,00 0,00 6.189,97 0,00 0,00 0,00 0,00 29/02/2024
14 148800 ADILSON JANUARIO OFICIAL DO MP BELO HORIZONTE - COMARCA; BH-22PJ PES COM DEF E IDOSOS-SECRETARIA 1.978,00 0,00 605,00 0,00 5.501,45 0,00 0,00 0,00 0,00 29/02/2024
15 322601 ADMILSON SILVEIRA ANALISTA DO MP SAO JOAO DO PARAISO COMARCA; SAO JOAO DO PARAISO-PJ-UNPJ 1.978,00 1.146,58 605,00 0,00 5.924,93 0,00 0,00 0,00 0,00 29/02/2024
16 1673100 ADRIA PATRICIA SIMAO DE OLIVEIRA SANTOS ESTAGIARIO BELO HORIZONTE; BH-09PJ AUDITORIA MILITAR-GAB 075PJ 0,00 0,00 0,00 198,00 0,00 0,00 0,00 0,00 0,00 29/02/2024
17 333700 ADRIANA ABRITTA TEIXEIRA OFICIAL DO MP BELO HORIZONTE - COMARCA; DIRET DE PESSOAL DO MINISTERIO PUBLICO - DPMP 1.978,00 0,00 605,00 0,00 5.776,81 0,00 0,00 0,00 0,00 29/02/2024
18 468500 ADRIANA APARECIDA FIRMINO ANALISTA DO MP CARATINGA - COMARCA; CARATINGA-PJ-04PJ 1.978,00 0,00 605,00 0,00 5.924,93 0,00 0,00 0,00 0,00 29/02/2024
19 326100 ADRIANA AUGUSTA AMARAL BELO OFICIAL DO MP BARBACENA - COMARCA; BARBACENA-PJ-05PJ 1.978,00 0,00 605,00 0,00 5.776,81 0,00 0,00 0,00 0,00 29/02/2024
20 363000 ADRIANA CARVALHO PEREIRA E SILVA COSTA PROMOTOR 2A ENTRANCIA ALÉM PARAÍBA - COMARCA; ALEM PARAIBA-PJ-02PJ 1.978,00 0,00 3.273,91 0,00 11.948,41 0,00 0,00 0,00 0,00 29/02/2024
21 605700 ADRIANA COSTA LIRA OFICIAL DO MP BELO HORIZONTE - COMARCA; CAO-EDUCACAO 1.978,00 0,00 605,00 0,00 6.253,74 0,00 0,00 0,00 0,00 29/02/2024
22 541100 ADRIANA CRISTINA DE OLIVEIRA OFICIAL DO MP EXTREMA - COMARCA; EXTREMA-PJ-01PJ 1.978,00 0,00 605,00 0,00 2.882,57 0,00 0,00 0,00 0,00 29/02/2024
23 254800 ADRIANA DAS GRACAS FERNANDES ANALISTA DO MP UBERABA - COMARCA; UBERABA-PJ-07PJ 1.978,00 0,00 605,00 0,00 4.766,13 0,00 0,00 0,00 0,00 29/02/2024
24 217400 ADRIANA DE CARVALHO CATAO BRAGA ASSESSOR ADMINISTRATIVO III BELO HORIZONTE - COMARCA; DIV FISCAL ADM CONT TERCEIRIZACAO 1.978,00 0,00 605,00 0,00 0,00 0,00 0,00 0,00 0,00 29/02/2024
25 434600 ADRIANA FERREIRA DA SILVA ANALISTA DO MP BELO HORIZONTE - COMARCA; BH-14PJ DEFESA CONSUMIDOR-GAB 112PJ 1.978,00 0,00 605,00 0,00 6.091,94 0,00 0,00 0,00 0,00 29/02/2024
26 499800 ADRIANA FERREIRA TIAGO OFICIAL DO MP SALINAS - COMARCA; SALINAS-PJ-02PJ 1.978,00 1.146,58 605,00 0,00 0,00 0,00 0,00 0,00 0,00 29/02/2024
27 543400 ADRIANA GUIMARAES NUNES DE PAULA ANALISTA DO MP PATROCÍNIO - COMARCA; PATROCINIO-PJ-01PJ 1.978,00 2.293,16 605,00 0,00 0,00 0,00 0,00 0,00 0,00 29/02/2024
28 471500 ADRIANA HORTA DE CARVALHO RODRIGUES DE SOUSA ANALISTA DO MP BELO HORIZONTE - COMARCA; CAO-FUNDACOES-ASSESSORIA JURIDICA 1.978,00 0,00 605,00 0,00 0,00 0,00 0,00 0,00 0,00 29/02/2024
29 314300 ADRIANA JULIA DE SOUZA PROMOT.ENTRANC.ESPECIAL BELO HORIZONTE - COMARCA; BH-26 CRIME CONT CRIAN ADOL-GAB 169PJ 1.978,00 1.146,58 3.773,18 0,00 17.608,19 0,00 0,00 0,00 576,46 29/02/2024
30 1471700 ADRIANA MARTINS DE ALBUQUERQUE ESTAGIARIO BELO HORIZONTE; PROC JUST ATUACAO TRIBUNAIS SUPERIORES-GAB004 0,00 0,00 0,00 324,00 0,00 0,00 0,00 0,00 0,00 29/02/2024
31 480700 ADRIANA MOREIRA DE AVELLAR CEZILIO OFICIAL DO MP BELO HORIZONTE - COMARCA; BH-12PJ JUIZO CRIMINAL-SECRETARIA 1.978,00 0,00 605,00 0,00 6.253,74 0,00 0,00 0,00 0,00 29/02/2024
32 326000 ADRIANA PEREIRA CARNEIRO RESENDE OFICIAL DO MP BELO HORIZONTE - COMARCA; BH-25PJ DEFESA DA EDUCACAO-SECRETARIA 1.978,00 0,00 605,00 0,00 3.851,21 0,00 0,00 0,00 0,00 29/02/2024
33 502200 ADRIANA PETRUCCI DAVINA OFICIAL DO MP PATROCÍNIO - COMARCA; PATROCINIO-PJ-01PJ 1.978,00 1.146,58 605,00 0,00 6.254,73 0,00 0,00 0,00 0,00 29/02/2024
34 685200 ADRIANA PRATES DOS SANTOS PROMOTOR SUBSTITUTO CARMO DO PARANAÍBA - COMARCA; CARMO DO PARANAIBA-PJ-02PJ 1.978,00 0,00 1.807,59 0,00 12.486,08 0,00 0,00 0,00 520,25 29/02/2024
35 201900 ADRIANA REIS PIMENTA OFICIAL DO MP TEÓFILO OTONI - COMARCA; TEOFILO OTONI-PJ-03PJ 1.978,00 0,00 605,00 0,00 5.123,17 0,00 0,00 0,00 0,00 29/02/2024
36 278700 ADRIANA RODRIGUES PINTO COELHO AMARAL ANALISTA DO MP BELO HORIZONTE - COMARCA; CGMP-DIR ESTAGIO PROBATORIO E ORIENT 1.978,00 0,00 605,00 0,00 5.167,75 0,00 0,00 0,00 0,00 29/02/2024
37 468000 ADRIANA SANTOS DE SANTANA MOREIRA ANALISTA DO MP GOVERNADOR VALADARES - COMARCA; GAECO REGIONAL DE GOVERNADOR VALADARES 1.978,00 0,00 605,00 0,00 6.221,18 0,00 0,00 0,00 0,00 29/02/2024
38 290900 ADRIANA TORRES BECK PROMOT.ENTRANC.ESPECIAL BELO HORIZONTE - COMARCA; BH-23PJ INFRACIONAL-GAB COOPJ 1.978,00 0,00 3.773,18 0,00 12.577,28 0,00 0,00 0,00 576,46 29/02/2024
39 194700 ADRIANA TSUKIDE OFICIAL DO MP UBERABA - COMARCA; COORD REG BACIAS PARANAIBA BAIXO RIO GRANDE 1.978,00 0,00 605,00 0,00 5.977,03 0,00 0,00 0,00 0,00 29/02/2024
40 291500 ADRIANA VITAL DO VALLE PROMOT.ENTRANC.ESPECIAL SÃO JOÃO DEL REI - COMARCA; SAO JOAO DEL REI-PJ-06PJ 1.978,00 0,00 3.773,18 0,00 12.577,28 0,00 0,00 0,00 0,00 29/02/2024
41 212900 ADRIANO ARANTES BOZOLA PROMOT.ENTRANC.ESPECIAL UBERLÂNDIA - COMARCA; UBERLANDIA-PJ-21PJ 1.978,00 0,00 3.773,18 0,00 19.954,91 0,00 0,00 0,00 609,73 29/02/2024
42 716000 ADRIANO ARRUDA TEIXEIRA ESTAGIARIO UBERLANDIA; UBERLANDIA-PJ-16PJ 0,00 0,00 0,00 324,00 0,00 0,00 0,00 0,00 0,00 29/02/2024
43 174200 ADRIANO BOTELHO ESTRELA PROMOT.ENTRANC.ESPECIAL BELO HORIZONTE - COMARCA; BH-12PJ JUIZO CRIMINAL-GAB 095PJ 1.978,00 0,00 2.029,28 0,00 11.223,42 0,00 0,00 0,00 643,01 29/02/2024
44 465500 ADRIANO CASSIANO MATOS ANALISTA DO MP ARAXÁ - COMARCA; ARAXA-PJ-02PJ 1.978,00 0,00 605,00 0,00 5.924,93 0,00 0,00 0,00 0,00 29/02/2024
45 500500 ADRIANO DE ALMEIDA SILVA OFICIAL DO MP UBERABA - COMARCA; UBERABA-PJ-12PJ 1.978,00 1.146,58 605,00 0,00 6.254,73 0,00 0,00 0,00 0,00 29/02/2024
46 187200 ADRIANO DE FREITAS MARON OFICIAL DO MP PONTE NOVA - COMARCA; PONTE NOVA-PJ-03PJ 1.978,00 0,00 605,00 0,00 4.767,97 0,00 0,00 0,00 0,00 29/02/2024
47 344000 ADRIANO DUTRA GOMES DE FARIA PROMOT.ENTRANC.ESPECIAL VESPASIANO - COMARCA; VESPASIANO-PJ-04PJ 1.978,00 0,00 3.773,18 0,00 18.865,91 0,00 0,00 0,00 576,46 29/02/2024
48 477900 ADRIANO FERREIRA DE ALMEIDA OFICIAL DO MP TAIOBEIRAS - COMARCA; TAIOBEIRAS-PJ-UNPJ 1.978,00 0,00 605,00 0,00 6.211,29 615,57 0,00 0,00 0,00 29/02/2024
49 269101 ADRIANO PEREIRA SILVA ANALISTA DO MP BELO HORIZONTE - COMARCA; GABINETE DE PROCURADOR DE JUSTIÇA - SALA 913 1.978,00 0,00 605,00 0,00 5.776,81 0,00 0,00 0,00 0,00 29/02/2024
50 414200 ADRIANO RODRIGUES FERNANDES ANALISTA DO MP CARANDAÍ - COMARCA; CARANDAI-PJ-UNPJ 1.978,00 0,00 605,00 0,00 5.776,81 0,00 0,00 0,00 0,00 29/02/2024
51 715300 ADRIANO SCHER DORNELAS 2O. SARGENTO BELO HORIZONTE - COMARCA; NUCLEO DE COMBATE AOS CRIMES AMBIENTAIS 0,00 0,00 0,00 342,00 0,00 0,00 0,00 0,00 0,00 29/02/2024
52 759700 ADRIANO SIQUEIRA DA FONSECA ASSESSOR PROCURADOR JUSTICA BELO HORIZONTE - COMARCA; SUPER DE GESTAO DE PESSOAS-LOTACAO TEMPORARIA 1.798,18 0,00 605,00 0,00 0,00 0,00 0,00 0,00 7.636,10 29/02/2024
53 536700 ADRIELLE COSTA MARIA MOURAO FIGUEIREDO OFICIAL DO MP MONTES CLAROS - COMARCA; MONTES CLAROS-PJ-06PJ 1.978,00 1.146,58 605,00 0,00 0,00 0,00 0,00 0,00 0,00 29/02/2024
54 1570400 ADRIELLEN ALVES ARAUJO ESTAGIARIO MONTES CLAROS; MONTES CLAROS-PJ-14PJ 0,00 0,00 0,00 342,00 0,00 0,00 0,00 0,00 0,00 29/02/2024
55 1500100 ADRIELLY BIANQUY ALVES DA SILVA ESTAGIARIO LAJINHA; LAJINHA-PJ-UNPJ 0,00 0,00 0,00 270,00 0,00 0,00 0,00 0,00 0,00 29/02/2024
56 514300 ADRIENE DAMASCENO BRAGA ANALISTA DO MP ALFENAS - COMARCA; ALFENAS-PJ-03PJ 1.978,00 0,00 605,00 0,00 5.924,93 0,00 0,00 0,00 0,00 29/02/2024
57 254600 ADRIENE DOMINGUES COSTA ANALISTA DO MP BELO HORIZONTE - COMARCA; SUPER DE GESTAO DE PESSOAS-LOTACAO TEMPORARIA
58 252001 ADRIENE GOMES BARRETO ANALISTA DO MP BELO HORIZONTE - COMARCA; BH-19PJ SAUDE-SECRETARIA 047PJ 1.978,00 0,00 605,00 0,00 6.160,10 0,00 0,00 0,00 0,00 29/02/2024
59 84100 ADROALDO JUNQUEIRA AYRES NETO PROMOT.ENTRANC.ESPECIAL UBERABA - COMARCA; UBERABA-PJ-12PJ 1.978,00 0,00 3.760,94 0,00 18.634,99 0,00 0,00 0,00 776,46 29/02/2024
60 714800 ADSON GUSTAVO DE OLIVEIRA ASSESSOR PROCURADOR JUSTICA BELO HORIZONTE - COMARCA; GABINETE DE PROCURADOR DE JUSTIÇA - SALA 803 0,00 0,00 0,00 288,00 0,00 0,00 0,00 0,00 0,00 29/02/2024
61 724600 AECIO BRAS SILVA JUNIOR ASSESSOR PROMOTOR JUSTICA BAMBUÍ - COMARCA; BAMBUI-PJ-UNPJ 0,00 0,00 0,00 342,00 0,00 0,00 0,00 0,00 0,00 29/02/2024
62 162700 AECIO RABELO PROMOTOR 2A ENTRANCIA LAVRAS - COMARCA; LAVRAS-PJ-04PJ 1.978,00 0,00 2.624,54 0,00 18.957,16 0,00 0,00 0,00 579,25 29/02/2024
63 97600 AFONSO HENRIQUE DE MIRANDA TEIXEIRA PROCURADOR DE JUSTICA BELO HORIZONTE - COMARCA; CAO-CONFLITOS AGRARIOS 1.978,00 0,00 3.292,82 0,00 25.411,36 0,00 0,00 0,00 776,46 29/02/2024
64 610000 AGENOR ANDRADE LEAO PROMOT.ENTRANC.ESPECIAL TEÓFILO OTONI - COMARCA; TEOFILO OTONI-PJ-05PJ 1.978,00 0,00 3.773,18 0,00 18.865,91 0,00 0,00 0,00 576,46 29/02/2024
65 302500 AGENOR JOSE DA SILVA JUNIOR ANALISTA DO MP JUIZ DE FORA - COMARCA; JUIZ DE FORA-PJ-07PJ 1.978,00 1.146,58 605,00 0,00 5.998,28 0,00 0,00 0,00 0,00 29/02/2024
66 344100 AGNALDO LUCAS COTRIM PROMOT.ENTRANC.ESPECIAL POUSO ALEGRE - COMARCA; POUSO ALEGRE-PJ-02PJ 1.978,00 0,00 3.329,41 0,00 18.865,91 0,00 0,00 0,00 576,46 29/02/2024
67 67400 AIDA FERNANDES LISBOA MARINHO PROCURADOR DE JUSTICA BELO HORIZONTE - COMARCA; GABINETE DE PROCURADOR DE JUSTIÇA - SALA 604 1.978,00 0,00 3.971,77 0,00 11.858,63 0,00 0,00 0,00 776,46 29/02/2024
68 1561000 AILANA LAUREN DE PAIVA MATA ESTAGIARIO MIRADOURO; MIRADOURO-PJ-UNPJ 0,00 0,00 0,00 342,00 0,00 0,00 0,00 0,00 0,00 29/02/2024
69 357500 AILSON WAGNER DE ALENCAR SILVA OFICIAL DO MP BELO HORIZONTE - COMARCA; BH-12PJ JUIZO CRIMINAL-SECRETARIA 1.978,00 0,00 605,00 0,00 5.560,92 0,00 0,00 0,00 0,00 29/02/2024
70 366400 AILTON ALEXSSANDRO ALVES OFICIAL DO MP PARÁ DE MINAS - COMARCA; PARA DE MINAS-PJ-05PJ 1.978,00 0,00 605,00 0,00 0,00 0,00 0,00 0,00 0,00 29/02/2024
71 318900 AILTON DE CASTRO RIBEIRO JUNIOR OFICIAL DO MP CANDEIAS - COMARCA; CANDEIAS-PJ-UNPJ 1.978,00 0,00 605,00 0,00 5.776,81 0,00 0,00 0,00 0,00 29/02/2024
72 533100 AIMARA DE BRITTO DIAS LEITE CABALEIRO PROMOTOR SUBSTITUTO CONTAGEM - COMARCA; CONTAGEM-PJ-10PJ 1.978,00 1.146,58 3.405,30 0,00 5.675,49 0,00 0,00 0,00 520,25 29/02/2024
73 439100 AIRTON BATISTA COSTA NETO NEPOMUCENO PROMOTOR 2A ENTRANCIA ITUIUTABA - COMARCA; ITUIUTABA-PJ-04PJ 1.978,00 1.146,58 3.584,52 0,00 17.922,60 0,00 0,00 0,00 547,64 29/02/2024
74 712000 AIRTON FERREIRA SILVA ESTAGIARIO FRUTAL; FRUTAL-PJ-01PJ 0,00 0,00 0,00 342,00 0,00 0,00 0,00 0,00 0,00 29/02/2024
75 341600 ALAM BAENA BERTOLLA DOS SANTOS PROMOTOR 2A ENTRANCIA ARAGUARI - COMARCA; ARAGUARI-PJ-03PJ 1.978,00 0,00 3.584,52 0,00 17.922,61 0,00 0,00 0,00 547,64 29/02/2024
76 175700 ALAN CARRIJO RAMOS PROMOTOR 1A ENTRANCIA PRATÁPOLIS - COMARCA; PRATAPOLIS-PJ-UNPJ 1.978,00 0,00 3.405,30 0,00 18.009,29 0,00 0,00 0,00 550,28 29/02/2024
77 1638100 ALAN FAGNER XAVIER BATISTA ESTAGIARIO JUIZ DE FORA; JUIZ DE FORA-PJ-11PJ 0,00 0,00 0,00 324,00 0,00 0,00 0,00 0,00 0,00 29/02/2024
78 1577200 ALAN FELIPE GUIMARAES MOREIRA ESTAGIARIO SETE LAGOAS; SETE LAGOAS-PJ-05PJ 0,00 0,00 0,00 324,00 0,00 0,00 0,00 0,00 0,00 29/02/2024
79 464400 ALAN MONTEIRO GASPAR ANALISTA DO MP SETE LAGOAS - COMARCA; SETE LAGOAS-PJ-08PJ 1.978,00 0,00 605,00 0,00 5.924,93 0,00 0,00 0,00 543,12 29/02/2024
80 492000 ALANA DE CASTRO FREITAS OFICIAL DO MP BELO HORIZONTE - COMARCA; SECRETARIA DO PROCON-MG 1.978,00 0,00 605,00 0,00 3.966,75 0,00 0,00 0,00 0,00 29/02/2024
81 306700 ALANA MARCIA DE OLIVEIRA OFICIAL DO MP BELO HORIZONTE - COMARCA; DIRETORIA DE ADMINISTRACAO FINANCEIRA 1.978,00 0,00 605,00 0,00 5.776,81 0,00 0,00 0,00 0,00 29/02/2024
82 1523000 ALANA REZENDE BELTRAME ESTAGIARIO DIVINOPOLIS; DIVINOPOLIS-PJ-05PJ 0,00 0,00 0,00 342,00 0,00 0,00 0,00 0,00 0,00 29/02/2024
83 324500 ALANMAR COUTINHO COSTA OFICIAL DO MP LEOPOLDINA - COMARCA; LEOPOLDINA-PJ-02PJ 1.978,00 0,00 605,00 0,00 5.776,81 0,00 0,00 0,00 0,00 29/02/2024
84 170800 ALBERTO BOGLIOLO SIRIHAL PROCURADOR DE JUSTICA BELO HORIZONTE - COMARCA; GABINETE DE PROCURADOR DE JUSTIÇA - SALA 414 1.978,00 1.146,58 3.971,77 0,00 22.004,26 0,00 0,00 0,00 672,35 29/02/2024
85 407300 ALBERTO LUIZ SOARES DE OLIVEIRA ANALISTA DO MP BELO HORIZONTE - COMARCA; DIRETORIA DE PROJETOS DE EDIFICACOES 1.978,00 0,00 605,00 0,00 0,00 0,00 0,00 0,00 0,00 29/02/2024
86 118200 ALBERTO PEREIRA DA COSTA OFICIAL DO MP DORES DO INDAIÁ - COMARCA; DORES DO INDAIA-PJ-UNPJ 1.978,00 0,00 605,00 0,00 5.501,44 0,00 0,00 0,00 0,00 29/02/2024
87 72000 ALBINO VITORIO BERNARDO PROCURADOR DE JUSTICA BELO HORIZONTE - COMARCA; GABINETE DE PROCURADOR DE JUSTIÇA-SALA1112-T3 1.978,00 0,00 1.886,98 0,00 25.411,36 0,00 0,00 0,00 776,46 29/02/2024
88 660700 ALCIDEZIO JOSE DE OLIVEIRA BISPO JUNIOR PROMOT.ENTRANC.ESPECIAL CARATINGA - COMARCA; CARATINGA-PJ-01PJ 1.978,00 1.146,58 3.652,70 0,00 18.865,91 0,00 0,00 0,00 576,46 29/02/2024
89 282400 ALCILENE MARISE DE ARAUJO ANALISTA DO MP BELO HORIZONTE - COMARCA; BH-23PJ INF-FISC MED SOC FEC 1.978,00 0,00 605,00 0,00 5.167,75 0,00 0,00 0,00 473,71 29/02/2024
90 396400 ALCIONE DE FREITAS E SILVA ANALISTA DO MP BELO HORIZONTE - COMARCA; ASSESS JUR DO CONS SUPERIOR DO MINISTERIO PUB 1.978,00 0,00 605,00 0,00 0,00 0,00 0,00 0,00 0,00 29/02/2024
91 657400 ALCIONE MARIA FERREIRA ASSESSOR PROCURADOR JUSTICA BELO HORIZONTE - COMARCA; GABINETE DE PROCURADOR DE JUSTICA - SALA 313 1.978,00 1.146,58 605,00 0,00 0,00 0,00 0,00 0,00 0,00 29/02/2024
92 161600 ALCIONE NERY SOUZA ASSESSOR ADMINISTRATIVO III BELO HORIZONTE - COMARCA; BH-18PJ DIREITOS HUMANOS-SECRETARIA 1.978,00 0,00 605,00 0,00 0,00 0,00 0,00 0,00 0,00 29/02/2024
93 92000 ALCIR ARANTES PROMOT.ENTRANC.ESPECIAL UBERABA - COMARCA; UBERABA-PJ-03PJ 1.978,00 0,00 3.246,86 0,00 23.717,27 0,00 0,00 0,00 776,46 29/02/2024
94 376000 ALDA GOMES LANA OFICIAL DO MP BELO HORIZONTE - COMARCA; BH-18PJ VIOLENCIA DOMESTICA-SECRETARIA 1.978,00 0,00 605,00 0,00 5.776,81 0,00 0,00 0,00 0,00 29/02/2024
95 148000 ALDA MARTINS SIMOES OFICIAL DO MP BELO HORIZONTE - COMARCA; BH-23PJ CIVEL- FISC ENT AB POL 1.978,00 0,00 605,00 0,00 4.706,34 0,00 0,00 0,00 431,41 29/02/2024
96 457700 ALDERICO DE CARVALHO JUNIOR PROMOTOR 2A ENTRANCIA BELO HORIZONTE - COMARCA; PROC JUST ATUACAO TRIBUNAIS SUPERIORES-GAB002 1.978,00 2.293,16 3.584,52 0,00 17.922,61 0,00 0,00 0,00 547,64 29/02/2024
97 318400 ALDO CREPALDI JUNIOR OFICIAL DO MP BELO HORIZONTE - COMARCA; DIVISAO DE MATERIAIS 1.978,00 0,00 605,00 0,00 5.776,81 0,00 0,00 0,00 0,00 29/02/2024
98 1434100 ALECSANDER CARDOSO ESTAGIARIO ANDRADAS; ANDRADAS-PJ-02PJ 0,00 0,00 0,00 180,00 801,67 0,00 0,00 0,00 0,00 29/02/2024
99 604500 ALENIZE APARECIDA RODRIGUES HENRIQUE OFICIAL DO MP RIO NOVO - COMARCA; RIO NOVO-PJ-SECRETARIA 1.978,00 0,00 605,00 0,00 0,00 0,00 0,00 0,00 0,00 29/02/2024
100 1663400 ALESANDY DOS SANTOS FERNANDES ESTAGIARIO IPATINGA; IPATINGA-PJ-04PJ 0,00 0,00 0,00 324,00 0,00 0,00 0,00 0,00 0,00 29/02/2024
101 197900 ALESSA DE SOUSA E SILVA OFICIAL DO MP OLIVEIRA - COMARCA; OLIVEIRA-PJ-02PJ 1.978,00 0,00 605,00 0,00 6.213,67 308,28 0,00 0,00 0,00 29/02/2024
102 428500 ALESSANDRA ALVES DINIZ OFICIAL DO MP BELO HORIZONTE - COMARCA; CENTRAL DE APOIO TECNICO-SECRETARIA 1.978,00 0,00 605,00 0,00 5.863,81 0,00 0,00 0,00 0,00 29/02/2024
103 1464000 ALESSANDRA BORGES GONCALVES ESTAGIARIO ITUIUTABA; ITUIUTABA-PJ-06PJ 0,00 0,00 0,00 342,00 0,00 0,00 0,00 0,00 0,00 29/02/2024
104 286801 ALESSANDRA BOTELHO JUNQUEIRA DE MENEZES ANALISTA DO MP PASSOS - COMARCA; PASSOS-PJ-05PJ 1.978,00 1.146,58 605,00 0,00 0,00 0,00 0,00 0,00 0,00 29/02/2024
105 307000 ALESSANDRA CRISTINA SANTOS MENDES ANALISTA DO MP BELO HORIZONTE - COMARCA; BH-18PJ VIOLENCIA DOMESTICA-SECRETARIA 1.978,00 0,00 605,00 0,00 5.550,10 0,00 0,00 0,00 0,00 29/02/2024
106 264400 ALESSANDRA DE SOUZA SANTOS ANALISTA DO MP BELO HORIZONTE - COMARCA; SECRETARIA DE ASSUNTOS INTERNACIONAIS 1.978,00 0,00 605,00 0,00 0,00 0,00 0,00 0,00 0,00 29/02/2024
107 717700 ALESSANDRA DIAS DE OLIVEIRA COSTA PROMOTOR SUBSTITUTO CONTAGEM - COMARCA; CONTAGEM-PJ-20PJ 1.978,00 0,00 1.785,76 0,00 17.026,47 0,00 0,00 0,00 520,25 29/02/2024
108 441500 ALESSANDRA DRUMMOND DE FIGUEIREDO ROSSI ANALISTA DO MP BELO HORIZONTE - COMARCA; DIRETORIA DE PROJETOS DE EDIFICACOES 1.978,00 0,00 605,00 0,00 0,00 0,00 0,00 0,00 0,00 29/02/2024
109 524000 ALESSANDRA LUCIOLI DE BARROS ANALISTA DO MP BELO HORIZONTE - COMARCA; BH-19PJ SAUDE--SECRETARIA 1.978,00 0,00 605,00 0,00 5.924,93 0,00 0,00 0,00 0,00 29/02/2024
110 479900 ALESSANDRA MARA ANDRADE DE FARIA OFICIAL DO MP UBERABA - COMARCA; UBERABA-PJ-09PJ 1.978,00 0,00 605,00 0,00 6.254,73 0,00 0,00 0,00 0,00 29/02/2024
111 226700 ALESSANDRA MARA VASCONCELOS REZENDE OFICIAL DO MP CONSELHEIRO LAFAIETE - COMARCA; CONSELHEIRO LAFAIETE-PJ-07PJ 1.978,00 0,00 605,00 0,00 6.091,94 0,00 0,00 0,00 0,00 29/02/2024
112 196500 ALESSANDRA MARIA RIBEIRO LUCIANO OFICIAL DO MP RIO PARANAÍBA - COMARCA; RIO PARANAIBA-PJ-UNPJ 1.978,00 0,00 605,00 0,00 0,00 0,00 0,00 0,00 0,00 29/02/2024
113 290500 ALESSANDRA PINTO CASSIANO PROMOTOR 2A ENTRANCIA BOA ESPERANÇA - COMARCA; BOA ESPERANCA-PJ-02PJ 1.978,00 0,00 2.813,94 0,00 17.922,61 0,00 0,00 0,00 547,64 29/02/2024
114 651700 ALESSANDRA PROFIRIO SOUZA OFICIAL DO MP NOVA ERA - COMARCA; NOVA ERA-PJ-UNPJ 1.978,00 0,00 605,00 0,00 1.162,26 0,00 0,00 0,00 0,00 29/02/2024
115 384900 ALESSANDRA RODRIGUES ANALISTA DO MP VISCONDE DO RIO BRANCO - COMARCA; VISCONDE DO RIO BRANCO-PJ-03PJ 1.978,00 1.146,58 605,00 0,00 5.338,75 0,00 0,00 0,00 0,00 29/02/2024
116 390000 ALESSANDRA SPADANO MASSARA VASCONCELOS OFICIAL DO MP BETIM - COMARCA; BETIM-PJ-10PJ 1.978,00 0,00 605,00 0,00 0,00 0,00 0,00 0,00 0,00 29/02/2024
117 426500 ALESSANDRO CAMPOS DE PAIVA ANALISTA DO MP BELO HORIZONTE - COMARCA; DIR CRIACAO E MIDIAS 1.978,00 0,00 605,00 0,00 0,00 0,00 0,00 0,00 1.872,08 29/02/2024
118 623400 ALESSANDRO DE OLIVEIRA REZENDE ANALISTA DO MP BELO HORIZONTE - COMARCA; DIRET DE INFORMACAO E CONHECIMENTO-DINC/CEAF 1.978,00 0,00 605,00 0,00 1.086,24 0,00 0,00 0,00 0,00 29/02/2024
119 174100 ALESSANDRO GARCIA SILVA PROMOT.ENTRANC.ESPECIAL DIVINÓPOLIS - COMARCA; DIVINOPOLIS-PJ-12PJ 1.978,00 0,00 3.030,40 0,00 15.276,47 0,00 0,00 0,00 636,52 29/02/2024
120 308201 ALESSANDRO RAMOS MACHADO PROMOTOR 2A ENTRANCIA SÃO GONÇALO DO SAPUCAÍ - COMARCA; SAO GONCALO DO SAPUCAI-PJ-02PJ 1.978,00 0,00 3.584,52 0,00 17.922,61 0,00 0,00 0,00 547,64 29/02/2024
121 665700 ALESSANDRO ROGERIO DIAS DE OLIVEIRA PROMOT.ENTRANC.ESPECIAL PATOS DE MINAS - COMARCA; PATOS DE MINAS-PJ-07PJ 1.978,00 1.146,58 2.326,90 0,00 18.865,91 0,00 0,00 0,00 576,46 29/02/2024
122 420600 ALESSANDRO SILVA OFICIAL DO MP VISCONDE DO RIO BRANCO - COMARCA; VISCONDE DO RIO BRANCO-PJ-02PJ 1.978,00 0,00 605,00 0,00 6.025,03 0,00 0,00 0,00 0,00 29/02/2024
123 171100 ALESSIA ALVES DE ALVARENGA SANTA BARBARA PROMOT.ENTRANC.ESPECIAL CONSELHEIRO LAFAIETE - COMARCA; CONSELHEIRO LAFAIETE-PJ-06PJ 1.978,00 0,00 3.773,18 0,00 15.352,33 0,00 0,00 0,00 639,68 29/02/2024
124 375301 ALETHEIA PATRICIA ASSIS MORAIS MOREIRA ANALISTA DO MP ITABIRA - COMARCA; ITABIRA-PJ-02PJ 1.978,00 1.146,58 605,00 0,00 5.776,81 0,00 0,00 0,00 0,00 29/02/2024
125 382300 ALEX CARVALHO LIMA ANALISTA DO MP UBERLÂNDIA - COMARCA; UBERLANDIA-PJ-14PJ 1.978,00 1.146,58 605,00 0,00 5.338,75 0,00 0,00 0,00 0,00 29/02/2024
126 195201 ALEX DE CASTRO PEREIRA ANALISTA DO MP UBERABA - COMARCA; UBERABA-PJ-09PJ 1.978,00 0,00 605,00 0,00 5.167,75 0,00 0,00 0,00 0,00 29/02/2024
127 358900 ALEX DE PAULA LANZA ASSESSOR ADMINISTRATIVO IV BELO HORIZONTE - COMARCA; DIR CONTEUDO JORNALISTICO 1.978,00 1.146,58 605,00 0,00 5.795,29 0,00 0,00 0,00 4.360,02 29/02/2024
128 171400 ALEX FERNANDES SANTIAGO PROMOT.ENTRANC.ESPECIAL JUIZ DE FORA - COMARCA; JUIZ DE FORA-PJ-08PJ 1.978,00 1.146,58 2.868,05 0,00 19.539,33 0,00 0,00 0,00 639,68 29/02/2024
129 685300 ALEX RAFAEL BITTENCOURT PROMOTOR SUBSTITUTO LEOPOLDINA - COMARCA; LEOPOLDINA-PJ-04PJ 1.978,00 0,00 947,00 0,00 14.756,27 0,00 0,00 0,00 520,25 29/02/2024
130 178400 ALEX RODRIGO SALDANHA GUIMARAES OFICIAL DO MP BELO HORIZONTE - COMARCA; DIRETORIA DE SISTEMAS DE INFORMACAO 1.978,00 0,00 605,00 0,00 0,00 0,00 0,00 0,00 0,00 29/02/2024
131 715700 ALEX SANDRO AMORIM LEAO ESTAGIARIO VARGINHA; VARGINHA-PJ-07PJ 1.978,00 0,00 0,00 0,00 0,00 0,00 0,00 0,00 0,00 29/02/2024
132 314100 ALEX SOARES NACIF PROMOT.ENTRANC.ESPECIAL CONTAGEM - COMARCA; CONTAGEM-PJ-15PJ 1.978,00 0,00 3.173,32 0,00 18.865,91 0,00 0,00 0,00 576,46 29/02/2024
133 413500 ALEX VILELA OLIVEIRA ANALISTA DO MP GOVERNADOR VALADARES - COMARCA; COORD REG PJ DEF EDU DIR CRIANCA ADOL RIODOCE 1.978,00 0,00 605,00 0,00 5.840,90 0,00 0,00 0,00 0,00 29/02/2024
134 264300 ALEXANDRA FATIMA SARAIVA SOARES ANALISTA DO MP BELO HORIZONTE - COMARCA; CENTRAL DE APOIO TECN-SETOR DE MEIO AMBIENTE 1.978,00 0,00 605,00 0,00 0,00 0,00 0,00 0,00 0,00 29/02/2024
135 488000 ALEXANDRA LARA PAIS DE CARVALHO ANALISTA DO MP SABARÁ - COMARCA; SABARA-PJ-04PJ 1.978,00 0,00 605,00 0,00 5.924,93 0,00 0,00 0,00 0,00 29/02/2024
136 1539700 ALEXANDRA REALINA MENDES DE ARAUJO ESTAGIARIO RIBEIRAO DAS NEVES; RIBEIRAO DAS NEVES-PJ-05PJ 0,00 0,00 0,00 342,00 0,00 0,00 0,00 0,00 0,00 29/02/2024
137 256300 ALEXANDRA SANTOS GOMES OFICIAL DO MP BELO HORIZONTE - COMARCA; DIRETORIA GESTAO COMPRAS LICITACOES 1.978,00 0,00 605,00 0,00 0,00 0,00 0,00 0,00 0,00 29/02/2024
138 236300 ALEXANDRE ALVES DE OLIVEIRA PROMOT.ENTRANC.ESPECIAL BELO HORIZONTE - COMARCA; BH-12PJ JUIZO CRIMINAL-GAB 101PJ 1.978,00 0,00 1.244,63 0,00 13.266,97 0,00 0,00 0,00 0,00 29/02/2024
139 403300 ALEXANDRE AUGUSTO RODRIGUES ANALISTA DO MP ÁGUAS FORMOSAS - COMARCA; AGUAS FORMOSAS-PJ-UNPJ 1.978,00 2.293,16 605,00 0,00 0,00 0,00 0,00 0,00 0,00 29/02/2024
140 640900 ALEXANDRE BARBOSA MASCARENHAS ANALISTA DO MP BETIM - COMARCA; BETIM-PJ-02PJ 1.978,00 0,00 605,00 0,00 0,00 0,00 0,00 0,00 0,00 29/02/2024
141 311700 ALEXANDRE BARCELOS RESENDE OFICIAL DO MP BELO HORIZONTE - COMARCA; BH-17PJ PATRIMONIO PUBLICO-SECRETARIA 1.978,00 1.146,58 605,00 0,00 5.830,52 0,00 0,00 0,00 534,46 29/02/2024
142 293700 ALEXANDRE BRASILEIRO DE QUEIROZ PROMOT.ENTRANC.ESPECIAL BELO HORIZONTE - COMARCA; BH-12PJ JUIZO CRIMINAL-GAB 092PJ 1.978,00 0,00 3.773,18 0,00 18.865,92 0,00 0,00 0,00 576,46 29/02/2024
143 285600 ALEXANDRE CAMPOS DE OLIVEIRA OFICIAL DO MP UBERABA - COMARCA; COORD REG BACIAS PARANAIBA BAIXO RIO GRANDE 1.978,00 0,00 605,00 0,00 6.221,18 0,00 0,00 0,00 0,00 29/02/2024
144 509200 ALEXANDRE CAPUANO DE REZENDE ANALISTA DO MP BELO HORIZONTE - COMARCA; BH-07PJ 03 TRIBUNAL DO JURI-GAB 061PJ 1.978,00 0,00 605,00 0,00 0,00 0,00 0,00 0,00 0,00 29/02/2024
145 229400 ALEXANDRE CARLOS BOTREL SUPERINTENDENTE BELO HORIZONTE - COMARCA; SUPERINTENDENCIA DOS ORGAOS COLEGIADOS 1.978,00 0,00 605,00 0,00 4.706,25 0,00 0,00 0,00 0,00 29/02/2024
146 411900 ALEXANDRE CARVALHO SANTOS RIBEIRO ANALISTA DO MP OLIVEIRA - COMARCA; OLIVEIRA-PJ-02PJ 1.978,00 1.146,58 605,00 0,00 5.840,90 0,00 0,00 0,00 0,00 29/02/2024
147 641600 ALEXANDRE DA SILVA ASSUNCAO OFICIAL DO MP BELO HORIZONTE - COMARCA; SERVICO MEDICO-DEPTO PERIC MEDICA SAUDE OCUP 1.978,00 1.146,58 605,00 0,00 0,00 0,00 0,00 0,00 0,00 29/02/2024
148 201200 ALEXANDRE DE ALENCAR CORDEIRO OFICIAL DO MP ÁGUAS FORMOSAS - COMARCA; AGUAS FORMOSAS-PJ-UNPJ 1.978,00 0,00 605,00 0,00 6.125,47 0,00 0,00 0,00 0,00 29/02/2024
149 288200 ALEXANDRE DE VASCONCELOS COSTA KER ANALISTA DO MP BELO HORIZONTE - COMARCA; BH-03PJ EMPRESARIAL-SECRETARIA 1.978,00 0,00 605,00 0,00 5.167,75 0,00 0,00 0,00 0,00 29/02/2024
150 445000 ALEXANDRE DIOGENES OLIVEIRA ANALISTA DO MP SALINAS - COMARCA; SALINAS-PJ-02PJ 1.978,00 1.146,58 605,00 0,00 0,00 0,00 0,00 0,00 0,00 29/02/2024
151 665800 ALEXANDRE FIGUEIREDO MORATO PROMOT.ENTRANC.ESPECIAL MANHUAÇU - COMARCA; MANHUACU-PJ-06PJ 1.978,00 0,00 3.773,18 0,00 6.288,64 0,00 0,00 0,00 0,00 29/02/2024
152 1444200 ALEXANDRE FURTADO DE MACEDO CASTRO ESTAGIARIO BELO HORIZONTE; BH-17PJ PATRIMONIO PUBLICO-GAB 120PJ 0,00 0,00 0,00 270,00 0,00 0,00 0,00 0,00 0,00 29/02/2024
153 1475100 ALEXANDRE LABOSSIERE DE ALMEIDA MUZZI ESTAGIARIO BELO HORIZONTE; DIVISAO DE MANUTENCAO PREDIAL 0,00 0,00 0,00 342,00 0,00 0,00 0,00 0,00 0,00 29/02/2024
154 463400 ALEXANDRE LEAL WINKELSTROTER ANALISTA DO MP TEÓFILO OTONI - COMARCA; TEOFILO OTONI-PJ-04PJ 1.978,00 0,00 605,00 0,00 0,00 0,00 0,00 0,00 0,00 29/02/2024
155 96600 ALEXANDRE LIBERO BARONI PROMOT.ENTRANC.ESPECIAL SETE LAGOAS - COMARCA; SETE LAGOAS-PJ-04PJ 1.978,00 0,00 3.652,71 0,00 21.969,54 0,00 0,00 0,00 671,29 29/02/2024
156 615700 ALEXANDRE LUIZ DE CASTRO MACIEL ANALISTA DO MP BELO HORIZONTE - COMARCA; BH-08PJ JUIZADO ESPECIAL-GAB 163PJ 1.978,00 1.146,58 605,00 0,00 5.727,44 0,00 0,00 0,00 0,00 29/02/2024
157 1677900 ALEXANDRE MAGNO DE CARVALHO GONCALVES ESTAGIARIO BELO HORIZONTE; PROC. JUSTICA DIR. DIFUSOS E COLETIVOS-SEC 0,00 0,00 0,00 324,00 0,00 0,00 0,00 0,00 0,00 29/02/2024
158 356900 ALEXANDRE MOISES MENDONCA E ARAUJO OFICIAL DO MP UBERABA - COMARCA; UBERABA-PJ-13PJ 1.978,00 1.146,58 605,00 0,00 0,00 0,00 0,00 0,00 0,00 29/02/2024
159 232100 ALEXANDRE MOTTA BENEVIDES PROMOT.ENTRANC.ESPECIAL BELO HORIZONTE - COMARCA; BH-02PJ FAMILIA-GAB 034PJ 1.978,00 0,00 2.922,17 0,00 15.432,20 0,00 0,00 0,00 643,01 29/02/2024
160 633300 ALEXANDRE NONATO MARTINS OFICIAL DO MP CAMPESTRE - COMARCA; CAMPESTRE-PJ-UNPJ 1.978,00 0,00 605,00 0,00 1.500,14 0,00 0,00 0,00 0,00 29/02/2024
161 469900 ALEXANDRE PEREIRA GUEDES ANALISTA DO MP CATAGUASES - COMARCA; CATAGUASES-PJ-03PJ 1.978,00 0,00 605,00 0,00 5.924,93 0,00 0,00 0,00 0,00 29/02/2024
162 208700 ALEXANDRE RESENDE FRAGA ANALISTA DO MP BELO HORIZONTE - COMARCA; BH-19PJ SAUDE-SECRETARIA 130PJ 1.978,00 0,00 605,00 0,00 5.167,75 0,00 0,00 0,00 473,71 29/02/2024
163 156900 ALEXANDRE REZENDE GRILLO PROMOTOR 2A ENTRANCIA CAMBUÍ - COMARCA; CAMBUI-PJ-02PJ 1.978,00 0,00 3.584,52 0,00 19.888,25 0,00 0,00 0,00 607,70 29/02/2024
164 216401 ALEXANDRE RIBEIRO DE LIMA MAIORINO ANALISTA DO MP UBERABA - COMARCA; UBERABA-PJ-03PJ 1.978,00 0,00 605,00 0,00 5.167,75 0,00 0,00 0,00 0,00 29/02/2024
165 475100 ALEXANDRE TEOTONIO COSTA ANALISTA DO MP ARAGUARI - COMARCA; ARAGUARI-PJ-01PJ 1.978,00 0,00 605,00 0,00 5.924,93 0,00 0,00 0,00 0,00 29/02/2024
166 339000 ALEXANDRE VITOR CARDOSO OFICIAL DO MP BELO HORIZONTE - COMARCA; BH-23PJ INFRACIONAL-SEC EXP 1.978,00 0,00 605,00 0,00 3.513,14 0,00 0,00 0,00 0,00 29/02/2024
167 694000 ALEXANDRO ANTONIO PORTO E SOUZA INVESTIGADOR DE POLICIA 2 BELO HORIZONTE - COMARCA; GAECO - SETOR POLICIAL CIVIL 1.978,00 0,00 0,00 0,00 0,00 0,00 0,00 0,00 0,00 29/02/2024
168 1428500 ALEXIA ESTEFANIE ALVES LEANDRO ESTAGIARIO BELO HORIZONTE; BH-19PJ SAUDE-GAB 130PJ 0,00 0,00 0,00 162,00 0,00 0,00 0,00 0,00 0,00 29/02/2024
169 726800 ALEXIA MORAES ESTAGIARIO BELO HORIZONTE; PROCURADORIA DE JUSTIÇA CÍVEL 1.978,00 0,00 605,00 0,00 0,00 0,00 0,00 0,00 0,00 29/02/2024
170 623100 ALEXSANDER BATISTA AGUIAR COORDENADOR II BELO HORIZONTE - COMARCA; DIRETORIA DE SUPORTE E MANUTENCAO 1.978,00 1.146,58 605,00 0,00 5.420,89 0,00 0,00 0,00 0,00 29/02/2024
171 717800 ALEXSANDER SIQUEIRA SILVA PROMOTOR SUBSTITUTO NOVA ERA - COMARCA; NOVA ERA-PJ-UNPJ 0,00 0,00 0,00 270,00 0,00 0,00 0,00 0,00 0,00 29/02/2024
172 1481100 ALEXSANDRA GONCALVES DA SILVA ESTAGIARIO BELO HORIZONTE; CAO-FUNDACOES 0,00 0,00 0,00 342,00 0,00 0,00 0,00 0,00 0,00 29/02/2024
173 513300 ALFSON MIRANDA BRAGA ANALISTA DO MP BELO HORIZONTE - COMARCA; BH-12PJ JUIZO CRIMINAL-GAB 087PJ 1.978,00 0,00 605,00 0,00 5.924,93 0,00 0,00 0,00 543,12 29/02/2024
174 157000 ALI MAHMOUD FAYEZ AYOUB PROMOTOR 2A ENTRANCIA GUAXUPÉ - COMARCA; GUAXUPE-PJ-02PJ 1.978,00 0,00 3.584,52 0,00 22.956,78 0,00 0,00 0,00 701,46 29/02/2024
175 1524600 ALICE BRAGA MOREIRA DAVI ESTAGIARIO MERCES; MERCES-PJ-UNPJ 0,00 0,00 0,00 342,00 0,00 0,00 0,00 0,00 0,00 29/02/2024
176 1687600 ALICE DE CAMPOS ALVES ESTAGIARIO BELO HORIZONTE; NUCLEO DE ACORDOS DE NAO PERSECUCAO PENAL BH 0,00 0,00 0,00 324,00 0,00 0,00 0,00 0,00 0,00 29/02/2024
177 485300 ALICE DE MELLO VILELA PROMOT.ENTRANC.ESPECIAL CONTAGEM - COMARCA; CONTAGEM-PJ-06PJ 1.978,00 0,00 1.082,28 0,00 18.865,92 0,00 0,00 0,00 576,46 29/02/2024
178 1634100 ALICE DE MELO CAMPOS ESTAGIARIO CARATINGA; CARATINGA-PJ-05PJ 0,00 0,00 0,00 342,00 0,00 0,00 0,00 0,00 0,00 29/02/2024
179 705200 ALICE FARIA CUNHA ESTAGIARIO PATROCINIO; PATROCINIO-PJ-05PJ 1.978,00 0,00 605,00 0,00 0,00 0,00 0,00 0,00 0,00 29/02/2024
180 1644100 ALICE LUIZA RODRIGUES DIAS ESTAGIARIO BELO HORIZONTE; DIR CRIACAO E MIDIAS 0,00 0,00 0,00 324,00 0,00 0,00 0,00 0,00 0,00 29/02/2024
181 618400 ALICE MAGALHAES MACEDO DE CARVALHO ANALISTA DO MP IPATINGA - COMARCA; IPATINGA-PJ-10PJ 1.978,00 1.146,58 605,00 0,00 5.974,31 0,00 0,00 0,00 0,00 29/02/2024
182 707000 ALICE MARIA RIBEIRO DINIZ ASSESSOR PROMOTOR JUSTICA BELO HORIZONTE - COMARCA; PROC JUST ATUACAO TRIBUNAIS SUPERIORES-GAB003 0,00 0,00 0,00 306,00 0,00 0,00 0,00 0,00 0,00 29/02/2024
183 1585500 ALICE MARIANA DA SILVA ESTAGIARIO TRES CORACOES; TRES CORACOES-PJ-06PJ 0,00 0,00 0,00 324,00 0,00 0,00 0,00 0,00 0,00 29/02/2024
184 471000 ALICE TITONELI MOREIRA ANALISTA DO MP MIRADOURO - COMARCA; MIRADOURO-PJ-UNPJ 1.978,00 1.146,58 605,00 0,00 0,00 0,00 0,00 0,00 0,00 29/02/2024
185 1596200 ALICIA GABRIELLA ALVES COSTA MAXIMO ESTAGIARIO BETIM; BETIM-PJ-05PJ 0,00 0,00 0,00 342,00 0,00 0,00 0,00 0,00 0,00 29/02/2024
186 731600 ALICIA PAULA RODRIGUES DE LIMA ASSESSOR PROMOTOR JUSTICA TIROS - COMARCA; TIROS-PJ-UNPJ 0,00 0,00 0,00 270,00 0,00 0,00 0,00 0,00 0,00 29/02/2024
187 725800 ALINE ALBIERI FRANCISCO ASSESSOR PROMOTOR JUSTICA BELO HORIZONTE - COMARCA; CAO-ORDEM ECONOMICA E TRIBUTARIA-ASSESS TECN 0,00 0,00 0,00 324,00 0,00 0,00 0,00 0,00 0,00 29/02/2024
188 733200 ALINE APARECIDA DO PRADO TERRITO ASSESSOR ADMINISTRATIVO II BELO HORIZONTE - COMARCA; ESCRITORIO DE PROTECAO DE DADOS PESSOAIS 0,00 0,00 0,00 342,00 0,00 0,00 0,00 0,00 0,00 29/02/2024
189 1612300 ALINE APARECIDA SOARES FERREIRA ESTAGIARIO BELO HORIZONTE; COORD REG SAUDE MACRORREGIAO SANITARIA CENTRO 0,00 0,00 0,00 342,00 0,00 0,00 0,00 0,00 0,00 29/02/2024
190 622400 ALINE BALBINO PORTUGAL LOPES ANALISTA DO MP TRÊS PONTAS - COMARCA; TRES PONTAS-PJ-03PJ 1.978,00 1.146,58 605,00 0,00 5.974,31 0,00 0,00 0,00 0,00 29/02/2024
191 373000 ALINE BOTELHO RESENDE OFICIAL DO MP JUIZ DE FORA - COMARCA; JUIZ DE FORA-PJ-22PJ 1.978,00 0,00 605,00 0,00 0,00 0,00 0,00 0,00 0,00 29/02/2024
192 758600 ALINE BRAGA MESSIAS ASSESSOR PROMOTOR JUSTICA BELO HORIZONTE - COMARCA; BH-02PJ FAMILIA 1.978,00 0,00 605,00 0,00 0,00 0,00 0,00 0,00 0,00 29/02/2024
193 751600 ALINE CORGOZINHO MARRA ESTAGIARIO CARLOS CHAGAS; CARLOS CHAGAS-PJ-UNPJ 0,00 0,00 0,00 36,00 0,00 0,00 0,00 0,00 0,00 29/02/2024
194 1538700 ALINE CORREA DA SILVA ESTAGIARIO CONTAGEM; CONTAGEM-PJ-18PJ 0,00 0,00 0,00 216,00 0,00 0,00 0,00 0,00 0,00 29/02/2024
195 699800 ALINE CRISTINA DE OLIVEIRA AMARAL BARBOSA ASSESSOR PROCURADOR JUSTICA BELO HORIZONTE - COMARCA; GABINETE DE PROCURADOR DE JUSTIÇA - SALA 904 1.978,00 0,00 605,00 0,00 0,00 0,00 0,00 0,00 0,00 29/02/2024
196 407700 ALINE CRISTINA RODRIGUES PEREIRA COORDENADOR II BELO HORIZONTE - COMARCA; DIRETORIA DE PROJETOS DE EDIFICACOES 1.978,00 0,00 605,00 0,00 5.338,75 0,00 0,00 0,00 0,00 29/02/2024
197 193100 ALINE CRISTINA SENA OLIVEIRA OFICIAL DO MP UBERLÂNDIA - COMARCA; UBERLANDIA-PJ-03PJ 1.978,00 1.146,58 605,00 0,00 5.977,03 0,00 0,00 0,00 0,00 29/02/2024
198 554200 ALINE CRISTINA SILVA SOUZA OFICIAL DO MP TIROS - COMARCA; TIROS-PJ-UNPJ 1.978,00 0,00 605,00 0,00 0,00 0,00 0,00 0,00 0,00 29/02/2024
199 505500 ALINE DA CUNHA MARREIROS OLIVEIRA ANALISTA DO MP EUGENÓPOLIS - COMARCA; EUGENOPOLIS-PJ-UNPJ 1.978,00 2.293,16 605,00 0,00 0,00 0,00 0,00 0,00 0,00 29/02/2024
200 433500 ALINE DE MELO QUEIROZ OFICIAL DO MP BELO HORIZONTE - COMARCA; ASSESSORIA JURIDICA DO PROCON-MG 1.978,00 1.146,58 605,00 0,00 0,00 0,00 0,00 0,00 0,00 29/02/2024
201 691100 ALINE DE MELO SOUZA ASSESSOR PROCURADOR JUSTICA BELO HORIZONTE - COMARCA; GABINETE DE PROCURADOR DE JUSTIÇA - SALA 401 1.978,00 0,00 605,00 0,00 0,00 0,00 0,00 0,00 0,00 29/02/2024
202 542700 ALINE DE SOUSA ALBINO ANALISTA DO MP CONTAGEM - COMARCA; CONTAGEM-PJ-09PJ 1.978,00 0,00 605,00 0,00 5.924,93 0,00 0,00 0,00 0,00 29/02/2024
203 330000 ALINE DIORIO MAYRINK OFICIAL DO MP BELO HORIZONTE - COMARCA; SUPER DE GESTAO DE PESSOAS-LOTACAO TEMPORARIA 1.978,00 0,00 605,00 0,00 5.768,98 0,00 0,00 0,00 0,00 29/02/2024
204 706700 ALINE DOS SANTOS JESUS SILVA ESTAGIARIO BELO HORIZONTE; DSMT-LABORATORIO DE MANUTENCAO 1.978,00 0,00 605,00 0,00 0,00 0,00 0,00 0,00 0,00 29/02/2024
205 499000 ALINE FERREIRA LOPES ANALISTA DO MP TEÓFILO OTONI - COMARCA; TEOFILO OTONI-PJ-09PJ 1.978,00 0,00 605,00 0,00 5.924,93 0,00 0,00 0,00 0,00 29/02/2024
206 405300 ALINE LAIA CARDOZO SUPERINTENDENTE BELO HORIZONTE - COMARCA; SUPERINTENDENCIA LOGISTICA SERVICOS 1.978,00 0,00 605,00 0,00 5.826,79 0,00 0,00 0,00 0,00 29/02/2024
207 1549400 ALINE MARCAL ALEIXO ESTAGIARIO CONTAGEM; CONTAGEM-PJ-05PJ 0,00 0,00 0,00 342,00 0,00 0,00 0,00 0,00 0,00 29/02/2024
208 278200 ALINE MARCIA FARIA BARBOSA FERNANDES OFICIAL DO MP BARBACENA - COMARCA; BARBACENA-PJ-SECRETARIA 1.978,00 0,00 605,00 0,00 5.889,24 0,00 0,00 0,00 0,00 29/02/2024
209 1490300 ALINE MENDES CARDOZO ESTAGIARIO CURVELO; CURVELO-PJ-03PJ 0,00 0,00 0,00 306,00 0,00 0,00 0,00 0,00 0,00 29/02/2024
210 389000 ALINE NERI NOBRE ANALISTA DO MP MONTES CLAROS - COMARCA; COORD REG PJ DEF EDUC DIR CRIANCA ADOL NORTE 1.978,00 0,00 605,00 0,00 5.749,43 0,00 0,00 0,00 0,00 29/02/2024
211 294600 ALINE PATRICIA SILVA VIEIRA OFICIAL DO MP UBERLÂNDIA - COMARCA; UBERLANDIA-PJ-03PJ 1.978,00 0,00 605,00 0,00 6.047,91 0,00 1.771,66 0,00 1.544,70 29/02/2024
212 420000 ALINE RODRIGUES CAMOROPIN ANALISTA DO MP SABARÁ - COMARCA; SABARA-PJ-02PJ 1.978,00 0,00 605,00 0,00 5.840,90 0,00 0,00 0,00 0,00 29/02/2024
213 1615200 ALINE RODRIGUES DOS SANTOS ESTAGIARIO ITAMBACURI; ITAMBACURI-PJ-02PJ 0,00 0,00 0,00 342,00 0,00 0,00 0,00 0,00 0,00 29/02/2024
214 715800 ALINE SANTOS PEDROSA MAIA BARBOSA ASSESSOR PROCURADOR JUSTICA BELO HORIZONTE - COMARCA; GABINETE DE PROCURADOR DE JUSTIÇA - SALA 1010 1.978,00 0,00 605,00 0,00 0,00 0,00 0,00 0,00 0,00 29/02/2024
215 699600 ALINE SEPULVEDA ROSA PIRES ASSESSOR PROCURADOR JUSTICA BELO HORIZONTE - COMARCA; GABINETE DE PROCURADOR DE JUSTIÇA - SALA 905 1.978,00 0,00 605,00 0,00 0,00 0,00 0,00 0,00 0,00 29/02/2024
216 408300 ALINE SILVA ARAUJO DE PAULA ANALISTA DO MP SÃO SEBASTIÃO DO PARAÍSO - COMARCA; SAO SEBASTIAO DO PARAISO-PJ-02PJ 1.978,00 0,00 605,00 0,00 5.840,90 0,00 0,00 0,00 0,00 29/02/2024
217 665900 ALINE SILVA BARROS PROMOTOR 2A ENTRANCIA FRUTAL - COMARCA; FRUTAL-PJ-02PJ 1.978,00 0,00 892,88 0,00 17.922,61 0,00 0,00 0,00 547,64 29/02/2024
218 1554300 ALINE SILVA MONTOVANI ESTAGIARIO VARGINHA; GAECO REGIONAL DE VARGINHA 0,00 0,00 0,00 324,00 0,00 0,00 0,00 0,00 0,00 29/02/2024
219 734300 ALINE TAVARES GURGEL ASSESSOR ADMINISTRATIVO III BELO HORIZONTE - COMARCA; SECRETARIA-GERAL 0,00 0,00 0,00 324,00 0,00 0,00 0,00 0,00 0,00 29/02/2024
220 425400 ALINE TRINDADE DE FREITAS CAMPOS OFICIAL DO MP BELO HORIZONTE - COMARCA; PROMOT ESTADUAL DE DEF PATRI CULT E TUR DE MG 1.978,00 0,00 605,00 0,00 0,00 0,00 0,00 0,00 1.234,36 29/02/2024
221 753900 ALINI PEREIRA DE ALMEIDA ASSESSOR PROMOTOR JUSTICA CAMPOS GERAIS - COMARCA; CAMPOS GERAIS-PJ-01PJ 0,00 0,00 0,00 36,00 0,00 0,00 0,00 0,00 0,00 29/02/2024
222 1587800 ALINITY DA SILVA CORREIA ESTAGIARIO CARANGOLA; CARANGOLA-PJ-03PJ 0,00 0,00 0,00 198,00 0,00 0,00 0,00 0,00 0,00 29/02/2024
223 1699700 ALISON LUIZ DE OLIVEIRA ESTAGIARIO BELO HORIZONTE; DIRET DE INFORMACAO E CONHECIMENTO-DINC/CEAF 0,00 0,00 0,00 342,00 0,00 0,00 0,00 0,00 0,00 29/02/2024
224 517200 ALISSOM PEREIRA DA SILVA ANALISTA DO MP BORDA DA MATA - COMARCA; BORDA DA MATA-PJ-UNPJ 1.978,00 1.146,58 605,00 0,00 5.776,81 0,00 0,00 0,00 0,00 29/02/2024
225 1676900 ALISSON FERNANDES PEREIRA ESTAGIARIO LAVRAS; LAVRAS-PJ-01PJ 0,00 0,00 0,00 342,00 0,00 0,00 0,00 0,00 0,00 29/02/2024
226 442400 ALISSON LABRE ANALISTA DO MP VARGINHA - COMARCA; VARGINHA-PJ-03PJ 1.978,00 0,00 605,00 0,00 5.870,43 0,00 0,00 0,00 0,00 29/02/2024
227 707000 ALLAN HENRIQUE DE MORAIS ESTAGIARIO MATIAS BARBOSA; MATIAS BARBOSA-PJ-UNPJ 0,00 0,00 0,00 306,00 0,00 0,00 0,00 0,00 0,00 29/02/2024
228 643800 ALLAN PAUL FONSECA DE CASTRO OFICIAL DO MP CONTAGEM - COMARCA; CONTAGEM-PJ-SECRETARIA 1.978,00 1.146,58 605,00 0,00 0,00 0,00 0,00 0,00 0,00 29/02/2024
229 612900 ALLAN VINICIUS VIEIRA ARAUJO COORDENADOR II BELO HORIZONTE - COMARCA; DIRETORIA DE GESTAO DOCUMENTAL 1.978,00 0,00 605,00 0,00 5.420,89 0,00 0,00 0,00 0,00 29/02/2024
230 1406800 ALLANA LUISA PIRES DA CUNHA ESTAGIARIO TRES MARIAS; TRES MARIAS-PJ-UNPJ 0,00 0,00 0,00 252,00 0,00 0,00 0,00 0,00 0,00 29/02/2024
231 729100 ALLANA MOREIRA ARQUETTI GUALTER LEITE ESTAGIARIO MESQUITA; MESQUITA-PJ-UNPJ 1.978,00 0,00 605,00 0,00 0,00 0,00 0,00 0,00 0,00 29/02/2024
232 349000 ALLEC RODRIGUES VIEIRA OFICIAL DO MP CAPINÓPOLIS - COMARCA; CAO-CIVEL 1.978,00 0,00 605,00 0,00 5.776,81 0,00 0,00 0,00 0,00 29/02/2024
233 532400 ALLENDER BARRETO LIMA DA SILVA PROMOTOR 2A ENTRANCIA CAETÉ - COMARCA; CAETE-PJ-01PJ 1.978,00 0,00 947,00 0,00 0,00 0,00 0,00 0,00 0,00 29/02/2024
234 297300 ALLYSON SALIBA MONTEIRO LAIZO ANALISTA DO MP CONSELHEIRO LAFAIETE - COMARCA; CONSELHEIRO LAFAIETE-PJ-03PJ 1.978,00 1.146,58 605,00 0,00 5.998,28 0,00 0,00 0,00 0,00 29/02/2024
235 68900 ALMIR ALVES MOREIRA PROCURADOR DE JUSTICA BELO HORIZONTE - COMARCA; GABINETE DE PROCURADOR DE JUSTIÇA - SALA 1012 1.978,00 0,00 3.111,57 0,00 25.411,35 0,00 0,00 0,00 776,46 29/02/2024
236 226601 ALMIR GERALDO GUIMARAES PROMOTOR 2A ENTRANCIA MATEUS LEME - COMARCA; MATEUS LEME-PJ-02PJ 1.978,00 2.293,16 3.584,52 0,00 17.922,60 0,00 0,00 0,00 547,64 29/02/2024
237 303700 ALMIR LOPES LOURES ANALISTA DO MP BELO HORIZONTE - COMARCA; CENTRAL DE APOIO TECN-SETOR DE MEIO AMBIENTE 1.978,00 0,00 605,00 0,00 5.998,28 0,00 0,00 0,00 0,00 29/02/2024
238 743900 ALMIR MOREIRA DOS SANTOS ANALISTA DO MP BELO HORIZONTE - COMARCA; DIRETORIA DE ADMINISTRACAO FINANCEIRA 0,00 0,00 0,00 180,00 0,00 0,00 0,00 0,00 0,00 29/02/2024
239 440700 ALOISIO CUNHA SOARES JUNIOR PROMOTOR 2A ENTRANCIA PATROCÍNIO - COMARCA; PATROCINIO-PJ-04PJ 1.978,00 0,00 2.570,42 0,00 17.922,60 0,00 0,00 0,00 547,64 29/02/2024
240 90600 ALOISIO RABELO DE REZENDE PROMOT.ENTRANC.ESPECIAL VARGINHA - COMARCA; VARGINHA-PJ-01PJ 1.978,00 0,00 3.625,65 0,00 21.988,28 0,00 0,00 0,00 775,23 29/02/2024
241 696600 ALOIZIO MARTINS JALES JUNIOR ASSESSOR PROMOTOR JUSTICA CAMPESTRE - COMARCA; CAMPESTRE-PJ-SECRETARIA 1.978,00 0,00 605,00 0,00 0,00 0,00 0,00 0,00 0,00 29/02/2024
242 515900 ALTAIR NEVES JUNIOR OFICIAL DO MP BELO HORIZONTE - COMARCA; BH-01PJ FAZENDA PUBLICA-SECRETARIA 1.978,00 0,00 605,00 0,00 6.057,50 0,00 0,00 0,00 0,00 29/02/2024
243 290800 ALUISIA BERALDO RIBEIRO PROMOT.ENTRANC.ESPECIAL UBERLÂNDIA - COMARCA; UBERLANDIA-PJ-14PJ 1.978,00 0,00 1.785,77 0,00 6.651,64 0,00 0,00 0,00 609,73 29/02/2024
244 233300 ALVARINDO BATISTA ANALISTA DO MP BELO HORIZONTE - COMARCA; DIR CRIACAO E MIDIAS 1.978,00 0,00 605,00 0,00 0,00 0,00 0,00 0,00 0,00 29/02/2024
245 741700 ALVARO CALAZANS DE SOUZA NETO PROMOTOR SUBSTITUTO ITAMARANDIBA - COMARCA; ITAMARANDIBA-PJ-UNPJ 0,00 0,00 0,00 180,00 0,00 0,00 0,00 0,00 0,00 29/02/2024
246 750400 ALVARO HENRIQUE FERREIRA DA SILVA OFICIAL DO MP COMARCA - JUATUBA; JUATUBA-PJ-UNPJ 0,00 0,00 0,00 36,00 0,00 0,00 0,00 0,00 0,00 29/02/2024
247 1599600 ALYNE MARIA EMERICK RABELO ESTAGIARIO MANHUMIRIM; MANHUMIRIM-PJ-02PJ 0,00 0,00 0,00 342,00 0,00 0,00 0,00 0,00 0,00 29/02/2024
248 1633600 ALYNE NEVES BARBOSA ESTAGIARIO RIO PIRACICABA; RIO PIRACICABA-PJ-UNPJ 0,00 0,00 0,00 342,00 0,00 0,00 0,00 0,00 0,00 29/02/2024
249 344400 ALYSSON CARDOZO CEMBRANEL PROMOT.ENTRANC.ESPECIAL BELO HORIZONTE - COMARCA; BH-17PJ PATRIMONIO PUBLICO-GAB 119PJ 1.978,00 0,00 2.578,12 0,00 18.865,91 0,00 0,00 0,00 576,46 29/02/2024
250 274100 ALYSSON CARVALHO VIDAL DE LACERDA OFICIAL DO MP MANHUAÇU - COMARCA; MANHUACU-PJ-01PJ 1.978,00 0,00 605,00 0,00 0,00 0,00 0,00 0,00 0,00 29/02/2024
251 743000 AMANDA APARECIDA CARDOSO MARTINS ESTAGIARIO BELO HORIZONTE; CAO-CRIMINAL-SECRETARIA 1.978,00 0,00 605,00 0,00 0,00 0,00 0,00 0,00 0,00 29/02/2024
252 621000 AMANDA BASTOS ALVES ANALISTA DO MP BELO HORIZONTE - COMARCA; BH-07PJ 02 TRIBUNAL DO JURI-GAB 066PJ 1.978,00 0,00 605,00 0,00 0,00 0,00 0,00 0,00 0,00 29/02/2024
253 706000 AMANDA BRAZ DE SOUSA ESTAGIARIO NOVA SERRANA; NOVA SERRANA-PJ-01PJ 0,00 0,00 0,00 342,00 0,00 0,00 0,00 0,00 0,00 29/02/2024
254 1630500 AMANDA CAROLINA CRUZ DE SOUZA ESTAGIARIO SANTA LUZIA; SANTA LUZIA-PJ-07PJ 0,00 0,00 0,00 306,00 0,00 0,00 0,00 0,00 0,00 29/02/2024
255 727800 AMANDA CAVALCANTE FERREIRA SOUTO ESTAGIARIO NOVA LIMA; NOVA LIMA-PJ-02PJ 1.978,00 0,00 605,00 0,00 5.991,41 0,00 0,00 0,00 549,21 29/02/2024
256 1697400 AMANDA CHRISTINA MATTOS CORDEIRO ESTAGIARIO BELO HORIZONTE; BH-18PJ VIOLENCIA DOMESTICA-GAB 177PJ 0,00 0,00 0,00 342,00 0,00 0,00 0,00 0,00 0,00 29/02/2024
257 1614400 AMANDA CORREA BRAGA ESTAGIARIO BELO HORIZONTE; BH-18PJ DIREITOS HUMANOS-GAB 126PJ 0,00 0,00 0,00 342,00 0,00 0,00 0,00 0,00 0,00 29/02/2024
258 521700 AMANDA CRISTINA AGUIAR MACHADO OFICIAL DO MP CONGONHAS - COMARCA; CONGONHAS-PJ-01PJ 1.978,00 0,00 605,00 0,00 0,00 0,00 0,00 0,00 0,00 29/02/2024
259 1613700 AMANDA CRISTINA BARBOSA DE ANDRADE ESTAGIARIO POUSO ALEGRE; POUSO ALEGRE-PJ-02PJ 0,00 0,00 0,00 342,00 0,00 0,00 0,00 0,00 0,00 29/02/2024
260 733500 AMANDA CRISTINA GONCALVES ASSESSOR ADMINISTRATIVO I PARACATU - COMARCA; COORD REG AP COM INCL MOB SOCIAIS NOROESTE MG 0,00 0,00 0,00 306,00 0,00 0,00 0,00 0,00 0,00 29/02/2024
261 713900 AMANDA DE ARAUJO CARVALHO ASSESSOR PROMOTOR JUSTICA ARAÇUAÍ - COMARCA; ARACUAI-PJ-01PJ 0,00 0,00 0,00 288,00 0,00 0,00 0,00 0,00 0,00 29/02/2024
262 613400 AMANDA DE ASSIS IUNES SANTOS ANALISTA DO MP CONGONHAS - COMARCA; CONGONHAS-PJ-01PJ 1.978,00 0,00 605,00 0,00 2.172,48 0,00 0,00 0,00 199,14 29/02/2024
263 1628100 AMANDA DE MELO GONCALVES ESTAGIARIO MURIAE; MURIAE-PJ-07PJ 0,00 0,00 0,00 288,00 0,00 0,00 0,00 0,00 0,00 29/02/2024
264 1568800 AMANDA DE MENEZES FERREIRA ESTAGIARIO BELO HORIZONTE; GABINETE DE PROCURADOR DE JUSTIÇA - SALA 803 0,00 0,00 0,00 126,00 0,00 0,00 0,00 0,00 0,00 29/02/2024
265 695900 AMANDA DE OLIVEIRA ASSESSOR PROCURADOR JUSTICA BELO HORIZONTE - COMARCA; PROC JUST ATUACAO TRIBUNAIS SUPERIORES-GAB004 1.978,00 0,00 605,00 0,00 2.819,48 0,00 0,00 0,00 0,00 29/02/2024
266 520800 AMANDA DE SOUZA MACHADO ANALISTA DO MP BAEPENDI - COMARCA; BAEPENDI-PJ-UNPJ 1.978,00 0,00 605,00 0,00 5.924,93 0,00 0,00 0,00 0,00 29/02/2024
267 663900 AMANDA DENISE GONCALVES DA SILVA ASSESSOR ADMINISTRATIVO I BELO HORIZONTE - COMARCA; SECRETARIA DO PROCON-MG 1.978,00 0,00 605,00 0,00 0,00 0,00 0,00 0,00 0,00 29/02/2024
268 1479900 AMANDA DILASCIO RIBEIRO FICHE ESTAGIARIO SAO JOAO DEL REI; SAO JOAO DEL REI-PJ-01PJ 0,00 0,00 0,00 342,00 0,00 0,00 0,00 0,00 0,00 29/02/2024
269 1583100 AMANDA ESTEFFANY VIANA E SILVA ESTAGIARIO RIO PARDO DE MINAS; RIO PARDO DE MINAS-PJ-UNPJ 0,00 0,00 0,00 342,00 0,00 0,00 0,00 0,00 0,00 29/02/2024
270 1572100 AMANDA GABRIELA GONCALVES DE MIRANDA ESTAGIARIO BETIM; BETIM-PJ-04PJ 0,00 0,00 0,00 342,00 0,00 0,00 0,00 0,00 0,00 29/02/2024
271 713800 AMANDA INSAVRALDE DA SILVA ESTAGIARIO BELO HORIZONTE; BH-14PJ DEFESA CONSUMIDOR
272 1551900 AMANDA LUIZA NUNES SOARES ESTAGIARIO BELO HORIZONTE; BH-18PJ VIOLENCIA DOMESTICA-GAB 007PJ 0,00 0,00 0,00 18,00 0,00 0,00 0,00 0,00 0,00 29/02/2024
273 754800 AMANDA MAGALHAES DE CARVALHO E SILVA ASSESSOR PROCURADOR JUSTICA BELO HORIZONTE - COMARCA; GABINETE DE PROCURADOR DE JUSTIÇA - SALA 1008 0,00 0,00 0,00 36,00 0,00 0,00 0,00 0,00 0,00 29/02/2024
274 666000 AMANDA MERLINI DUTRA OSIPE PROMOTOR 2A ENTRANCIA ITURAMA - COMARCA; ITURAMA - 03ª PJ 1.978,00 1.146,58 2.435,14 0,00 5.974,20 0,00 0,00 0,00 547,64 29/02/2024
275 1559600 AMANDA PAULA LOPES PALMEIRA ESTAGIARIO RIBEIRAO DAS NEVES; RIBEIRAO DAS NEVES-PJ-07PJ 0,00 0,00 0,00 216,00 0,00 0,00 0,00 0,00 0,00 29/02/2024
276 1607200 AMANDA PEDROSO SILVA ESTAGIARIO BELO HORIZONTE; BH-13PJ JUIZO DE TOXICOS-GAB 006PJ 0,00 0,00 0,00 198,00 125,00 0,00 0,00 0,00 0,00 29/02/2024
277 703400 AMANDA RAMOS ESTAGIARIO BELO HORIZONTE; PROC. JUSTICA CIVEL 0,00 0,00 0,00 342,00 0,00 0,00 0,00 0,00 0,00 29/02/2024
278 1663700 AMANDA RIBEIRO MARTINS OLIVEIRA ESTAGIARIO ITANHOMI; ITANHOMI-PJ-UNPJ 0,00 0,00 0,00 342,00 0,00 0,00 0,00 0,00 0,00 29/02/2024
279 1661900 AMANDA SILVA MEDEIROS ESTAGIARIO CAMPINA VERDE; CAMPINA VERDE-PJ-UNPJ 0,00 0,00 0,00 342,00 0,00 0,00 0,00 0,00 0,00 29/02/2024
280 1695000 AMANDA TRINDADE LINS CARDOSO ESTAGIARIO GOVERNADOR VALADARES; GAECO REGIONAL DE GOVERNADOR VALADARES 0,00 0,00 0,00 342,00 0,00 0,00 0,00 0,00 61,67 29/02/2024
281 1468200 AMANDA VIEIRA FREIRE ESTAGIARIO BELO HORIZONTE; BH-13PJ JUIZO DE TOXICOS-GAB 079PJ 0,00 0,00 0,00 198,00 0,00 0,00 0,00 0,00 0,00 29/02/2024
282 543100 AMANDA VIEIRA FREITAS ANALISTA DO MP VARGINHA - COMARCA; COORD REG DEF ORDEM ECON TRIB VARGINHA 1.978,00 0,00 605,00 0,00 0,00 0,00 0,00 0,00 0,00 29/02/2024
283 1609000 AMANDA VITORIA ALVES NOCA ESTAGIARIO PATROCINIO; PATROCINIO-PJ-02PJ 0,00 0,00 0,00 306,00 0,00 0,00 0,00 0,00 0,00 29/02/2024
284 434400 AMARILIS ASSIS SIMAO CURCIO ANALISTA DO MP BELO HORIZONTE - COMARCA; DIRETORIA GESTAO COMPRAS LICITACOES 1.978,00 0,00 605,00 0,00 0,00 0,00 0,00 0,00 0,00 29/02/2024
285 652000 AMAURI SILVA ALVES ASSESSOR ADMINISTRATIVO III BELO HORIZONTE - COMARCA; DIRETORIA GESTAO COMPRAS LICITACOES 1.978,00 0,00 605,00 0,00 5.733,50 0,00 0,00 0,00 525,57 29/02/2024
286 1642100 AMAURY BAETA MAINENTI ESTAGIARIO BELO HORIZONTE; COORD CONTROLE CONST-SECRETARIA 0,00 0,00 0,00 324,00 0,00 0,00 0,00 0,00 0,00 29/02/2024
287 58000 AMELIA GUARIZE DE CASTRO OFICIAL DO MP JUIZ DE FORA - COMARCA; JUIZ DE FORA-PJ-SECRETARIA 1.978,00 0,00 605,00 0,00 5.573,16 0,00 0,00 0,00 0,00 29/02/2024
288 324301 AMERICA SUELI FERREIRA DA SILVA ANALISTA DO MP UBERLÂNDIA - COMARCA; UBERLANDIA-PJ-02PJ 1.978,00 0,00 605,00 0,00 5.776,81 0,00 0,00 0,00 0,00 29/02/2024
289 273300 AMUJACY DE BRITO ASSIZ OFICIAL DO MP BELO HORIZONTE - COMARCA; BH-12PJ JUIZO CRIMINAL-SECRETARIA 1.978,00 0,00 605,00 0,00 0,00 0,00 0,00 0,00 0,00 29/02/2024
290 482200 ANA ALICE LOPES ACHTSCHIN ANALISTA DO MP BELO HORIZONTE - COMARCA; PROC JUST ATUACAO TRIBUNAIS SUPERIORES-GAB005 1.978,00 0,00 605,00 0,00 5.931,65 0,00 0,00 0,00 0,00 29/02/2024
291 490400 ANA AMELIA PAULINO GARCIA OFICIAL DO MP CONTAGEM - COMARCA; CONTAGEM-PJ-SECRETARIA 1.978,00 3.439,74 605,00 0,00 0,00 0,00 0,00 0,00 0,00 29/02/2024
292 671300 ANA BARBARA CANEDO OLIVEIRA PROMOT.ENTRANC.ESPECIAL GOVERNADOR VALADARES - COMARCA; GOVERNADOR VALADARES-PJ-17PJ 1.978,00 0,00 947,00 0,00 18.865,91 0,00 0,00 0,00 576,46 29/02/2024
293 1646500 ANA BEATRIZ ALVES DA SILVA ESTAGIARIO MATEUS LEME; MATEUS LEME-PJ-02PJ 0,00 0,00 0,00 342,00 0,00 0,00 0,00 0,00 0,00 29/02/2024
294 714900 ANA BEATRIZ LOBATO ALVES DE CARVALHO ASSESSOR PROCURADOR JUSTICA BELO HORIZONTE - COMARCA; GABINETE DE PROCURADOR DE JUSTIÇA - SALA 414 0,00 0,00 0,00 342,00 0,00 0,00 0,00 0,00 0,00 29/02/2024
295 710100 ANA BEATRIZ PEREIRA LIBERATO DOS SANTOS ESTAGIARIO BELO HORIZONTE; BH-07PJ TRIBUNAL DO JURI 1.978,00 0,00 605,00 0,00 0,00 0,00 0,00 0,00 0,00 29/02/2024
296 1515700 ANA BEATRIZ VIANA DA SILVA ESTAGIARIO JOAO MONLEVADE; JOAO MONLEVADE-PJ-02PJ 0,00 0,00 0,00 324,00 0,00 0,00 0,00 0,00 0,00 29/02/2024
297 723200 ANA CAROLINA AMABILE ALVES INVESTIGADOR DE POLICIA 2 0,00 0,00 0,00 342,00 0,00 0,00 0,00 0,00 0,00 29/02/2024
298 279100 ANA CAROLINA ARAUJO PEREIRA ANALISTA DO MP BELO HORIZONTE - COMARCA; DIRETORIA DE PROJETOS DE EDIFICACOES 1.978,00 0,00 605,00 0,00 0,00 0,00 0,00 0,00 0,00 29/02/2024
299 1568600 ANA CAROLINA CARVALHO DOMINGUES ESTAGIARIO LAVRAS; LAVRAS-PJ-05PJ 0,00 0,00 0,00 324,00 0,00 0,00 0,00 0,00 0,00 29/02/2024
300 653300 ANA CAROLINA CYRNE DINIZ ASSESSOR ADMINISTRATIVO III BELO HORIZONTE - COMARCA; CENTRAL DE APOIO TECNICO-SETOR CONTABIL 0,00 0,00 605,00 0,00 0,00 0,00 0,00 0,00 0,00 29/02/2024
301 359400 ANA CAROLINA DE ABREU FARIA ASSESSOR ADMINISTRATIVO IV BELO HORIZONTE - COMARCA; SUPERINTENDÊNCIA DE ENGENHARIA E ARQUITETURA 1.978,00 1.146,58 605,00 0,00 5.795,29 0,00 0,00 0,00 531,23 29/02/2024
302 408500 ANA CAROLINA DE CASTRO CARVALHO ANALISTA DO MP BARBACENA - COMARCA; BARBACENA - SECRETARIA DAS PJS CRIMINAIS 1.978,00 1.146,58 605,00 0,00 5.840,90 0,00 0,00 0,00 0,00 29/02/2024
303 1560500 ANA CAROLINA DE FREITAS PAULINO ESTAGIARIO JUIZ DE FORA; JUIZ DE FORA-PJ-16PJ 0,00 0,00 0,00 342,00 0,00 0,00 0,00 0,00 0,00 29/02/2024
304 1542400 ANA CAROLINA DE OLIVEIRA FROES ESTAGIARIO NOVA LIMA; NOVA LIMA-PJ-03PJ 0,00 0,00 0,00 324,00 0,00 0,00 0,00 0,00 0,00 29/02/2024
305 1551800 ANA CAROLINA DE OLIVEIRA GOMES ESTAGIARIO BELO HORIZONTE; BH-08PJ JUIZADO ESPECIAL-SECRETARIA 0,00 0,00 0,00 324,00 0,00 0,00 0,00 0,00 0,00 29/02/2024
306 688000 ANA CAROLINA DE OLIVEIRA PINTO ASSESSOR PROCURADOR JUSTICA BELO HORIZONTE - COMARCA; GABINETE DE PROCURADOR DE JUSTIÇA - SALA 1011 -359,64 1.146,58 605,00 0,00 0,00 0,00 0,00 0,00 0,00 29/02/2024
307 755200 ANA CAROLINA DOS ANJOS SILVA ESTAGIARIO ARAGUARI; ARAGUARI-PJ-04PJ 0,00 0,00 0,00 18,00 0,00 0,00 0,00 0,00 0,00 29/02/2024
308 598900 ANA CAROLINA DUARTE DA SILVA INVESTIGADOR DE POLICIA 2 BELO HORIZONTE - COMARCA; PROC JUST ESP ACOES COMP ORIG CRIMINAL-SEC 1.978,00 0,00 0,00 0,00 0,00 0,00 0,00 0,00 0,00 29/02/2024
309 420200 ANA CAROLINA FERNANDES SILVA ANALISTA DO MP BELO HORIZONTE - COMARCA; GABINETE DE PROCURADOR DE JUSTIÇA - SALA 704 1.978,00 0,00 605,00 0,00 0,00 0,00 0,00 0,00 0,00 29/02/2024
310 522100 ANA CAROLINA FERNANDINO VIDAL PEREIRA SANTOS OFICIAL DO MP BELO HORIZONTE - COMARCA; CAO-CRIANCAS E ADOLESCENTES-SECRETARIA 1.978,00 0,00 605,00 0,00 1.514,37 0,00 0,00 0,00 0,00 29/02/2024
311 1609600 ANA CAROLINA FERREIRA SOARES ESTAGIARIO CONTAGEM; CONTAGEM-PJ-25PJ 0,00 0,00 0,00 306,00 0,00 0,00 0,00 0,00 0,00 29/02/2024
312 716001 ANA CAROLINA FIGUEIREDO SILVA ASSESSOR ADMINISTRATIVO II BELO HORIZONTE - COMARCA; PROC JUST ATUACAO TRIBUNAIS SUPERIORES-GAB003 1.978,00 0,00 605,00 0,00 0,00 0,00 0,00 0,00 0,00 29/02/2024
313 244700 ANA CAROLINA GARCIA COSTA PROMOT.ENTRANC.ESPECIAL BELO HORIZONTE - COMARCA; BH-23PJ INFRACIONAL-GAB 147PJ 1.978,00 0,00 3.773,18 0,00 19.954,91 0,00 0,00 0,00 609,73 29/02/2024
314 1618200 ANA CAROLINA GONCALVES DE MELO ESTAGIARIO LAMBARI; LAMBARI-PJ-UNPJ 0,00 0,00 0,00 342,00 0,00 0,00 0,00 0,00 0,00 29/02/2024
315 502400 ANA CAROLINA GONCALVES FERNANDES ANALISTA DO MP IPATINGA - COMARCA; IPATINGA-PJ-01PJ 1.978,00 2.293,16 605,00 0,00 5.924,93 0,00 0,00 0,00 0,00 29/02/2024
316 723400 ANA CAROLINA GONCALVES GARCIA ESTAGIARIO BUENOPOLIS; BUENOPOLIS-PJ-UNPJ 1.978,00 0,00 605,00 0,00 2.819,48 0,00 0,00 0,00 0,00 29/02/2024
317 529900 ANA CAROLINA GONCALVES PECANHA CHEQUER ANALISTA DO MP MANHUAÇU - COMARCA; MANHUACU-PJ-04PJ 1.978,00 2.293,16 605,00 0,00 0,00 0,00 0,00 0,00 0,00 29/02/2024
318 1546300 ANA CAROLINA MARQUES RAMOS ESTAGIARIO BRUMADINHO; BRUMADINHO-PJ-02PJ 0,00 0,00 0,00 270,00 0,00 0,00 0,00 0,00 0,00 29/02/2024
319 431900 ANA CAROLINA MOTTA GUATIMOSIM ANALISTA DO MP BELO HORIZONTE - COMARCA; ASSESSORIA JURIDICO-ADMINISTRATIVA 1.978,00 1.146,58 605,00 0,00 6.091,94 0,00 0,00 0,00 558,43 29/02/2024
320 1491200 ANA CAROLINA OLIVEIRA DINIZ ESTAGIARIO CONTAGEM; CONTAGEM-PJ-03PJ 0,00 0,00 0,00 252,00 0,00 0,00 0,00 0,00 0,00 29/02/2024
321 1580400 ANA CAROLINA PEREIRA DOS SANTOS ESTAGIARIO BELO HORIZONTE; CENT ESTAD COOPERACAO TECNICO-JURIDICA
322 1461800 ANA CAROLINA PORTO SEGURO CAMPOS COELHO ESTAGIARIO BELO HORIZONTE; BH-26 CRIME CONT CRIAN ADOL-GAB 169PJ 0,00 0,00 0,00 306,00 0,00 0,00 0,00 0,00 0,00 29/02/2024
323 1524500 ANA CAROLINA VASCONCELOS VALADARES GRAVITO ESTAGIARIO BELO HORIZONTE; BH-23PJ CIVEL-GAB 162PJ
324 490600 ANA CAROLINA XAVIER GODOY ANALISTA DO MP BELO HORIZONTE - COMARCA; BH-18PJ VIOLENCIA DOMESTICA-GAB 007PJ 1.978,00 2.293,16 605,00 0,00 5.924,93 0,00 0,00 0,00 0,00 29/02/2024
325 313700 ANA CAROLINA ZAMBOM PINTO COELHO PROMOT.ENTRANC.ESPECIAL BELO HORIZONTE - COMARCA; COORD ESTADUAL DE DEFESA DA EDUCACAO 1.978,00 1.146,58 1.677,54 0,00 18.865,92 0,00 0,00 0,00 576,46 29/02/2024
326 1573900 ANA CAROLINE DA CRUZ ESTAGIARIO NOVA LIMA; NOVA LIMA-PJ-02PJ 0,00 0,00 0,00 324,00 0,00 0,00 0,00 0,00 0,00 29/02/2024
327 1602300 ANA CAROLINE DA SILVA ESTAGIARIO POUSO ALEGRE; POUSO ALEGRE-PJ-08PJ 0,00 0,00 0,00 342,00 0,00 0,00 0,00 0,00 0,00 29/02/2024
328 1660600 ANA CAROLINE DE OLIVEIRA ESTAGIARIO BONFIM; BONFIM-PJ-UNPJ 0,00 0,00 0,00 342,00 0,00 0,00 0,00 0,00 0,00 29/02/2024
329 600300 ANA CAROLINE PEREIRA DINIZ ANALISTA DO MP BELO HORIZONTE - COMARCA; PROC JUST ESP ACOES COMP ORIG CRIMINAL-SEC 1.978,00 1.146,58 605,00 0,00 5.924,93 0,00 0,00 0,00 0,00 29/02/2024
330 615800 ANA CAROLINE PEREIRA OLIVEIRA OFICIAL DO MP ALFENAS - COMARCA; ALFENAS-PJ-06PJ 1.978,00 0,00 605,00 0,00 2.312,06 0,00 0,00 0,00 0,00 29/02/2024
331 1689100 ANA CECILIA FERREIRA DIAS ESTAGIARIO BOCAIUVA; BOCAIUVA-PJ-02PJ 0,00 0,00 0,00 342,00 0,00 0,00 0,00 0,00 0,00 29/02/2024
332 229202 ANA CECILIA JUNQUEIRA GOUVEA PROMOT.ENTRANC.ESPECIAL RIBEIRÃO DAS NEVES - COMARCA; RIBEIRAO DAS NEVES-PJ-08PJ 1.978,00 0,00 2.759,82 0,00 6.288,64 0,00 0,00 0,00 576,46 29/02/2024
333 324800 ANA CECILIA MENDES DA SILVA OFICIAL DO MP OURO FINO - COMARCA; OURO FINO-PJ-01PJ 1.978,00 0,00 605,00 0,00 0,00 0,00 0,00 0,00 0,00 29/02/2024
334 1668300 ANA CECILIA PIMENTA SILVA ESTAGIARIO BOCAIUVA; BOCAIUVA-PJ-03PJ 0,00 0,00 0,00 306,00 0,00 0,00 0,00 0,00 0,00 29/02/2024
335 1563200 ANA CLARA ANTUNES DA SILVA FRASSI ESTAGIARIO CONTAGEM; CONTAGEM-PJ-07PJ 0,00 0,00 0,00 342,00 0,00 0,00 0,00 0,00 0,00 29/02/2024
336 1649600 ANA CLARA DE CASSIA JUSTO MOREIRA ESTAGIARIO SANTA RITA DO SAPUCAI; SANTA RITA DO SAPUCAI-PJ-01PJ 0,00 0,00 0,00 342,00 0,00 0,00 0,00 0,00 0,00 29/02/2024
337 1623000 ANA CLARA FERNANDES MATOS ALVES ESTAGIARIO ITABIRITO; ITABIRITO-PJ-01PJ 0,00 0,00 0,00 342,00 0,00 0,00 0,00 0,00 0,00 29/02/2024
338 736000 ANA CLARA FERREIRA AMARAL ASSESSOR ADMINISTRATIVO I BELO HORIZONTE - COMARCA; PROCURADOR-GERAL DE JUSTICA- GABINETE 0,00 0,00 0,00 342,00 0,00 0,00 0,00 0,00 0,00 29/02/2024
339 1480400 ANA CLARA GRECO VILLANI MARQUES ESTAGIARIO BELO HORIZONTE; BH-23PJ INFRACIONAL-GAB 144PJ 0,00 0,00 0,00 324,00 0,00 0,00 0,00 0,00 0,00 29/02/2024
340 704100 ANA CLARA MARTINS ALBUQUERQUE ASSESSOR DE CAO BELO HORIZONTE - COMARCA; CAO-CRIANCAS E ADOLESCENTES-ASS TECNICA 0,00 0,00 0,00 54,00 0,00 0,00 0,00 0,00 0,00 29/02/2024
341 1691800 ANA CLARA PEIXOTO NOGUEIRA ESTAGIARIO MONTALVANIA; MONTALVANIA-PJ-UNPJ 0,00 0,00 0,00 342,00 0,00 0,00 0,00 0,00 0,00 29/02/2024
342 698700 ANA CLARA SANTOS ALMEIDA ASSESSOR PROMOTOR JUSTICA SABINÓPOLIS - COMARCA; SABINOPOLIS-PJ-UNPJ 1.978,00 0,00 605,00 0,00 0,00 0,00 0,00 0,00 0,00 29/02/2024
343 756400 ANA CLARA SOARES PEREIRA BARBOSA ASSESSOR PROMOTOR JUSTICA CARMO DO PARANAÍBA - COMARCA; CARMO DO PARANAIBA-PJ-01PJ 0,00 0,00 0,00 36,00 0,00 0,00 0,00 0,00 0,00 29/02/2024
344 441300 ANA CLAUDIA ALKIMIM MIRANDA BOMTEMPO ANALISTA DO MP MONTES CLAROS - COMARCA; MONTES CLAROS-PJ-11PJ 1.978,00 0,00 605,00 0,00 0,00 0,00 0,00 0,00 0,00 29/02/2024
345 1490100 ANA CLAUDIA ALVES MACHADO ESTAGIARIO BELO HORIZONTE; BH-18PJ VIOLENCIA DOMESTICA 0,00 0,00 0,00 342,00 0,00 0,00 0,00 0,00 0,00 29/02/2024
346 642500 ANA CLAUDIA DA COSTA NAVES OFICIAL DO MP MONTE CARMELO - COMARCA; MONTE CARMELO-PJ-02PJ 1.978,00 1.146,58 605,00 0,00 0,00 65,70 0,00 0,00 0,00 29/02/2024
347 1392700 ANA CLAUDIA GOIANAZES MOREIRA ESTAGIARIO BELO HORIZONTE; GABINETE DE PROCURADOR DE JUSTIÇA - SALA 705
348 341500 ANA CLAUDIA LOPES PROMOT.ENTRANC.ESPECIAL BELO HORIZONTE - COMARCA; BH-07PJ 01 TRIBUNAL DO JURI-GAB 077PJ 1.978,00 0,00 1.244,63 0,00 18.865,91 0,00 0,00 0,00 576,46 29/02/2024
349 734300 ANA CLAUDIA LUCIANO ESTAGIARIO BELO HORIZONTE; SUPERINTENDÊNCIA DE ENGENHARIA E ARQUITETURA 0,00 0,00 0,00 324,00 0,00 0,00 0,00 0,00 0,00 29/02/2024
350 604900 ANA CLAUDIA OLIVEIRA DE MIRANDA OFICIAL DO MP PONTE NOVA - COMARCA; PONTE NOVA-PJ-04PJ 1.978,00 0,00 605,00 0,00 5.945,31 0,00 0,00 0,00 544,99 29/02/2024
351 379300 ANA CRISTINA ALVES FLAVIO ANALISTA DO MP SÃO GOTARDO - COMARCA; SAO GOTARDO-PJ-01PJ 1.978,00 1.146,58 605,00 0,00 0,00 0,00 0,00 0,00 0,00 29/02/2024
352 461200 ANA CRISTINA ALVES PASCHOAL ANALISTA DO MP BELO HORIZONTE - COMARCA; BH-07PJ 03 TRIBUNAL DO JURI-GAB 064PJ 1.978,00 0,00 605,00 0,00 0,00 0,00 0,00 0,00 0,00 29/02/2024
353 514100 ANA CRISTINA ARAUJO ASSUNCAO ANALISTA DO MP BELO HORIZONTE - COMARCA; ASSESS JUR DO CONS SUPERIOR DO MINISTERIO PUB 1.978,00 1.146,58 605,00 0,00 0,00 0,00 0,00 0,00 0,00 29/02/2024
354 113401 ANA CRISTINA BRAGA ALBUQUERQUE ASSESSOR ADM. ESPECIAL BELO HORIZONTE - COMARCA; DIRETORIA-GERAL 1.978,00 0,00 0,00 0,00 0,00 0,00 0,00 0,00 0,00 29/02/2024
355 233800 ANA CRISTINA BRAGA SOARES OFICIAL DO MP BELO HORIZONTE - COMARCA; DIRETORIA DE CONTABILIDADE 1.978,00 0,00 605,00 0,00 0,00 0,00 0,00 0,00 0,00 29/02/2024
356 186400 ANA CRISTINA DE AZEVEDO LOPES OFICIAL DO MP UBÁ - COMARCA; UBA-PJ-01PJ 1.978,00 0,00 605,00 0,00 5.977,03 0,00 0,00 0,00 0,00 29/02/2024
357 465100 ANA CRISTINA DE OLIVEIRA GUIMARAES ANALISTA DO MP ITAJUBA - COMARCA; ITAJUBA-PJ-05PJ 1.978,00 1.146,58 605,00 0,00 5.924,93 0,00 0,00 0,00 0,00 29/02/2024
358 500600 ANA CRISTINA LATADO SUDARIO ANALISTA DO MP UBERLÂNDIA - COMARCA; UBERLANDIA-PJ-09PJ 1.978,00 0,00 605,00 0,00 2.369,97 0,00 0,00 0,00 0,00 29/02/2024
359 331400 ANA CRISTINA RIBEIRO ALVES OFICIAL DO MP BAMBUÍ - COMARCA; BAMBUI-PJ-UNPJ 1.978,00 0,00 605,00 0,00 5.776,81 0,00 0,00 0,00 0,00 29/02/2024
360 1552300 ANA ELISA TEIXEIRA GONCALVES ESTAGIARIO IBIRITE; IBIRITE-PJ-06PJ
361 734200 ANA ELIZA VIEIRA PRADO ESTAGIARIO BELO HORIZONTE; SUPERINTENDÊNCIA DE ENGENHARIA E ARQUITETURA 1.978,00 0,00 605,00 0,00 0,00 0,00 0,00 0,00 0,00 29/02/2024
362 249300 ANA ELOINA MARTINS OFICIAL DO MP BETIM - COMARCA; BETIM-PJ-02PJ 1.978,00 0,00 605,00 0,00 5.439,23 0,00 0,00 0,00 0,00 29/02/2024
363 611500 ANA FLAVIA AFONSO DRUMOND AMORIM PROMOTOR 2A ENTRANCIA PIRAPORA - COMARCA; PIRAPORA-PJ-02PJ 1.978,00 0,00 0,00 0,00 17.922,60 0,00 0,00 0,00 547,64 29/02/2024
364 1466700 ANA FLAVIA ALVES ARAUJO ESTAGIARIO NOVA LIMA; NOVA LIMA-PJ-SECRETARIA 0,00 0,00 0,00 288,00 0,00 0,00 0,00 0,00 0,00 29/02/2024
365 257400 ANA FLAVIA CAMBRAIA ANALISTA DO MP BELO HORIZONTE - COMARCA; BH-19PJ SAUDE-SECRETARIA 150PJ 1.978,00 0,00 605,00 0,00 5.958,24 0,00 0,00 0,00 0,00 29/02/2024
366 248201 ANA FLAVIA DE MORAIS SOUZA ANALISTA DO MP DIVINÓPOLIS - COMARCA; DIVINOPOLIS-PJ-01PJ 1.978,00 1.146,58 605,00 0,00 6.055,23 0,00 0,00 0,00 0,00 29/02/2024
367 621100 ANA FLAVIA DINIZ TEODORO OFICIAL DO MP SANTA LUZIA - COMARCA; SANTA LUZIA-PJ-06PJ 1.978,00 0,00 605,00 0,00 0,00 0,00 0,00 0,00 0,00 29/02/2024
368 238600 ANA FLAVIA FRANCO OFICIAL DO MP BELO HORIZONTE - COMARCA; DIRETORIA DE PESSOAL ADMINISTRATIVO - DPAD 1.978,00 0,00 605,00 0,00 5.241,84 0,00 0,00 0,00 0,00 29/02/2024
369 725100 ANA FLAVIA HENRIQUES DE ANDRADE XAVIER ESTAGIARIO UBERABA; UBERABA-PJ-14PJ 0,00 0,00 0,00 270,00 0,00 0,00 0,00 0,00 0,00 29/02/2024
370 690001 ANA FLAVIA LURIAN DE PAIVA PROMOTOR SUBSTITUTO SANTA MARIA DO SUAÇUÍ - COMARCA; SANTA MARIA DO SUACUI-PJ-UNPJ 1.978,00 0,00 892,88 0,00 0,00 0,00 0,00 0,00 0,00 29/02/2024
371 402900 ANA FLAVIA PORTES DE CARVALHO ANALISTA DO MP BELO HORIZONTE - COMARCA; DIRET DE PLANOS PROJETOS E PROGRAMAS INST 1.978,00 0,00 605,00 0,00 5.338,75 0,00 0,00 0,00 0,00 29/02/2024
372 1641900 ANA FLAVIA SILVA VIEIRA ESTAGIARIO GUAPE; GUAPE-PJ-UNPJ 0,00 0,00 0,00 288,00 0,00 0,00 0,00 0,00 0,00 29/02/2024
373 526300 ANA GABRIELA BRITO MELO ROCHA PROMOTOR 2A ENTRANCIA TRÊS PONTAS - COMARCA; TRES PONTAS-PJ-03PJ 1.978,00 0,00 2.407,56 0,00 5.974,20 0,00 0,00 0,00 547,64 29/02/2024
374 1604100 ANA GABRIELLA OLIVEIRA BARBOSA ESTAGIARIO PERDIZES; PERDIZES-PJ-UNPJ 0,00 0,00 0,00 342,00 0,00 0,00 0,00 0,00 0,00 29/02/2024
375 730300 ANA GABRIELLE GUIMARAES REIS ESTAGIARIO ARAGUARI; ARAGUARI-PJ-05PJ 1.978,00 0,00 605,00 0,00 2.819,48 0,00 0,00 0,00 258,45 29/02/2024
376 1515200 ANA GABRIELLY SILVA ESTAGIARIO RIBEIRAO DAS NEVES; RIBEIRAO DAS NEVES-PJ-09PJ 0,00 0,00 0,00 270,00 0,00 0,00 0,00 0,00 0,00 29/02/2024
377 708000 ANA JULIA COELHO MENDONCA ELER ESTAGIARIO BELO HORIZONTE; ASSESSORIA DE COMUNICACAO INTEGRADA 1.978,00 0,00 605,00 0,00 0,00 0,00 0,00 0,00 0,00 29/02/2024
378 1488400 ANA JULIA DIXINI CARVALHO ESTAGIARIO TRES PONTAS; TRES PONTAS-PJ-03PJ 0,00 0,00 0,00 342,00 0,00 0,00 0,00 0,00 0,00 29/02/2024
379 733900 ANA JULIA JEUNON RODRIGUES FRANCA ESTAGIARIO MONTE AZUL; MONTE AZUL-PJ-UNPJ 1.978,00 0,00 605,00 0,00 0,00 0,00 0,00 0,00 0,00 29/02/2024
380 726200 ANA JULIA LACERDA DE FARIA ESTAGIARIO MONTALVANIA; MONTALVANIA-PJ-UNPJ 0,00 0,00 0,00 306,00 0,00 0,00 0,00 0,00 0,00 29/02/2024
381 1412300 ANA JULIA PEREIRA BELLEI GOMES ESTAGIARIO JUIZ DE FORA; JUIZ DE FORA-PJ-03PJ 0,00 0,00 0,00 342,00 0,00 0,00 0,00 0,00 0,00 29/02/2024
382 1483100 ANA JULIA RODRIGUES CAMPOS ESTAGIARIO ITAUNA; ITAUNA-PJ-05PJ 0,00 0,00 0,00 270,00 0,00 0,00 0,00 0,00 0,00 29/02/2024
383 1537300 ANA JULIA SOUSA DE JESUS ESTAGIARIO PAINS; ALFENAS-PJ-05PJ 0,00 0,00 0,00 306,00 0,00 0,00 0,00 0,00 0,00 29/02/2024
384 752300 ANA JUSSARA DA SILVA BIANCHETTI OFICIAL DO MP ALTO RIO DOCE - COMARCA; ALTO RIO DOCE-PJ-UNPJ 0,00 0,00 0,00 36,00 0,00 0,00 0,00 0,00 0,00 29/02/2024
385 382700 ANA KARENINA SALDANHA GONTIJO ANALISTA DO MP BELO HORIZONTE - COMARCA; ASSESS TECNICO-JUR JUNTO AS PROC. DE JUST 1.978,00 0,00 605,00 0,00 0,00 0,00 0,00 0,00 0,00 29/02/2024
386 620500 ANA KARINE DE ANDRADE OLIVEIRA ANALISTA DO MP RIBEIRÃO DAS NEVES - COMARCA; RIBEIRAO NEVES-SEC PJ EXECUCAO PENAL 1.978,00 0,00 605,00 0,00 0,00 0,00 0,00 0,00 0,00 29/02/2024
387 712200 ANA KAROLINA SANTOS LESSA ESTAGIARIO CONTAGEM; CONTAGEM-PJ-24PJ 1.978,00 0,00 605,00 0,00 0,00 0,00 0,00 0,00 0,00 29/02/2024
388 1520600 ANA KAROLYNA OLIVEIRA MORAIS ESTAGIARIO BELO HORIZONTE; BH-17PJ PATRIMONIO PUBLICO-GAB 121PJ 0,00 0,00 0,00 306,00 0,00 0,00 0,00 0,00 0,00 29/02/2024
389 1420700 ANA LAURA CARVALHO GENEROSO ESTAGIARIO BELO HORIZONTE; GABINETE DE PROCURADOR DE JUSTIÇA - SALA 1005
390 1675800 ANA LAURA DE FARIA LIMA ESTAGIARIO PARA DE MINAS; PARA DE MINAS-PJ-04PJ 0,00 0,00 0,00 342,00 0,00 0,00 0,00 0,00 0,00 29/02/2024
391 1417200 ANA LAURA FERREIRA DA SILVA ESTAGIARIO UBERABA; UBERABA-PJ-16PJ 0,00 0,00 0,00 342,00 0,00 0,00 0,00 0,00 0,00 29/02/2024
392 1457800 ANA LAURA GONCALVES DE MENEZES ESTAGIARIO UBERLANDIA; COORD REG DEF ORDEM ECON TRIB UBERLANDIA 0,00 0,00 0,00 342,00 0,00 0,00 0,00 0,00 0,00 29/02/2024
393 738400 ANA LAURA MARTINS ALVES ESTAGIARIO UNAI; UNAI-PJ-04PJ 1.978,00 0,00 892,88 0,00 0,00 0,00 0,00 0,00 0,00 29/02/2024
394 1562000 ANA LAURA MENDONCA SILVA DE ARAUJO ESTAGIARIO CONTAGEM; CONTAGEM-PJ-08PJ 0,00 0,00 0,00 306,00 0,00 0,00 0,00 0,00 0,00 29/02/2024
395 1634900 ANA LAURA SOARES DE OLIVEIRA ESTAGIARIO ITUIUTABA; ITUIUTABA-PJ-05PJ 0,00 0,00 0,00 342,00 0,00 0,00 0,00 0,00 0,00 29/02/2024
396 57400 ANA LEIA SALOMAO E RIBEIRO PROCURADOR DE JUSTICA BELO HORIZONTE - COMARCA; GABINETE DE PROCURADOR DE JUSTIÇA - SALA 512 1.978,00 0,00 1.623,43 0,00 13.552,72 0,00 0,00 0,00 776,46 29/02/2024
397 224300 ANA LETICIA MARTINS DE SOUZA PROMOT.ENTRANC.ESPECIAL CONTAGEM - COMARCA; CONTAGEM-PJ-13PJ 1.978,00 0,00 1.136,40 0,00 12.577,28 0,00 0,00 0,00 0,00 29/02/2024
398 1664500 ANA LICIA SALES LAFETA ESTAGIARIO CORACAO DE JESUS; CORACAO DE JESUS-PJ-UNPJ 0,00 0,00 0,00 342,00 0,00 0,00 0,00 0,00 0,00 29/02/2024
399 1391300 ANA LIVIA DO NASCIMENTO TORQUATO ESTAGIARIO GUAXUPE; GUAXUPE-PJ-01PJ 0,00 0,00 0,00 36,00 1.000,00 0,00 0,00 0,00 0,00 29/02/2024
400 462200 ANA LUCIA ANDRADE TOMICH OTTONI ANALISTA DO MP TEÓFILO OTONI - COMARCA; TEOFILO OTONI-PJ-07PJ 1.978,00 1.146,58 605,00 0,00 2.369,97 0,00 0,00 0,00 0,00 29/02/2024
401 504100 ANA LUCIA CATAO DE CARVALHO OFICIAL DO MP BELO HORIZONTE - COMARCA; DIR RELACOES INSTITUCIONAIS 1.978,00 0,00 605,00 0,00 6.138,45 0,00 0,00 0,00 0,00 29/02/2024
402 274700 ANA LUCIA DE ALENCAR BRAGATO OFICIAL DO MP UBERABA - COMARCA; UBERABA-PJ-07PJ 1.978,00 0,00 605,00 0,00 6.221,18 0,00 0,00 0,00 0,00 29/02/2024
403 509400 ANA LUCIA DORNELAS MALLOSTO ANALISTA DO MP JUIZ DE FORA - COMARCA; JUIZ DE FORA-PJ-14PJ 1.978,00 0,00 605,00 0,00 5.924,93 0,00 0,00 0,00 0,00 29/02/2024
404 114600 ANA LUCIA JUNQUEIRA MUZZI CAVALIERI PROMOT.ENTRANC.ESPECIAL JUIZ DE FORA - COMARCA; JUIZ DE FORA-PJ-04PJ 1.978,00 0,00 3.773,18 0,00 18.605,47 0,00 0,00 0,00 775,23 29/02/2024
405 302600 ANA LUCIA LOPES SANTOS OFICIAL DO MP BELO HORIZONTE - COMARCA; DIVISÃO DE FISCALIZAÇÃO DAS RELAÇÕES DE CONSU 1.978,00 0,00 605,00 0,00 5.701,87 0,00 1.771,66 0,00 0,00 29/02/2024
406 719600 ANA LUISA BORGES SOARES ESTAGIARIO BELO HORIZONTE; BH-21PJ TUTELA DAS FUNDACOES 0,00 0,00 0,00 342,00 0,00 0,00 0,00 0,00 0,00 29/02/2024
407 1409600 ANA LUISA COSTA DA SILVA ARAUJO ESTAGIARIO GOVERNADOR VALADARES; GOVERNADOR VALADARES-PJ-13PJ 0,00 0,00 0,00 198,00 0,00 0,00 0,00 0,00 0,00 29/02/2024
408 716700 ANA LUISA DE LANA COELHO ASSESSOR PROCURADOR JUSTICA BELO HORIZONTE - COMARCA; GABINETE DE PROCURADOR DE JUSTIÇA - SALA 612 1.978,00 0,00 605,00 0,00 0,00 0,00 0,00 0,00 0,00 29/02/2024
409 702000 ANA LUISA DE OLIVEIRA RIBEIRO ASSESSOR PROCURADOR JUSTICA BELO HORIZONTE - COMARCA; ASSESS TECNICO-JUR JUNTO AS PROC. DE JUST 0,00 0,00 0,00 180,00 0,00 0,00 0,00 0,00 0,00 29/02/2024
410 1698300 ANA LUISA HORSTT PRADO ESTAGIARIO CORONEL FABRICIANO; CORONEL FABRICIANO-PJ-01PJ 0,00 0,00 0,00 342,00 0,00 0,00 0,00 0,00 0,00 29/02/2024
411 493400 ANA LUISA NOGUEIRA MOREIRA ANALISTA DO MP BELO HORIZONTE - COMARCA; BH-19PJ SAUDE-SECRETARIA 130PJ 1.978,00 0,00 605,00 0,00 5.924,93 0,00 0,00 0,00 0,00 29/02/2024
412 389300 ANA LUISA REUTER LIMA ANALISTA DO MP BELO HORIZONTE - COMARCA; DIRETORIA DE SISTEMAS DE INFORMACAO 1.978,00 0,00 605,00 0,00 0,00 0,00 0,00 0,00 0,00 29/02/2024
413 1560300 ANA LUISA SIMAN VAZ ESTAGIARIO GOVERNADOR VALADARES; GOVERNADOR VALADARES-PJ-04PJ 0,00 0,00 0,00 252,00 0,00 0,00 0,00 0,00 0,00 29/02/2024
414 709000 ANA LUIZA ALVES DE CARVALHO ESTAGIARIO ARAGUARI; ARAGUARI-PJ-03PJ 0,00 0,00 0,00 342,00 0,00 0,00 0,00 0,00 0,00 29/02/2024
415 1422600 ANA LUIZA ALVES FERREIRA ESTAGIARIO BELO HORIZONTE; BH-23PJ INFRACIONAL-GAB 039PJ 0,00 0,00 0,00 162,00 1.233,33 0,00 0,00 0,00 0,00 29/02/2024
416 1580300 ANA LUIZA ANDRADE KOLASCO ESTAGIARIO BELO HORIZONTE; BH-13PJ JUIZO DE TOXICOS-COORD PJ 0,00 0,00 0,00 90,00 0,00 0,00 0,00 0,00 0,00 29/02/2024
417 1667100 ANA LUIZA CONSTANTINO REIS ESTAGIARIO TIMOTEO; TIMOTEO-PJ-04PJ 0,00 0,00 0,00 342,00 0,00 0,00 0,00 0,00 0,00 29/02/2024
418 441100 ANA LUIZA DA COSTA E CRUZ PROMOTOR 2A ENTRANCIA PEDRO LEOPOLDO - COMARCA; PEDRO LEOPOLDO-PJ-03PJ 1.978,00 0,00 1.244,63 0,00 17.922,61 0,00 0,00 0,00 547,64 29/02/2024
419 161000 ANA LUIZA DE ABREU MOREIRA PROCURADOR DE JUSTICA BELO HORIZONTE - COMARCA; GABINETE DE PROCURADOR DE JUSTIÇA - SALA 1014 1.978,00 0,00 3.382,14 0,00 22.004,26 0,00 0,00 0,00 672,35 29/02/2024
420 480600 ANA LUIZA FERNANDES FRAGA E GRECO COORDENADOR I BELO HORIZONTE - COMARCA; OUVIDORIA DO MPMG 1.978,00 0,00 605,00 0,00 5.533,64 0,00 0,00 0,00 0,00 29/02/2024
421 1653300 ANA LUIZA FOSCHETTI BARBOSA ESTAGIARIO FORMIGA; FORMIGA-PJ-01PJ 0,00 0,00 0,00 306,00 0,00 0,00 0,00 0,00 0,00 29/02/2024
422 726800 ANA LUIZA GOMES PEREIRA ASSESSOR ADMINISTRATIVO I BELO HORIZONTE - COMARCA; OUVIDORIA DO MPMG 1.978,00 0,00 605,00 0,00 0,00 0,00 0,00 0,00 0,00 29/02/2024
423 685400 ANA LUIZA HENRIQUES BERGER MACHADO PROMOTOR 2A ENTRANCIA ARAÇUAÍ - COMARCA; ARACUAI-PJ-01PJ 1.978,00 0,00 892,88 0,00 17.922,61 0,00 0,00 0,00 547,64 29/02/2024
424 733600 ANA LUIZA MACHADO RODRIGUES ASSESSOR PROMOTOR JUSTICA CARMO DA MATA - COMARCA; CARMO DA MATA-PJ-UNPJ 0,00 0,00 0,00 342,00 0,00 0,00 0,00 0,00 0,00 29/02/2024
425 517800 ANA LUIZA MAGALHAES CIRINO PIOTO DE MELO OFICIAL DO MP BELO HORIZONTE - COMARCA; DIVISAO DE MATERIAIS 1.978,00 2.293,16 605,00 0,00 0,00 0,00 0,00 0,00 0,00 29/02/2024
426 1675300 ANA LUIZA MARTINS BASTOS ESTAGIARIO BETIM; BETIM-PJ-01PJ 0,00 0,00 0,00 342,00 0,00 0,00 0,00 0,00 0,00 29/02/2024
427 1311400 ANA LUIZA MENDES VIANA ESTAGIARIO BELO HORIZONTE; BH-12PJ JUIZO CRIMINAL-GAB 086PJ 0,00 0,00 0,00 342,00 0,00 0,00 0,00 0,00 0,00 29/02/2024
428 1641800 ANA LUIZA PERILLO MOREIRA ESTAGIARIO JUIZ DE FORA; JUIZ DE FORA-PJ-17PJ 0,00 0,00 0,00 342,00 0,00 0,00 0,00 0,00 0,00 29/02/2024
429 1547500 ANA LUIZA REIS MARTINS ESTAGIARIO BELO HORIZONTE; BH-02PJ FAMILIA-GAB 019PJ 0,00 0,00 0,00 324,00 0,00 0,00 0,00 0,00 0,00 29/02/2024
430 1656400 ANA LUIZA SOARES BISPO ESTAGIARIO BELO HORIZONTE; BH-12PJ JUIZO CRIMINAL-GAB 105PJ 0,00 0,00 0,00 18,00 0,00 0,00 0,00 0,00 0,00 29/02/2024
431 1603300 ANA LUIZA VALERIA TORRES ESTAGIARIO BELO HORIZONTE; BH-25PJ DEFESA DA EDUCACAO-SECRETARIA 0,00 0,00 0,00 288,00 0,00 0,00 0,00 0,00 0,00 29/02/2024
432 738100 ANA LUIZA VIEIRA CAMARGOS ESTAGIARIO CONTAGEM; CONTAGEM-PJ-01PJ 1.978,00 0,00 1.174,85 0,00 0,00 0,00 0,00 0,00 0,00 29/02/2024
433 481400 ANA MARCIA CANDIDA FERREIRA OFICIAL DO MP BRUMADINHO - COMARCA; BRUMADINHO-PJ-02PJ 1.978,00 0,00 605,00 0,00 2.882,57 0,00 0,00 0,00 0,00 29/02/2024
434 754400 ANA MARIA ANDRADE LARA OFICIAL DO MP BOM SUCESSO - COMARCA; BOM SUCESSO-PJ-UNPJ 1.978,00 0,00 605,00 0,00 0,00 0,00 0,00 0,00 0,00 29/02/2024
435 114700 ANA MARIA CAMILO DA HORA E ROCHA PROMOT.ENTRANC.ESPECIAL MONTES CLAROS - COMARCA; MONTES CLAROS-PJ-05PJ 1.978,00 0,00 3.773,18 0,00 16.940,90 0,00 0,00 0,00 776,46 29/02/2024
436 1553700 ANA MARIA DA SILVA PRADO ESTAGIARIO MURIAE; MURIAE-PJ-02PJ 0,00 0,00 0,00 342,00 0,00 0,00 0,00 0,00 0,00 29/02/2024
437 643100 ANA MARIA LOPES MIRANDA ANALISTA DO MP BELO HORIZONTE - COMARCA; CAO-FUNDACOES 1.978,00 1.146,58 605,00 0,00 0,00 0,00 0,00 0,00 0,00 29/02/2024
438 1446600 ANA MARIA MENDES GOULART ESTAGIARIO BELO HORIZONTE; BH-23PJ INFRACIONAL-GAB 140PJ 0,00 0,00 0,00 324,00 0,00 0,00 0,00 0,00 0,00 29/02/2024
439 556400 ANA MARIA OLIVEIRA SOUZA OFICIAL DO MP ITAPECERICA - COMARCA; ITAPECERICA-PJ-UNPJ 1.978,00 0,00 605,00 0,00 0,00 0,00 0,00 0,00 0,00 29/02/2024
440 409600 ANA OLIVIA FARIA ROSENBURG ANALISTA DO MP BELO HORIZONTE - COMARCA; DIRETORIA DO COLEGIO E DA CAMARA DE PJ 1.978,00 0,00 605,00 0,00 5.241,84 0,00 0,00 0,00 0,00 29/02/2024
441 461500 ANA PAULA ALVES CARVALHO ANALISTA DO MP UBERLÂNDIA - COMARCA; UBERLANDIA-PJ-25PJ 1.978,00 1.146,58 605,00 0,00 5.870,43 0,00 0,00 0,00 538,12 29/02/2024
442 523200 ANA PAULA ALVES DA SILVA OFICIAL DO MP GOVERNADOR VALADARES - COMARCA; GOVERNADOR VALADARES-PJ-10PJ 1.978,00 4.586,32 605,00 0,00 6.057,50 0,00 0,00 0,00 0,00 29/02/2024
443 1681800 ANA PAULA ARANTES DOS SANTOS ESTAGIARIO ARACUAI; ARACUAI-PJ-01PJ 0,00 0,00 0,00 342,00 0,00 0,00 0,00 0,00 0,00 29/02/2024
444 1697500 ANA PAULA BADARO ARAUJO ESTAGIARIO BELO HORIZONTE; BH-09PJ AUDITORIA MILITAR-GAB 161PJ 0,00 0,00 0,00 288,00 0,00 0,00 0,00 0,00 0,00 29/02/2024
445 381200 ANA PAULA BARROS PEREIRA RIGHI ANALISTA DO MP BELO HORIZONTE - COMARCA; DIRETORIA DO COLEGIO E DA CAMARA DE PJ 1.978,00 1.146,58 605,00 0,00 5.338,75 0,00 0,00 0,00 0,00 29/02/2024
446 721100 ANA PAULA BARROSO SANTIAGO ESTAGIARIO NOVA SERRANA; NOVA SERRANA-PJ-02PJ 0,00 0,00 0,00 0,00 17.026,48 0,00 0,00 0,00 0,00 29/02/2024
447 696400 ANA PAULA CARVALHO SILVA ASSESSOR PROMOTOR JUSTICA PERDÕES - COMARCA; PERDOES-PJ-UNPJ 1.978,00 1.146,58 605,00 0,00 0,00 0,00 0,00 0,00 0,00 29/02/2024
448 700900 ANA PAULA CRAVO SALOME ASSESSOR ADMINISTRATIVO I BELO HORIZONTE - COMARCA; PROCURADOR-GERAL DE JUSTIÇA 1.978,00 0,00 605,00 0,00 0,00 0,00 0,00 0,00 0,00 29/02/2024
449 227200 ANA PAULA DA SILVA CAMPOLINA ANALISTA DO MP BELO HORIZONTE - COMARCA; DIRETORIA DE ORCAMENTO-DIOR/SPC 1.978,00 0,00 605,00 0,00 5.536,88 0,00 0,00 0,00 0,00 29/02/2024
450 1589300 ANA PAULA DE ALMEIDA VIEIRA SOUZA ESTAGIARIO IPATINGA; IPATINGA-PJ-06PJ 0,00 0,00 0,00 306,00 0,00 0,00 0,00 0,00 0,00 29/02/2024
451 278500 ANA PAULA DIAS CAPANEMA OFICIAL DO MP BELO HORIZONTE - COMARCA; DIRETORIA DE SEGURANCA 1.978,00 0,00 605,00 0,00 6.087,86 0,00 0,00 0,00 0,00 29/02/2024
452 1429200 ANA PAULA DO NASCIMENTO LAGES ESTAGIARIO BELO HORIZONTE; BH-17PJ PATRIMONIO PUBLICO-GAB 004PJ 0,00 0,00 0,00 324,00 0,00 0,00 0,00 0,00 0,00 29/02/2024
453 756100 ANA PAULA DOS SANTOS MUNIZ ESTAGIARIO FERROS; FERROS-PJ-UNPJ 1.978,00 0,00 605,00 0,00 0,00 0,00 0,00 0,00 0,00 29/02/2024
454 327300 ANA PAULA GARCIA MAXIMO OFICIAL DO MP UNAÍ - COMARCA; UNAI-PJ-01PJ 1.978,00 0,00 605,00 0,00 5.741,95 0,00 0,00 0,00 0,00 29/02/2024
455 738700 ANA PAULA GOMES ANTUNES ASSESSOR PROMOTOR JUSTICA CORAÇÃO DE JESUS - COMARCA; CORACAO DE JESUS-PJ-UNPJ 0,00 0,00 0,00 252,00 0,00 0,00 0,00 0,00 0,00 29/02/2024
456 270000 ANA PAULA GOULART CRUZ DE MAGALHAES ANALISTA DO MP BELO HORIZONTE - COMARCA; ASSESSORIA ESPECIAL DO PGJ 1.978,00 0,00 605,00 0,00 5.167,75 0,00 0,00 0,00 0,00 29/02/2024
457 262100 ANA PAULA KOMATSUZAKI ABIJAUDI ANALISTA DO MP BELO HORIZONTE - COMARCA; BH-17PJ PATRIMONIO PUBLICO-SECRETARIA 1.978,00 0,00 605,00 0,00 5.536,88 0,00 0,00 0,00 507,55 29/02/2024
458 671400 ANA PAULA LIMA DA SILVA PROMOTOR 2A ENTRANCIA VIÇOSA - COMARCA; VICOSA-PJ-04PJ 1.978,00 0,00 1.839,88 0,00 17.922,60 0,00 0,00 0,00 547,64 29/02/2024
459 222600 ANA PAULA LOURENCO DE PAULA PROMOTOR 2A ENTRANCIA ITUIUTABA - COMARCA; ITUIUTABA-PJ-03PJ 1.978,00 0,00 3.584,52 0,00 6.319,05 0,00 0,00 0,00 579,25 29/02/2024
460 1696300 ANA PAULA LOURENCO VIANA ESTAGIARIO BELO HORIZONTE; ASSESS TECN DA JUNTA RECURSAL DO PROCON EST 0,00 0,00 0,00 324,00 0,00 0,00 0,00 0,00 0,00 29/02/2024
461 1418000 ANA PAULA MACHADO DE OLIVEIRA ESTAGIARIO BELO HORIZONTE; BH-23PJ INFRACIONAL-GAB 142PJ 0,00 0,00 0,00 306,00 0,00 0,00 0,00 0,00 0,00 29/02/2024
462 106200 ANA PAULA MENDES RODRIGUES PROCURADOR DE JUSTICA BELO HORIZONTE - COMARCA; PROC JUSTICA DIR DIFUSOS E COLETIVOS-GAB007 1.978,00 0,00 1.488,14 0,00 8.470,45 0,00 0,00 0,00 776,46 29/02/2024
463 278900 ANA PAULA MOREIRA GURGEL ANALISTA DO MP BELO HORIZONTE - COMARCA; ASSESSORIA JURIDICO-ADMINISTRATIVA 1.978,00 0,00 605,00 0,00 4.766,12 0,00 0,00 0,00 0,00 29/02/2024
464 745500 ANA PAULA OLIVEIRA MENDES OFICIAL DO MP TARUMIRIM - COMARCA; TARUMIRIM-PJ-UNPJ 0,00 0,00 0,00 144,00 0,00 0,00 0,00 0,00 0,00 29/02/2024
465 1567000 ANA PAULA PEREIRA ESTAGIARIO VISCONDE DO RIO BRANCO; VISCONDE DO RIO BRANCO-PJ-02PJ 0,00 0,00 0,00 288,00 0,00 0,00 0,00 0,00 0,00 29/02/2024
466 484400 ANA PAULA RESENDE DORNELLAS DE AZEVEDO PROMOTOR SUBSTITUTO CONTAGEM - COMARCA; CONTAGEM-PJ-19PJ 1.978,00 2.293,16 3.405,30 0,00 17.026,47 0,00 0,00 0,00 520,25 29/02/2024
467 425701 ANA PAULA ROCHA ANALISTA DO MP BELO HORIZONTE - COMARCA; ASSESSORIA DE COMUNICACAO INTEGRADA 1.978,00 1.146,58 605,00 0,00 0,00 0,00 0,00 0,00 0,00 29/02/2024
468 1511700 ANA PAULA ROSA ESTAGIARIO PATROCINIO; PATROCINIO-PJ-03PJ 0,00 0,00 0,00 306,00 0,00 0,00 0,00 0,00 0,00 29/02/2024
469 395601 ANA PAULA SALGE OLIVEIRA ANALISTA DO MP UBERABA - COMARCA; UBERABA-PJ-15PJ 1.978,00 0,00 605,00 0,00 6.221,18 0,00 0,00 0,00 0,00 29/02/2024
470 473200 ANA PAULA SCOTTON BRASIL ANALISTA DO MP JUIZ DE FORA - COMARCA; JUIZ DE FORA-PJ-15PJ 1.978,00 0,00 605,00 0,00 5.924,93 0,00 0,00 0,00 0,00 29/02/2024
471 633600 ANA PAULA SILVA FERNANDES OFICIAL DO MP CATAGUASES - COMARCA; CATAGUASES-PJ-04PJ 1.978,00 0,00 605,00 0,00 0,00 0,00 0,00 0,00 0,00 29/02/2024
472 722100 ANA PAULA TAZINAFFO TAVARES ESTAGIARIO UBERABA; UBERABA-PJ-07PJ 1.978,00 0,00 605,00 0,00 2.819,48 0,00 0,00 0,00 258,45 29/02/2024
473 1659700 ANA PAULA TEIXEIRA ESTAGIARIO COROMANDEL; COROMANDEL-PJ-02PJ 0,00 0,00 0,00 324,00 0,00 0,00 0,00 0,00 0,00 29/02/2024
474 470900 ANA PAULA VALADARES ANALISTA DO MP PITANGUI - COMARCA; PITANGUI-PJ-01PJ 1.978,00 0,00 605,00 0,00 5.924,93 0,00 0,00 0,00 543,12 29/02/2024
475 447000 ANA PAULA VALENTIM DE ARAUJO ANALISTA DO MP BELO HORIZONTE - COMARCA; PROC JUST ESP ACOES COMP ORIG CRIMINAL-ASSESS 1.978,00 3.439,74 605,00 0,00 0,00 0,00 0,00 0,00 0,00 29/02/2024
476 604200 ANA PAULA VIANA E SILVA OFICIAL DO MP BELO HORIZONTE - COMARCA; BH-17PJ PATRIMONIO PUBLICO-SECRETARIA 1.978,00 0,00 605,00 0,00 0,00 0,00 0,00 0,00 0,00 29/02/2024
477 505400 ANA PAULA VIEIRA SOUTO OFICIAL DO MP ALMENARA - COMARCA; ALMENARA-PJ-01PJ 1.978,00 0,00 605,00 0,00 0,00 0,00 0,00 0,00 0,00 29/02/2024
478 280200 ANA RACHEL BRANDAO LADEIRA ROLAND ANALISTA DO MP BELO HORIZONTE - COMARCA; SUPERINTENDENCIA GESTÃO DE PESSOAS 1.978,00 0,00 605,00 0,00 0,00 0,00 0,00 0,00 0,00 29/02/2024
479 601200 ANA REGINA RIBEIRO ANALISTA DO MP BELO HORIZONTE - COMARCA; DIV FISCAL ADM CONT TERCEIRIZACAO 1.978,00 0,00 605,00 0,00 5.530,86 0,00 0,00 0,00 0,00 29/02/2024
480 384700 ANA RODRIGUES PEREIRA MARRA ANALISTA DO MP BELO HORIZONTE - COMARCA; CENT ESTAD COOPERACAO TECNICO-JURIDICA 1.978,00 840,83 605,00 0,00 5.776,81 0,00 0,00 0,00 0,00 29/02/2024
481 232700 ANA SILVIA SEMBLANO NAKAMURA OFICIAL DO MP BELO HORIZONTE - COMARCA; CENT DE APOIO TEC-SETOR DEF,IDOSO E INFANC 1.978,00 0,00 605,00 0,00 2.556,20 0,00 0,00 0,00 234,32 29/02/2024
482 1635400 ANA SOFIA HORTA OLIVEIRA MARTINS DE SOUSA ESTAGIARIO BELO HORIZONTE; DIR RELACOES INSTITUCIONAIS 0,00 0,00 0,00 216,00 0,00 0,00 0,00 0,00 0,00 29/02/2024
483 1417800 ANA TARSILA MAIA CORTES ESTAGIARIO BELO HORIZONTE; BH-08PJ JUIZADO ESPECIAL-GAB 070PJ 0,00 0,00 0,00 342,00 0,00 0,00 0,00 0,00 0,00 29/02/2024
484 1437900 ANA TEREZA RIBEIRO ALFENAS ESTAGIARIO UBA; UBA-PJ-01PJ 0,00 0,00 0,00 342,00 0,00 0,00 0,00 0,00 0,00 29/02/2024
485 530300 ANA TEREZA RIBEIRO SALLES GIACOMINI PROMOTOR 2A ENTRANCIA BELO HORIZONTE - COMARCA; CENTRO ESTADUAL DE APOIO AS VITIMAS 1.978,00 1.146,58 3.584,52 0,00 17.922,61 0,00 0,00 0,00 547,64 29/02/2024
486 701200 ANA VICTORIA ALVES ROCHA QUEIROZ ESTAGIARIO LEOPOLDINA; LEOPOLDINA-PJ-02PJ 0,00 0,00 0,00 342,00 0,00 0,00 0,00 0,00 0,00 29/02/2024
487 1642900 ANA VIRGINIA SANTOS DEMUNER ESTAGIARIO OLIVEIRA; OLIVEIRA-PJ-02PJ 0,00 0,00 0,00 342,00 0,00 0,00 0,00 0,00 0,00 29/02/2024
488 1639800 ANA VITORIA BORGES DE CARVALHO ESTAGIARIO UBERLANDIA; UBERLANDIA-PJ-15PJ 0,00 0,00 0,00 306,00 0,00 0,00 0,00 0,00 0,00 29/02/2024
489 602100 ANACLETO FRANCISCO MARCIER PIMENTA OFICIAL DO MP SÃO JOÃO DEL REI - COMARCA; SAO JOAO DEL REI-PJ-03PJ 1.978,00 1.146,58 605,00 0,00 0,00 0,00 0,00 0,00 0,00 29/02/2024
490 310400 ANADEJE DO CARMO DINIZ ARAUJO OFICIAL DO MP BELO HORIZONTE - COMARCA; DIRETORIA DE PESSOAL ADMINISTRATIVO - DPAD 1.978,00 0,00 605,00 0,00 5.776,81 0,00 0,00 0,00 0,00 29/02/2024
491 337000 ANAILDES MARIA MENDES OFICIAL DO MP JANAÚBA - COMARCA; JANAUBA-PJ-02PJ 1.978,00 1.146,58 605,00 0,00 5.776,81 0,00 0,00 0,00 0,00 29/02/2024
492 750200 ANALU BATISTA TORQUATO ARAUJO ASSESSOR DE CAO BELO HORIZONTE - COMARCA; CAO-ORDEM ECONOMICA E TRIBUTARIA 0,00 0,00 0,00 108,00 0,00 0,00 0,00 0,00 0,00 29/02/2024
493 1619700 ANALUZ CRISTINA GONCALVES NASCIMENTO ESTAGIARIO GUARANESIA; GUARANESIA-PJ-UNPJ 0,00 0,00 0,00 342,00 0,00 0,00 0,00 0,00 0,00 29/02/2024
494 1631100 ANANDA COUTO DE OLIVEIRA ESTAGIARIO BELO HORIZONTE; PROC JUST ATUACAO TRIBUNAIS SUPERIORES-GAB003 0,00 0,00 0,00 342,00 0,00 0,00 0,00 0,00 0,00 29/02/2024
495 1631300 ANANDA MITCHI ARAUJO GODINHO ESTAGIARIO BELO HORIZONTE; COORD DE INCLUSAO E MOBILIZACAO SOCIAIS 0,00 0,00 0,00 144,00 0,00 0,00 0,00 0,00 0,00 29/02/2024
496 1653800 ANASTACIA CRISTINA RODRIGUES ESTAGIARIO PASSOS; PASSOS-PJ-05PJ
497 377400 ANDEIRSON DA MATTA BARBOSA ANALISTA DO MP POUSO ALEGRE - COMARCA; POUSO ALEGRE-PJ-01PJ 1.978,00 1.146,58 605,00 0,00 3.851,21 0,00 0,00 0,00 0,00 29/02/2024
498 317400 ANDERSON DA SILVA BICALHO OFICIAL DO MP CONTAGEM - COMARCA; CONTAGEM-PJ-SECRETARIA 1.978,00 0,00 605,00 0,00 0,00 0,00 0,00 0,00 0,00 29/02/2024
499 506900 ANDERSON DE SOUZA DAMIANI ANALISTA DO MP BELO HORIZONTE - COMARCA; DIRETORIA DE PAGAMENTO DE PESSOAL-DPAG 1.978,00 0,00 605,00 0,00 5.476,79 0,00 0,00 0,00 0,00 29/02/2024
500 410000 ANDERSON DE SOUZA NETO ASSESSOR ADMINISTRATIVO II BELO HORIZONTE - COMARCA; DIRETORIA DE ADMINISTRACAO FINANCEIRA 1.978,00 0,00 605,00 0,00 1.501,34 0,00 0,00 0,00 0,00 29/02/2024
501 1584400 ANDERSON FELIPPE FERREIRA ESTAGIARIO BELO HORIZONTE; OUVIDORIA DO MPMG 0,00 0,00 0,00 324,00 0,00 0,00 0,00 0,00 0,00 29/02/2024
502 181900 ANDERSON FLAVIO DE OLIVEIRA OFICIAL DO MP ITAGUARA - COMARCA; ITAGUARA-PJ-SECRETARIA 1.978,00 0,00 605,00 0,00 0,00 0,00 0,00 0,00 0,00 29/02/2024
503 333200 ANDERSON JOSE DE FREITAS OFICIAL DO MP IPATINGA - COMARCA; IPATINGA-PJ-04PJ 1.978,00 1.146,58 605,00 0,00 5.701,87 0,00 1.771,66 0,00 0,00 29/02/2024
504 1555400 ANDERSON LUCAS DE ANDRADE SILVA ESTAGIARIO PRADOS; PRADOS-PJ-UNPJ 0,00 0,00 0,00 342,00 0,00 0,00 0,00 0,00 0,00 29/02/2024
505 699400 ANDERSON LUIZ CABRAL ASSESSOR PROMOTOR JUSTICA ALÉM PARAÍBA - COMARCA; ALEM PARAIBA-PJ-03PJ 1.978,00 0,00 605,00 0,00 0,00 0,00 0,00 0,00 0,00 29/02/2024
506 462100 ANDERSON LUIZ GUIMARAES CARDOSO ANALISTA DO MP BARBACENA - COMARCA; BARBACENA-PJ-02PJ 1.978,00 0,00 605,00 0,00 6.228,23 0,00 0,00 0,00 0,00 29/02/2024
507 429700 ANDERSON MELO DE SOUZA OFICIAL DO MP BELO HORIZONTE - COMARCA; DIRET DE ESTAGIOS E CONVENIOS ACADEMICOS 1.978,00 0,00 605,00 0,00 5.913,70 0,00 0,00 0,00 3.647,56 29/02/2024
508 545600 ANDERSON MENDES PROCOPIO FERREIRA ANALISTA DO MP BELO HORIZONTE - COMARCA; BH-12PJ JUIZO CRIMINAL-GAB 089PJ 1.978,00 0,00 605,00 0,00 5.924,93 0,00 0,00 0,00 0,00 29/02/2024
509 519900 ANDERSON MOREIRA DOEHLER ANALISTA DO MP TEÓFILO OTONI - COMARCA; COORD REG SAUDE MACRORREGIAO SANIT NORDESTE 1.978,00 0,00 605,00 0,00 0,00 0,00 0,00 0,00 0,00 29/02/2024
510 103000 ANDERSON TADEU DE DEUS ASSESSOR ADMINISTRATIVO II BELO HORIZONTE - COMARCA; BH-26 CRIME CONT CRIAN ADOL-SECRETARIA 1.978,00 0,00 605,00 0,00 10.449,34 0,00 0,00 0,00 544,99 29/02/2024
511 652500 ANDERSON TADEU LOPES INVESTIGADOR DE POLICIA 2 CONTAGEM - COMARCA; COORD REG DEF ORDEM ECON TRIB CONTAGEM 1.978,00 0,00 0,00 0,00 0,00 0,00 0,00 0,00 0,00 29/02/2024
512 309200 ANDITYAS SOARES DE MOURA COSTA MATOS ANALISTA DO MP BELO HORIZONTE - COMARCA; GABINETE DE PROCURADOR DE JUSTIÇA - SALA 909 1.978,00 0,00 605,00 0,00 0,00 0,00 0,00 0,00 0,00 29/02/2024
513 1471100 ANDRE BAMBIRRA DE PAULA REIS ESTAGIARIO BELO HORIZONTE; GABINETE DE PROCURADOR DE JUSTIÇA - SALA 612 0,00 0,00 0,00 306,00 0,00 0,00 0,00 0,00 0,00 29/02/2024
514 519200 ANDRE BORJA LANA ANALISTA DO MP BELO HORIZONTE - COMARCA; DIR CONTEUDO JORNALISTICO 1.978,00 1.146,58 605,00 0,00 0,00 0,00 0,00 0,00 0,00 29/02/2024
515 486000 ANDRE CARDOSO CAVALCANTI PROMOTOR 2A ENTRANCIA ITAJUBA - COMARCA; ITAJUBA-PJ-02PJ 1.978,00 2.293,16 3.584,52 0,00 17.922,61 0,00 0,00 0,00 547,64 29/02/2024
516 102400 ANDRE DE OLIVEIRA ANDRADE PROMOT.ENTRANC.ESPECIAL BELO HORIZONTE - COMARCA; BH-02PJ FAMILIA-GAB 030PJ 1.978,00 0,00 3.773,18 0,00 25.411,36 0,00 0,00 0,00 776,46 29/02/2024
517 656000 ANDRE DE OLIVEIRA SOUSA INVESTIGADOR DE POLICIA 2 BELO HORIZONTE - COMARCA; GAECO - SETOR POLICIAL CIVIL 1.978,00 0,00 0,00 0,00 0,00 0,00 0,00 0,00 0,00 29/02/2024
518 79200 ANDRE ESTEVAO UBALDINO PEREIRA PROCURADOR DE JUSTICA BELO HORIZONTE - COMARCA; GABINETE DE PROCURADOR DE JUSTIÇA - SALA 501 1.978,00 0,00 3.971,77 0,00 25.411,36 0,00 0,00 0,00 776,46 29/02/2024
519 637200 ANDRE FERNANDES DA CUNHA OFICIAL DO MP MORADA NOVA DE MINAS - COMARCA; MORADA NOVA DE MINAS-PJ-UNPJ 1.978,00 0,00 605,00 0,00 0,00 0,00 0,00 0,00 0,00 29/02/2024
520 162800 ANDRE FERNANDO COLUCCO PROMOTOR 2A ENTRANCIA CASSIA - COMARCA; CASSIA-PJ-02PJ 1.978,00 0,00 3.584,52 0,00 19.888,25 0,00 0,00 0,00 607,70 29/02/2024
521 651500 ANDRE GONCALVES MARANHAO OFICIAL DO MP ANDRADAS - COMARCA; ANDRADAS-PJ-02PJ 1.978,00 0,00 605,00 0,00 6.101,88 0,00 0,00 0,00 559,34 29/02/2024
522 749600 ANDRE LAUREANO SILVA 3O. SARGENTO BELO HORIZONTE - COMARCA; CAO-ORDEM ECONOMICA E TRIBUTARIA 0,00 0,00 0,00 72,00 0,00 0,00 0,00 0,00 0,00 29/02/2024
523 439200 ANDRE LEITE DE ALMEIDA PROMOT.ENTRANC.ESPECIAL VESPASIANO - COMARCA; VESPASIANO-PJ-03PJ 1.978,00 0,00 1.785,77 0,00 18.865,91 0,00 0,00 0,00 576,46 29/02/2024
524 1559100 ANDRE LUCAS GOMES DE BRITO ESTAGIARIO UBERABA; UBERABA-PJ-05PJ 0,00 0,00 0,00 342,00 0,00 0,00 0,00 0,00 0,00 29/02/2024
525 166900 ANDRE LUIS ALVES DE MELO PROMOTOR 2A ENTRANCIA ARAGUARI - COMARCA; ARAGUARI-PJ-01PJ 1.978,00 0,00 3.584,52 0,00 19.888,25 0,00 0,00 0,00 607,70 29/02/2024
526 85000 ANDRE LUIS GARCIA DE PINHO PROMOT.ENTRANC.ESPECIAL BELO HORIZONTE - COMARCA; SUPER DE GESTAO DE PESSOAS-EM DISPONIBILIDADE 0,00 1.146,58 3.220,28 0,00 0,00 0,00 0,00 0,00 0,00 29/02/2024
527 521900 ANDRE LUIS GOMES SILVA ANALISTA DO MP FORMIGA - COMARCA; FORMIGA-PJ-02PJ 1.978,00 2.866,45 605,00 0,00 5.924,93 0,00 0,00 0,00 0,00 29/02/2024
528 340800 ANDRE LUIS MACHADO ARANTES PROMOTOR 2A ENTRANCIA PARÁ DE MINAS - COMARCA; PARA DE MINAS-PJ-05PJ 1.978,00 0,00 3.773,18 0,00 15.092,73 0,00 0,00 0,00 2.463,05 29/02/2024
529 304300 ANDRE LUIZ AVELAR ANALISTA DO MP BELO HORIZONTE - COMARCA; DIRETORIA DE REDES E BANCOS DE DADOS 1.978,00 0,00 605,00 0,00 0,00 0,00 0,00 0,00 0,00 29/02/2024
530 1621700 ANDRE LUIZ FERNANDES ESTAGIARIO VARGINHA; VARGINHA-PJ-06PJ 0,00 0,00 0,00 342,00 0,00 0,00 0,00 0,00 0,00 29/02/2024
531 666100 ANDRE LUIZ FERREIRA VALADARES PROMOTOR 2A ENTRANCIA VARZEA DA PALMA - COMARCA; VARZEA DA PALMA-PJ-02PJ 1.978,00 0,00 2.026,43 0,00 17.922,60 0,00 0,00 0,00 547,64 29/02/2024
532 530200 ANDRE LUIZ NOLLI MERRIGHI PROMOT.ENTRANC.ESPECIAL SETE LAGOAS - COMARCA; SETE LAGOAS-PJ-03PJ 1.978,00 0,00 3.773,18 0,00 18.865,91 0,00 0,00 0,00 576,46 29/02/2024
533 718800 ANDRE OBERG LEMOS PROMOTOR SUBSTITUTO GRAO MOGOL - COMARCA; GRAO MOGOL-PJ-UNPJ 0,00 0,00 0,00 306,00 0,00 0,00 0,00 0,00 0,00 29/02/2024
534 397400 ANDRE PATARO MYRRHA DE PAULA E SILVA ANALISTA DO MP BELO HORIZONTE - COMARCA; ASSESSORIA JURIDICO-ADMINISTRATIVA 1.978,00 1.146,58 605,00 0,00 5.338,75 0,00 0,00 0,00 0,00 29/02/2024
535 533200 ANDRE PEREIRA MAFIA PROMOTOR 2A ENTRANCIA ALÉM PARAÍBA - COMARCA; ALEM PARAIBA-PJ-01PJ 1.978,00 0,00 947,00 0,00 14.338,08 0,00 0,00 0,00 547,64 29/02/2024
536 441200 ANDRE SALLES DIAS PINTO PROMOTOR 2A ENTRANCIA IGARAPÉ - COMARCA; IGARAPE-PJ-01PJ 1.978,00 1.146,58 3.584,52 0,00 17.922,61 0,00 0,00 0,00 547,64 29/02/2024
537 237800 ANDRE SILVARES VASCONCELOS PROMOTOR 2A ENTRANCIA PIUMHI - COMARCA; PIUMHI-PJ-02PJ 1.978,00 1.146,58 3.584,52 0,00 18.957,16 0,00 0,00 0,00 579,25 29/02/2024
538 231800 ANDRE SPERLING PRADO PROMOT.ENTRANC.ESPECIAL BELO HORIZONTE - COMARCA; BH-19PJ SAUDE-GAB 047PJ 1.978,00 0,00 3.773,18 0,00 21.043,91 0,00 0,00 0,00 643,01 29/02/2024
539 666300 ANDRE TANURE DOMINGUES FIGUEIREDO PROMOTOR 2A ENTRANCIA PONTE NOVA - COMARCA; PONTE NOVA-PJ-05PJ 1.978,00 0,00 3.584,52 0,00 17.922,60 0,00 0,00 0,00 547,64 29/02/2024
540 650100 ANDRE THOME VARGAS OFICIAL DO MP LEOPOLDINA - COMARCA; LEOPOLDINA-PJ-04PJ 1.978,00 0,00 605,00 0,00 1.919,30 0,00 0,00 0,00 0,00 29/02/2024
541 231600 ANDRE TUMA DELBIM FERREIRA PROMOT.ENTRANC.ESPECIAL UBERABA - COMARCA; UBERABA-PJ-10PJ 1.978,00 0,00 1.136,40 0,00 19.954,91 0,00 0,00 0,00 609,73 29/02/2024
542 671500 ANDRE VALDERRAMAS FRANCO PROMOTOR 2A ENTRANCIA MONTE CARMELO - COMARCA; MONTE CARMELO-PJ-02PJ 1.978,00 0,00 892,88 0,00 17.922,60 0,00 0,00 0,00 547,64 29/02/2024
543 548500 ANDRE VINICIUS CARVALHO MEIRA ANALISTA DO MP JUIZ DE FORA - COMARCA; JUIZ DE FORA-PJ-24PJ 1.978,00 0,00 605,00 0,00 5.924,93 0,00 0,00 0,00 0,00 29/02/2024
544 297200 ANDRE WILLE ROSARIO ANALISTA DO MP BELO HORIZONTE - COMARCA; ASSESSORIA ESPECIAL DO PGJ 1.978,00 0,00 605,00 0,00 5.998,28 0,00 0,00 0,00 0,00 29/02/2024
545 224500 ANDREA BASILIO GONCALVES GOLLOP PROMOT.ENTRANC.ESPECIAL BELO HORIZONTE - COMARCA; BH-18PJ VIOLENCIA DOMESTICA-GAB 186PJ 1.978,00 0,00 3.773,18 0,00 0,00 0,00 0,00 0,00 0,00 29/02/2024
546 666400 ANDREA CLEMENTE BARBOSA DE SOUZA PROMOTOR SUBSTITUTO ITAÚNA - COMARCA; ITAUNA-PJ-05PJ 1.978,00 1.146,58 2.868,05 0,00 12.486,08 0,00 0,00 0,00 520,25 29/02/2024
547 423600 ANDREA COSTA GUALBERTO ALVES ANALISTA DO MP GOVERNADOR VALADARES - COMARCA; COORD REG PJ DEF EDU DIR CRIANCA ADOL RIODOCE 1.978,00 0,00 605,00 0,00 6.020,78 0,00 0,00 0,00 551,90 29/02/2024
548 230600 ANDREA CRISTINA CALDAS SANTIAGO PROMOT.ENTRANC.ESPECIAL CONSELHEIRO LAFAIETE - COMARCA; CONSELHEIRO LAFAIETE-PJ-07PJ 1.978,00 0,00 2.029,28 0,00 0,00 0,00 0,00 0,00 0,00 29/02/2024
549 467300 ANDREA DE CASSIA PENNA ALVERNAZ ANALISTA DO MP PONTE NOVA - COMARCA; PONTE NOVA-PJ-01PJ 1.978,00 0,00 605,00 0,00 5.924,93 0,00 0,00 0,00 0,00 29/02/2024
550 308000 ANDREA DE CASSIA SANTOS OLIVEIRA ANALISTA DO MP BELO HORIZONTE - COMARCA; COORD DE GABINETE DO PGJ 1.978,00 0,00 605,00 0,00 5.998,28 0,00 0,00 0,00 0,00 29/02/2024
551 106300 ANDREA DE FIGUEIREDO SOARES PROCURADOR DE JUSTICA BELO HORIZONTE - COMARCA; GABINETE DE PROCURADOR DE JUSTIÇA - SALA 709 1.978,00 0,00 3.815,05 0,00 25.411,36 0,00 0,00 0,00 776,46 29/02/2024
552 349500 ANDREA DE OLIVEIRA LOIOLA REGIS OFICIAL DO MP IGUATAMA - COMARCA; IGUATAMA-PJ-UNPJ 1.978,00 0,00 605,00 0,00 0,00 0,00 0,00 0,00 0,00 29/02/2024
553 287900 ANDREA FERNANDES PENA MARTINS OFICIAL DO MP MONTES CLAROS - COMARCA; MONTES CLAROS-PJ-09PJ 1.978,00 0,00 605,00 0,00 6.221,18 0,00 0,00 0,00 0,00 29/02/2024
554 300800 ANDREA FERREIRA ANALISTA DO MP LAVRAS - COMARCA; LAVRAS-PJ-04PJ 1.978,00 0,00 605,00 0,00 5.769,84 0,00 0,00 0,00 0,00 29/02/2024
555 395100 ANDREA LANNA MENDES NOVAIS ANALISTA DO MP BELO HORIZONTE - COMARCA; PROMOT ESTADUAL DE DEF PATRI CULT E TUR DE MG 1.978,00 0,00 605,00 0,00 0,00 0,00 0,00 0,00 0,00 29/02/2024
556 67300 ANDREA LEAO MAGALHAES ROQUE ASSESSOR ADMINISTRATIVO IV BELO HORIZONTE - COMARCA; GRUPO ATUACAO ESP COMB CRIMES CIBER 1.978,00 0,00 605,00 0,00 0,00 0,00 0,00 0,00 0,00 29/02/2024
557 335700 ANDREA LOPES PEREIRA ANALISTA DO MP GOVERNADOR VALADARES - COMARCA; COORD REG DO MA DA BACIA DO RIO DOCE 1.978,00 0,00 605,00 0,00 0,00 0,00 0,00 0,00 0,00 29/02/2024
558 224700 ANDREA MARIA NESSRALLA BAHURY PROMOT.ENTRANC.ESPECIAL BELO HORIZONTE - COMARCA; BH-12PJ JUIZO CRIMINAL-GAB 089PJ 1.978,00 0,00 3.773,18 0,00 8.470,45 0,00 0,00 0,00 776,46 29/02/2024
559 167000 ANDREA MISMOTTO CARELLI PROMOT.ENTRANC.ESPECIAL BELO HORIZONTE - COMARCA; BH-17PJ PATRIMONIO PUBLICO-GAB 004PJ 1.978,00 0,00 1.244,63 0,00 0,00 0,00 0,00 0,00 0,00 29/02/2024
560 389200 ANDREA TUPINI DOS SANTOS TRISTAO DA ROCHA GESTOR ADM. SECRETARIA IV BELO HORIZONTE - COMARCA; BH-13ª PJ JUÍZO DE TÓXICOS-SECRETARIA 1.978,00 0,00 605,00 0,00 4.785,71 0,00 0,00 0,00 0,00 29/02/2024
561 419000 ANDREIA BARBOSA DE ALMEIDA ANALISTA DO MP BELO HORIZONTE - COMARCA; CENT ESTAD COOPERACAO TECNICO-JURIDICA 1.978,00 0,00 605,00 0,00 5.656,80 0,00 0,00 0,00 0,00 29/02/2024
562 281501 ANDREIA CARLA COSTA ANALISTA DO MP UBÁ - COMARCA; UBA-PJ-02PJ 1.978,00 0,00 605,00 0,00 0,00 0,00 0,00 0,00 0,00 29/02/2024
563 717800 ANDREIA CRISTINA PEREIRA ALVES ESTAGIARIO GUAXUPE; GUAXUPE-PJ-02PJ 0,00 0,00 0,00 270,00 0,00 0,00 0,00 0,00 0,00 29/02/2024
564 477100 ANDREIA DE ALMEIDA RIBEIRO MELO OFICIAL DO MP CONTAGEM - COMARCA; CONTAGEM-PJ-SECRETARIA 1.978,00 0,00 605,00 0,00 6.211,29 0,00 0,00 0,00 0,00 29/02/2024
565 619000 ANDREIA FERREIRA NORONHA COORDENADOR II BELO HORIZONTE - COMARCA; DIRETORIA DE SERVICO CRIMINAL 1.978,00 0,00 605,00 0,00 5.420,89 0,00 0,00 0,00 0,00 29/02/2024
566 747000 ANDREIA FERREIRA TIAGO OFICIAL DO MP SÃO JOÃO DA PONTE - COMARCA; SAO JOAO DA PONTE-PJ-UNPJ 0,00 0,00 0,00 144,00 0,00 0,00 0,00 0,00 0,00 29/02/2024
567 424000 ANDREIA LUCIA COUTO ANALISTA DO MP BELO HORIZONTE - COMARCA; BH-18PJ DIREITOS HUMANOS-SECRETARIA 1.978,00 0,00 605,00 0,00 0,00 0,00 0,00 0,00 0,00 29/02/2024
568 370100 ANDREIA MARIA SILVA PINTO OFICIAL DO MP CORONEL FABRICIANO - COMARCA; CORONEL FABRICIANO-PJ-SECRETARIA 1.978,00 1.146,58 605,00 0,00 0,00 0,00 0,00 0,00 0,00 29/02/2024
569 382100 ANDREIA NATALI PEREIRA DE OLIVEIRA OFICIAL DO MP PRADOS - COMARCA; PRADOS-PJ-UNPJ 1.978,00 0,00 605,00 0,00 0,00 0,00 0,00 0,00 0,00 29/02/2024
570 198701 ANDREIA NUNES DURAES PROMOTOR 2A ENTRANCIA BOCAIÚVA - COMARCA; BOCAIUVA-PJ-02PJ 1.978,00 0,00 0,00 0,00 10.753,56 0,00 0,00 0,00 547,64 29/02/2024
571 275200 ANDREIA RIBEIRO FREITAS OFICIAL DO MP VIÇOSA - COMARCA; VICOSA-PJ-04PJ 1.978,00 0,00 605,00 0,00 6.087,86 0,00 0,00 0,00 558,05 29/02/2024
572 352200 ANDREIA XAVIER PEREIRA OFICIAL DO MP DIVINÓPOLIS - COMARCA; DIVINOPOLIS-PJ-08PJ 1.978,00 1.719,87 605,00 0,00 5.776,81 0,00 0,00 0,00 529,54 29/02/2024
573 638500 ANDRESA ALVES FEITOSA CASAGRANDE ANALISTA DO MP PASSOS - COMARCA; COORD REG DO MA DA BACIA DO RIO GRANDE 1.978,00 0,00 605,00 0,00 0,00 0,00 0,00 0,00 0,00 29/02/2024
574 1566800 ANDRESON FERREIRA DE SOUZA ESTAGIARIO UBA; UBA-PJ-01PJ 0,00 0,00 0,00 342,00 0,00 0,00 0,00 0,00 0,00 29/02/2024
575 747900 ANDRESSA DA SILVA COUTO ESTAGIARIO PERDIZES; PERDIZES-PJ-UNPJ 1.978,00 0,00 0,00 0,00 0,00 0,00 0,00 0,00 0,00 29/02/2024
576 1631900 ANDRESSA DANIELY PEREIRA ESTAGIARIO TRES CORACOES; TRES CORACOES-PJ-03PJ 0,00 0,00 0,00 306,00 0,00 0,00 0,00 0,00 0,00 29/02/2024
577 210000 ANDRESSA DE OLIVEIRA LANCHOTTI PROMOT.ENTRANC.ESPECIAL BELO HORIZONTE - COMARCA; BH-12PJ JUIZO CRIMINAL-GAB 104PJ 1.978,00 0,00 3.773,18 0,00 19.900,46 0,00 0,00 0,00 608,07 29/02/2024
578 383700 ANDRESSA EDUARDO SOUZA ANALISTA DO MP OURO BRANCO - COMARCA; OURO BRANCO-PJ-SECRETARIA 1.978,00 1.146,58 605,00 0,00 0,00 0,00 0,00 0,00 0,00 29/02/2024
579 485500 ANDRESSA ISABELLE FERREIRA BARRETO PROMOTOR 2A ENTRANCIA CONCEICAO DAS ALAGOAS - COMARCA; CONCEICAO DAS ALAGOAS-PJ-02PJ 1.978,00 0,00 3.584,52 0,00 17.922,61 0,00 0,00 0,00 547,64 29/02/2024
580 1617700 ANDRESSA LAIS ALMEIDA ALECRIM ESTAGIARIO CAPELINHA; CAPELINHA-PJ-02PJ 0,00 0,00 0,00 342,00 0,00 0,00 0,00 0,00 0,00 29/02/2024
581 678400 ANDRESSA LUIZA SILVA LOPES ASSESSOR PROMOTOR JUSTICA CARMO DO PARANAÍBA - COMARCA; CARMO DO PARANAIBA-PJ-02PJ 1.978,00 0,00 605,00 0,00 5.286,53 0,00 0,00 0,00 484,60 29/02/2024
582 426200 ANDRESSA MENDES CASAL OFICIAL DO MP BELO HORIZONTE - COMARCA; DIR ESTRUTURA E PROCESSOS ORGANIZACIONAIS 1.978,00 1.146,58 605,00 0,00 0,00 0,00 0,00 0,00 1.051,65 29/02/2024
583 749500 ANDRESSA NUNES RAMOS ESTAGIARIO BELO HORIZONTE; PROCURADORIA DE JUSTIÇA CRIMINAL 1.978,00 0,00 605,00 0,00 0,00 0,00 0,00 0,00 0,00 29/02/2024
584 390100 ANDRESSA RIBEIRO PUCCI OFICIAL DO MP UBERABA - COMARCA; UBERABA-PJ-14PJ 1.978,00 0,00 605,00 0,00 5.587,07 0,00 0,00 0,00 0,00 29/02/2024
585 1564200 ANDRESSA RODRIGUES DOS SANTOS ESTAGIARIO GUAXUPE; GUAXUPE-PJ-02PJ 0,00 0,00 0,00 342,00 0,00 0,00 0,00 0,00 0,00 29/02/2024
586 1537800 ANDRESSA VILELA FERREIRA ESTAGIARIO ITUIUTABA; ITUIUTABA-PJ-01PJ 0,00 0,00 0,00 342,00 0,00 0,00 0,00 0,00 0,00 29/02/2024
587 462500 ANDREZA APARECIDA COSTA E SILVA ANALISTA DO MP CONSELHEIRO LAFAIETE - COMARCA; CONSELHEIRO LAFAIETE-PJ-02PJ 1.978,00 2.293,16 605,00 0,00 0,00 0,00 0,00 0,00 0,00 29/02/2024
588 1632400 ANDREZA CAROLYNE QUINTINO TRIGUEIRO DE LIMA ESTAGIARIO BELO HORIZONTE; BH-15PJ M AMB PAT HIST CULT-GAB 114PJ 0,00 0,00 0,00 252,00 0,00 0,00 0,00 0,00 0,00 29/02/2024
589 1515300 ANDREZA CRISTINA DA SILVA SOUZA ESTAGIARIO BELO HORIZONTE; BH-19PJ SAUDE-SECRETARIA 047PJ 0,00 0,00 0,00 198,00 0,00 0,00 0,00 0,00 0,00 29/02/2024
590 677700 ANDREZA DE LOURDES FERREIRA DE PAIVA ASSESSOR PROMOTOR JUSTICA ABRE CAMPO - COMARCA; ABRE CAMPO-PJ-01PJ 1.978,00 0,00 605,00 0,00 0,00 0,00 0,00 0,00 0,00 29/02/2024
591 1483200 ANDREZA FARIA MOSELI ESTAGIARIO VARGINHA; VARGINHA-PJ-04PJ 0,00 0,00 0,00 342,00 0,00 0,00 0,00 0,00 0,00 29/02/2024
592 1447600 ANDREZZA CRISTINA DIAS DE ANDRADE ESTAGIARIO SANTOS DUMONT; SANTOS DUMONT-PJ-01PJ 0,00 0,00 0,00 342,00 0,00 0,00 0,00 0,00 0,00 29/02/2024
593 748100 ANDREZZA GODINHO ARAUJO CACIQUE SOUZA ESTAGIARIO CATAGUASES; CATAGUASES-PJ-01PJ 1.978,00 0,00 605,00 0,00 0,00 0,00 0,00 0,00 0,00 29/02/2024
594 537800 ANDREZZA LUZIA DE OLIVEIRA ALVES ANALISTA DO MP PATOS DE MINAS - COMARCA; COORD REG PJ DEF EDU DIR CRI ADO AL PAR NOROE 1.978,00 0,00 605,00 0,00 5.924,93 0,00 0,00 0,00 0,00 29/02/2024
595 1676300 ANE CAROLINE CARDOSO ALVES ESTAGIARIO BELO HORIZONTE; ASSESS TECN DA JUNTA RECURSAL DO PROCON EST 0,00 0,00 0,00 234,00 0,00 0,00 0,00 0,00 0,00 29/02/2024
596 491600 ANE PATRICIA RIBEIRO DUARTE ANALISTA DO MP SETE LAGOAS - COMARCA; SETE LAGOAS-PJ-11PJ 1.978,00 0,00 605,00 0,00 0,00 0,00 0,00 0,00 0,00 29/02/2024
597 361900 ANELISA CARDOSO RIBEIRO PROMOT.ENTRANC.ESPECIAL CONTAGEM - COMARCA; CONTAGEM-PJ-05PJ 1.978,00 0,00 2.272,80 0,00 6.288,64 0,00 0,00 0,00 576,46 29/02/2024
598 465800 ANELISE GAMA ASSESSOR ADMINISTRATIVO III BELO HORIZONTE - COMARCA; BH-18PJ VIOLENCIA DOMESTICA-SECRETARIA 1.978,00 0,00 605,00 0,00 434,36 0,00 0,00 0,00 0,00 29/02/2024
599 535200 ANELIZE FERNANDA ALVES VILARINHO OFICIAL DO MP CAPINÓPOLIS - COMARCA; CAPINOPOLIS-PJ-UNPJ 1.978,00 1.146,58 605,00 0,00 2.882,57 0,00 0,00 0,00 0,00 29/02/2024
600 726600 ANGELA BARNABE GORGULHO GONZALEZ ESTAGIARIO CASSIA; CASSIA-PJ-01PJ 1.978,00 0,00 605,00 0,00 2.819,48 0,00 0,00 0,00 0,00 29/02/2024
601 197200 ANGELA COELHO SALDANHA OFICIAL DO MP PARÁ DE MINAS - COMARCA; PARA DE MINAS-PJ-03PJ 1.978,00 0,00 605,00 0,00 0,00 0,00 0,00 0,00 0,00 29/02/2024
602 307400 ANGELA CRISTINA GONCALVES MUNIZ ANALISTA DO MP UBERLÂNDIA - COMARCA; UBERLANDIA-PJ-SEC FAMILIA 1.978,00 0,00 605,00 0,00 5.167,75 0,00 0,00 0,00 473,71 29/02/2024
603 157100 ANGELA FABERO PROMOT.ENTRANC.ESPECIAL BELO HORIZONTE - COMARCA; BH-23PJ INFRACIONAL-GAB 145PJ 1.978,00 0,00 3.773,18 0,00 25.411,35 0,00 0,00 0,00 776,46 29/02/2024
604 191800 ANGELA MARIA DE OLIVEIRA OFICIAL DO MP GUARANÉSIA - COMARCA; GUARANESIA-PJ-SECRETARIA 1.978,00 0,00 605,00 0,00 5.501,44 0,00 0,00 0,00 0,00 29/02/2024
605 497400 ANGELA MARIA HENRIQUES ANALISTA DO MP BELO HORIZONTE - COMARCA; COORD REG BACIAS RIO VELHAS E PARAOPEBA 1.978,00 0,00 605,00 0,00 5.924,93 0,00 0,00 0,00 543,12 29/02/2024
606 54600 ANGELA MARIA PEREIRA GRAVINA PROMOT.ENTRANC.ESPECIAL JUIZ DE FORA - COMARCA; JUIZ DE FORA-PJ-11PJ 1.978,00 0,00 1.731,43 0,00 25.411,35 0,00 0,00 0,00 776,46 29/02/2024
607 1482400 ANGELI COSTA MARTINS ESTAGIARIO ARAGUARI; ARAGUARI-PJ-04PJ 0,00 0,00 0,00 342,00 0,00 0,00 0,00 0,00 0,00 29/02/2024
608 260700 ANGELICA CRISTINA AZEVEDO MOREIRA MOUCO OFICIAL DO MP UBÁ - COMARCA; UBA-PJ-05PJ 1.978,00 0,00 605,00 0,00 6.091,94 0,00 0,00 0,00 0,00 29/02/2024
609 1623700 ANGELICA FLORIANO DE MOURA ESTAGIARIO CONTAGEM; CONTAGEM-PJ-22PJ 0,00 0,00 0,00 144,00 0,00 0,00 0,00 0,00 0,00 29/02/2024
610 708300 ANGELICA NUNES VIEIRA DA SILVA ASSESSOR PROMOTOR JUSTICA IBIRITÉ - COMARCA; IBIRITE-PJ-02PJ 1.978,00 0,00 605,00 0,00 0,00 0,00 0,00 0,00 0,00 29/02/2024
611 334600 ANGELICA PANISSA DE FREITAS GALLATI OFICIAL DO MP GUAXUPÉ - COMARCA; GUAXUPE-PJ-02PJ 1.978,00 1.146,58 605,00 0,00 6.221,18 0,00 0,00 0,00 0,00 29/02/2024
612 660400 ANGELICA POLLYANA QUEIROZ DE MEDEIROS PROMOTOR 2A ENTRANCIA FRUTAL - COMARCA; FRUTAL-PJ-01PJ 1.978,00 0,00 2.083,40 0,00 17.922,61 0,00 0,00 0,00 547,64 29/02/2024
613 521100 ANGELICA SALES MOREIRA OFICIAL DO MP BELO HORIZONTE - COMARCA; BH-02PJ FAMILIA-SECRETARIA 1.978,00 0,00 605,00 0,00 6.057,50 0,00 0,00 0,00 0,00 29/02/2024
614 466500 ANGELLO MARQUES AGRELLI ANALISTA DO MP MAR DE ESPANHA - COMARCA; MAR DE ESPANHA-PJ-UNPJ 1.978,00 1.146,58 605,00 0,00 0,00 0,00 0,00 0,00 0,00 29/02/2024
615 222700 ANGELO ALEXANDRE MARZANO PROMOT.ENTRANC.ESPECIAL BELO HORIZONTE - COMARCA; BH-PJ AUXILIAR-GAB 141PJ 1.978,00 0,00 3.246,86 0,00 22.970,94 0,00 0,00 0,00 701,89 29/02/2024
616 167100 ANGELO ANSANELLI JUNIOR PROMOTOR 2A ENTRANCIA FORMIGA - COMARCA; FORMIGA-PJ-02PJ 1.978,00 0,00 3.584,52 0,00 19.991,70 0,00 0,00 0,00 610,86 29/02/2024
617 363300 ANGELO VERDOLIN HENRIQUES ANALISTA DO MP SETE LAGOAS - COMARCA; SETE LAGOAS-PJ-04PJ 1.978,00 0,00 605,00 0,00 6.213,67 0,00 0,00 0,00 0,00 29/02/2024
618 267600 ANIBAL TAMAOKI PROMOT.ENTRANC.ESPECIAL BELO HORIZONTE - COMARCA; BH-18PJ VIOLENCIA DOMESTICA-GAB 053PJ 1.978,00 0,00 1.136,40 0,00 13.835,00 0,00 0,00 0,00 576,46 29/02/2024
619 1430100 ANIELLE FERNANDA EDUARDO SILVA ESTAGIARIO ITABIRA; ITABIRA-PJ-01PJ 0,00 0,00 0,00 342,00 0,00 0,00 0,00 0,00 0,00 29/02/2024
620 250900 ANISIO APARECIDO SANTOS OFICIAL DO MP BETIM - COMARCA; BETIM - SECRETARIA DAS PJS CRIMINAIS 1.978,00 0,00 605,00 0,00 4.624,13 0,00 0,00 0,00 0,00 29/02/2024
621 1588300 ANNA BEATRIZ SILVEIRA CASSIANO ESTAGIARIO MONTE SANTO DE MINAS; MONTE SANTO DE MINAS-PJ-UNPJ 0,00 0,00 0,00 342,00 0,00 0,00 0,00 0,00 0,00 29/02/2024
622 1564800 ANNA CAROLINA BARBOSA METZKER ESTAGIARIO POCOS DE CALDAS; POCOS DE CALDAS-PJ-06PJ 0,00 0,00 0,00 342,00 0,00 0,00 0,00 0,00 0,00 29/02/2024
623 1478900 ANNA CAROLINA DE SENNA BARCANTE ESTAGIARIO FORMIGA; FORMIGA-PJ-04PJ 0,00 0,00 0,00 306,00 0,00 0,00 0,00 0,00 0,00 29/02/2024
624 698100 ANNA CAROLINA POLICARIO BERTOLIN ASSESSOR PROCURADOR JUSTICA BELO HORIZONTE - COMARCA; PROC. JUSTICA DIR. DIFUSOS E COLETIVOS-SEC 1.978,00 0,00 605,00 0,00 0,00 0,00 0,00 0,00 0,00 29/02/2024
625 1459600 ANNA CAROLYNNA SANTOS REZENDE DE ALMEIDA - 2:14596 ESTAGIARIO PONTE NOVA; PONTE NOVA-PJ-01PJ 0,00 0,00 0,00 180,00 0,00 0,00 0,00 0,00 0,00 29/02/2024
626 717900 ANNA CATHARINA MACHADO NORMANTON PROMOTOR SUBSTITUTO MANHUAÇU - COMARCA; MANHUACU-PJ-03PJ 1.978,00 0,00 3.405,30 0,00 17.026,47 0,00 0,00 0,00 520,25 29/02/2024
627 1593000 ANNA CLARA ANGELI VIEIRA ESTAGIARIO BELO HORIZONTE; BH-12PJ JUIZO CRIMINAL-GAB 100PJ 0,00 0,00 0,00 198,00 0,00 0,00 0,00 0,00 0,00 29/02/2024
628 1608000 ANNA CLARA FERNANDES CARVALHO ESTAGIARIO UBERLANDIA; COORD REG PP TRIANGULO MINEIRO UBERLANDIA 0,00 0,00 0,00 36,00 0,00 0,00 0,00 0,00 0,00 29/02/2024
629 747500 ANNA FLAVIA LEAL DE SOUZA ESTAGIARIO GOVERNADOR VALADARES; GOVERNADOR VALADARES-PJ-12PJ 0,00 0,00 0,00 144,00 0,00 0,00 0,00 0,00 0,00 29/02/2024
630 253400 ANNA FLAVIA LEHMAN ANALISTA DO MP BELO HORIZONTE - COMARCA; SUPRIN DE PLANEJAMENTO E COORDENACAO 1.978,00 0,00 605,00 0,00 4.766,12 0,00 0,00 0,00 0,00 29/02/2024
631 713600 ANNA LAURA DE OLIVEIRA CARVALHO ALEXANDRINO ESTAGIARIO RIO PARDO DE MINAS; RIO PARDO DE MINAS-PJ-UNPJ 0,00 0,00 0,00 306,00 0,00 0,00 0,00 0,00 0,00 29/02/2024
632 1691000 ANNA LUISA ANDRADE VIEIRA ESTAGIARIO SAO FRANCISCO; SAO FRANCISCO-PJ-02PJ 0,00 0,00 0,00 306,00 0,00 0,00 0,00 0,00 0,00 29/02/2024
633 1640500 ANNA LUIZA AMORIM FRAGA ESTAGIARIO BELO HORIZONTE; BH-08PJ JUIZADO ESPECIAL-SECRETARIA 0,00 0,00 0,00 252,00 0,00 0,00 0,00 0,00 0,00 29/02/2024
634 688800 ANNA LUIZA MATTOS DUARTE ASSESSOR PROCURADOR JUSTICA BELO HORIZONTE - COMARCA; GABINETE DE PROCURADOR DE JUSTICA - SALA 311 1.978,00 0,00 605,00 0,00 0,00 0,00 0,00 0,00 0,00 29/02/2024
635 1547200 ANNA LUIZA ULHOA ANDRADE NEVES ESTAGIARIO BELO HORIZONTE; BH-10PJ EXECUÇÃO PENAL-GAB 078PJ 0,00 0,00 0,00 216,00 0,00 0,00 0,00 0,00 0,00 29/02/2024
636 747000 ANNA MARIA DE SOUSA LIMA MUNIZ ESTAGIARIO VICOSA; VICOSA-PJ-03PJ 0,00 0,00 0,00 144,00 0,00 0,00 0,00 0,00 0,00 29/02/2024
637 1440200 ANNA MARINA DIAS QUEIROZ PEREIRA ESTAGIARIO MONTES CLAROS; MONTES CLAROS-PJ-01PJ 0,00 0,00 0,00 288,00 0,00 0,00 0,00 0,00 0,00 29/02/2024
638 752100 ANNABELLA ZAVOLI VILLARINHO CARDOSO OFICIAL DO MP ALÉM PARAÍBA - COMARCA; ALEM PARAIBA-PJ-01PJ 0,00 0,00 0,00 36,00 0,00 0,00 0,00 0,00 0,00 29/02/2024
639 1632900 ANNACHE VALVERDE ROCHA DINIZ E SILVA ESTAGIARIO CONTAGEM; CONTAGEM-PJ-19PJ 0,00 0,00 0,00 342,00 0,00 0,00 0,00 0,00 0,00 29/02/2024
640 1642200 ANNE CAROLINE DASSUMPCAO FONSECA ESTAGIARIO DIVINOPOLIS; DIVINOPOLIS-PJ-08PJ 0,00 0,00 0,00 342,00 0,00 0,00 0,00 0,00 0,00 29/02/2024
641 706200 ANNE VICTORIA ALVES E SILVA ESTAGIARIO BELO HORIZONTE; BH-17PJ PATRIMONIO PUBLICO 1.978,00 0,00 605,00 0,00 0,00 0,00 0,00 0,00 0,00 29/02/2024
642 447600 ANNGELUCE ALCANTARA DE CAMPOS OFICIAL DO MP DIVINÓPOLIS - COMARCA; DIVINOPOLIS-PJ-07PJ 1.978,00 0,00 605,00 0,00 6.015,43 0,00 0,00 0,00 0,00 29/02/2024
643 1506800 ANOA DIAS QUARESMA CAMPOS ESTAGIARIO JACINTO; JACINTO-PJ-UNPJ 0,00 0,00 0,00 270,00 0,00 0,00 0,00 0,00 0,00 29/02/2024
644 1628400 ANTONIA DE PAULA SILVA ESTAGIARIO BELO HORIZONTE; CENT ESTAD COOPERACAO TECNICO-JURIDICA
645 630300 ANTONIA GOMES RAMALHO OFICIAL DO MP NOVO CRUZEIRO - COMARCA; NOVO CRUZEIRO-PJ-UNPJ 1.978,00 2.293,16 605,00 0,00 0,00 0,00 0,00 0,00 0,00 29/02/2024
646 1639700 ANTONIELLE MILENA VENTURA DA SILVA COELHO ESTAGIARIO MURIAE; MURIAE-PJ-01PJ 0,00 0,00 0,00 342,00 0,00 0,00 0,00 0,00 0,00 29/02/2024
647 73100 ANTONIO AURELIO SANTOS PROCURADOR DE JUSTICA BELO HORIZONTE - COMARCA; CAO-CONFLITOS AGRARIOS 1.978,00 0,00 3.246,86 0,00 25.411,36 0,00 0,00 0,00 776,46 29/02/2024
648 157300 ANTONIO BORGES DA SILVA PROMOTOR 2A ENTRANCIA SÃO LOURENÇO - COMARCA; SAO LOURENCO-PJ-02PJ 1.978,00 0,00 3.246,86 0,00 25.411,36 0,00 0,00 0,00 776,46 29/02/2024
649 1603800 ANTONIO CARLOS FERREIRA DOS SANTOS ESTAGIARIO ARAGUARI; ARAGUARI-PJ-02PJ 0,00 0,00 0,00 342,00 0,00 0,00 0,00 0,00 0,00 29/02/2024
650 401600 ANTONIO CARLOS GUEDES AROUCA ANALISTA DO MP BELO HORIZONTE - COMARCA; ASSESSORIA JURIDICO-ADMINISTRATIVA 1.978,00 0,00 605,00 0,00 0,00 0,00 0,00 0,00 0,00 29/02/2024
651 76600 ANTONIO DE PADOVA MARCHI JUNIOR PROCURADOR DE JUSTICA BELO HORIZONTE - COMARCA; GABINETE DE PROCURADOR DE JUSTIÇA - SALA 1006 1.978,00 0,00 3.971,77 0,00 25.411,35 0,00 0,00 0,00 776,46 29/02/2024
652 101900 ANTONIO DIAS MAIA PROCURADOR DE JUSTICA BELO HORIZONTE - COMARCA; GABINETE DE PROCURADOR DE JUSTIÇA - SALA 808 1.978,00 0,00 3.818,82 0,00 25.411,35 0,00 0,00 0,00 776,46 29/02/2024
653 84600 ANTONIO DIOGO DA ROCHA PROMOTOR 1A ENTRANCIA BOTELHOS - COMARCA; BOTELHOS-PJ-UNPJ 1.978,00 0,00 3.246,86 0,00 25.411,36 0,00 0,00 0,00 776,46 29/02/2024
654 333900 ANTONIO GONCALVES DE SOUZA FILHO OFICIAL DO MP BELO HORIZONTE - COMARCA; DIRETORIA DE CONTABILIDADE 1.978,00 0,00 605,00 0,00 0,00 0,00 0,00 0,00 0,00 29/02/2024
655 340600 ANTONIO HENRIQUE FRANCO LOPES PROMOT.ENTRANC.ESPECIAL BELO HORIZONTE - COMARCA; ASSESSORIA ESPECIAL-GABINETE DOS ASSESSORES 1.978,00 0,00 2.218,68 0,00 18.865,91 0,00 0,00 0,00 576,46 29/02/2024
656 67600 ANTONIO JOAQUIM SCHELLENBERGER FERNANDES PROCURADOR DE JUSTICA BELO HORIZONTE - COMARCA; PROC JUSTICA DIR DIFUSOS E COLETIVOS-GAB004 1.978,00 0,00 3.971,77 0,00 25.411,35 0,00 0,00 0,00 776,46 29/02/2024
657 77300 ANTONIO JOSE CHINELATO PROCURADOR DE JUSTICA BELO HORIZONTE - COMARCA; GABINETE DE PROCURADOR DE JUSTIÇA - SALA 1008 1.978,00 0,00 0,00 0,00 16.940,90 0,00 0,00 0,00 776,46 29/02/2024
658 211800 ANTONIO JOSE DE OLIVEIRA PROMOTOR 2A ENTRANCIA PASSOS - COMARCA; PASSOS-PJ-06PJ 1.978,00 0,00 3.584,52 0,00 24.276,87 0,00 0,00 0,00 741,79 29/02/2024
659 1593200 ANTONIO LEONARDO AMORIM DA COSTA CAMPOS ESTAGIARIO JUIZ DE FORA; GAECO REGIONAL DA ZONA DA MATA-JUIZ DE FORA 0,00 0,00 0,00 306,00 0,00 0,00 0,00 0,00 0,00 29/02/2024
660 1624900 ANTONIO LOPES DAS CHAGAS ESTAGIARIO CARATINGA; CARATINGA-PJ-03PJ 0,00 0,00 0,00 306,00 0,00 0,00 0,00 0,00 0,00 29/02/2024
661 1670900 ANTONIO MANOEL SANTOS DA SILVA ESTAGIARIO BELO HORIZONTE; PROCURADORIA DE JUSTIÇA CRIMINAL 0,00 0,00 0,00 90,00 0,00 0,00 0,00 0,00 0,00 29/02/2024
662 176100 ANTONIO MARCELO CAMPOS CAMPANELLA OFICIAL DO MP BELO HORIZONTE - COMARCA; COORD DE GABINETE DO PGJ 1.978,00 0,00 605,00 0,00 5.326,00 0,00 0,00 0,00 0,00 29/02/2024
663 321001 ANTONIO OLINTO VIEIRA MACHADO ANALISTA DO MP BELO HORIZONTE - COMARCA; CENTRAL DE APOIO TECN-SETOR DE MEIO AMBIENTE 1.978,00 0,00 605,00 0,00 6.147,52 0,00 0,00 0,00 0,00 29/02/2024
664 356200 ANTONIO PAULA DA SILVA OFICIAL DO MP JUIZ DE FORA - COMARCA; JUIZ DE FORA-PJ-20PJ 1.978,00 0,00 605,00 0,00 6.221,18 0,00 0,00 0,00 0,00 29/02/2024
665 63400 ANTONIO PEDRO DA SILVA MELO PROMOT.ENTRANC.ESPECIAL SÃO JOÃO DEL REI - COMARCA; SAO JOAO DEL REI-PJ-01PJ 1.978,00 0,00 3.246,86 0,00 25.411,36 0,00 0,00 0,00 776,46 29/02/2024
666 119900 ANTONIO RODRIGUES DE PINHO OFICIAL DO MP GUANHÃES - COMARCA; GUANHAES-PJ-01PJ 1.978,00 0,00 605,00 0,00 6.147,80 0,00 0,00 0,00 0,00 29/02/2024
667 373300 ANTONIO SERGIO ANANIAS OFICIAL DO MP SÃO JOÃO NEPOMUCENO - COMARCA; SAO JOAO NEPOMUCENO-PJ-01PJ 1.978,00 0,00 605,00 0,00 0,00 0,00 0,00 0,00 0,00 29/02/2024
668 93500 ANTONIO SERGIO ROCHA DE PAULA PROCURADOR DE JUSTICA BELO HORIZONTE - COMARCA; PROC JUSTICA DIR DIFUSOS E COLETIVOS-GAB003 1.978,00 0,00 3.971,77 0,00 25.411,35 0,00 0,00 0,00 776,46 29/02/2024
669 68700 ANTONIO SERGIO TONET PROCURADOR DE JUSTICA BELO HORIZONTE - COMARCA; GABINETE DE PROCURADOR DE JUSTIÇA - SALA 902 1.978,00 0,00 3.971,77 0,00 8.470,45 0,00 0,00 0,00 776,46 29/02/2024
670 608100 ANTONIO SIDINEY VIEIRA LEMOS ANALISTA DO MP PIRAPORA - COMARCA; PIRAPORA-PJ-01PJ 1.978,00 1.146,58 605,00 0,00 5.924,93 0,00 0,00 0,00 0,00 29/02/2024
671 374700 ANTONIO SILVA NETO OFICIAL DO MP BELO HORIZONTE - COMARCA; GAECO - SECRETARIA 1.978,00 1.146,58 605,00 0,00 0,00 0,00 0,00 0,00 0,00 29/02/2024
672 738600 ANTONIO TADEU FRANCA COSTA FILHO PROMOTOR SUBSTITUTO BRUMADINHO - COMARCA; BRUMADINHO-PJ-02PJ 0,00 0,00 0,00 216,00 0,00 0,00 0,00 0,00 0,00 29/02/2024
673 636700 ANTONIUS VITORIANO FERNANDES OFICIAL DO MP BELO HORIZONTE - COMARCA; ASSESSORIA JURIDICA DO PROCON-MG 1.978,00 0,00 605,00 0,00 0,00 0,00 0,00 0,00 0,00 29/02/2024
674 413200 ANY PEREIRA SILVA ANALISTA DO MP TRÊS PONTAS - COMARCA; TRES PONTAS-PJ-01PJ 1.978,00 0,00 605,00 0,00 5.656,80 0,00 0,00 0,00 0,00 29/02/2024
675 151401 APARECIDA DE FATIMA MENDES DE ALMEIDA ASSESSOR ADMINISTRATIVO II JUIZ DE FORA - COMARCA; JUIZ DE FORA-PJ-SECRETARIA 1.978,00 0,00 605,00 0,00 0,00 0,00 0,00 0,00 0,00 29/02/2024
676 329300 APARECIDA MARIA MELO DE ASSIS OFICIAL DO MP BELO HORIZONTE - COMARCA; BH-18PJ DIREITOS HUMANOS-SECRETARIA 1.978,00 0,00 605,00 0,00 0,00 0,00 0,00 0,00 0,00 29/02/2024
677 653000 APARECIDA ROSA DE LIMA ASSESSOR ADMINISTRATIVO III BELO HORIZONTE - COMARCA; SECRETARIA PROCESSOS DISCIPES ADMINISTRATIVOS 1.978,00 0,00 605,00 0,00 4.777,92 0,00 0,00 0,00 0,00 29/02/2024
678 354500 APARECIDA VIEIRA DE CARVALHO OFICIAL DO MP BELO HORIZONTE - COMARCA; DIVISÃO DE EDUCAÇÃO PARA O CONSUMO 1.978,00 0,00 605,00 0,00 6.211,29 0,00 0,00 0,00 0,00 29/02/2024
679 551000 ARACELES BICALHO FELIX ANALISTA DO MP MANHUAÇU - COMARCA; MANHUACU-PJ-05PJ 1.978,00 2.293,16 605,00 0,00 0,00 0,00 0,00 0,00 0,00 29/02/2024
680 286200 ARACELI MEDRADO DOS SANTOS LIMA OFICIAL DO MP PARACATU - COMARCA; PARACATU-PJ-03PJ 1.978,00 1.146,58 605,00 0,00 4.624,13 0,00 0,00 0,00 0,00 29/02/2024
681 1579600 ARACELLI OLIVEIRA SILVEIRA RIBEIRO ESTAGIARIO UBERLANDIA; UBERLANDIA-PJ-06PJ 0,00 0,00 0,00 342,00 0,00 0,00 0,00 0,00 0,00 29/02/2024
682 112200 ARAQUEM AUGUSTO DE MATOS AGENTE DO MP BELO HORIZONTE - COMARCA; BH-23PJ CIVEL-SEC EXP CIVEIS 1.978,00 0,00 605,00 0,00 0,00 0,00 0,00 0,00 0,00 29/02/2024
683 280600 ARDUINO FRATTEZI ANALISTA DO MP BELO HORIZONTE - COMARCA; CENTRAL DE APOIO TECNICO-SETOR CONTABIL 1.978,00 0,00 605,00 0,00 5.958,24 0,00 0,00 0,00 0,00 29/02/2024
684 67700 ARESLAN EUSTAQUIO MARTINS PROMOTOR 1A ENTRANCIA CARMO DA MATA - COMARCA; CARMO DA MATA-PJ-UNPJ 1.978,00 0,00 3.405,30 0,00 25.411,35 0,00 0,00 0,00 776,46 29/02/2024
685 1481300 ARIANE DA SILVA MENDES - 2:1481300 ESTAGIARIO ABRE CAMPO; ABRE CAMPO-PJ-02PJ 0,00 0,00 0,00 342,00 0,00 0,00 0,00 0,00 0,00 29/02/2024
686 520201 ARIANE DE FATIMA CARVALHO ALMEIDA RODRIGUES ANALISTA DO MP VESPASIANO - COMARCA; VESPASIANO-PJ-SECRETARIA 1.978,00 1.719,87 605,00 0,00 0,00 0,00 0,00 0,00 0,00 29/02/2024
687 1547100 ARIANE MAGALHAES DE PAULA GALDINO ESTAGIARIO CORONEL FABRICIANO; CORONEL FABRICIANO-PJ-04PJ 0,00 0,00 0,00 342,00 0,00 0,00 0,00 0,00 0,00 29/02/2024
688 1577300 ARIEL DE MELO LIMA MARCELINO ESTAGIARIO SANTA LUZIA; SANTA LUZIA-PJ-04PJ 0,00 0,00 0,00 342,00 0,00 0,00 0,00 0,00 0,00 29/02/2024
689 537600 ARIELA FREIRE MONTIJO ANALISTA DO MP ARCOS - COMARCA; ARCOS-PJ-01PJ 1.978,00 0,00 605,00 0,00 0,00 0,00 0,00 0,00 0,00 29/02/2024
690 1678900 ARIELEN DUARTE QUEIROZ ESTAGIARIO MONTES CLAROS; MONTES CLAROS-PJ-06PJ 0,00 0,00 0,00 342,00 0,00 0,00 0,00 0,00 0,00 29/02/2024
691 1613900 ARIENE KATHLEN DE OLIVEIRA ESTAGIARIO CONTAGEM; CONTAGEM-PJ-24PJ 0,00 0,00 0,00 108,00 0,00 0,00 0,00 0,00 0,00 29/02/2024
692 182000 ARILSON ALEXANDRE MARTINS MAGALHAES OFICIAL DO MP JOÃO MONLEVADE - COMARCA; JOAO MONLEVADE-PJ-01PJ 1.978,00 4.586,32 605,00 0,00 5.123,17 0,00 0,00 0,00 0,00 29/02/2024
693 730100 ARILSON MARTINS SILVA ESTAGIARIO NOVO CRUZEIRO; NOVO CRUZEIRO-PJ-UNPJ 1.978,00 0,00 605,00 0,00 0,00 0,00 0,00 0,00 0,00 29/02/2024
694 511000 ARISLANE CAROLINA DA SILVA ANALISTA DO MP MONTE CARMELO - COMARCA; MONTE CARMELO-PJ-02PJ 1.978,00 2.293,16 605,00 0,00 5.924,93 0,00 0,00 0,00 543,12 29/02/2024
695 212000 ARLEN DE OLIVEIRA FERNANDES PROMOT.ENTRANC.ESPECIAL BELO HORIZONTE - COMARCA; BH-12PJ JUIZO CRIMINAL-GAB 098PJ 1.978,00 0,00 3.773,18 0,00 14.029,28 0,00 0,00 0,00 643,01 29/02/2024
696 170000 ARLEY BRITES DA SILVA ASSESSOR ADMINISTRATIVO II BELO HORIZONTE - COMARCA; BH-14PJ DEFESA CONSUMIDOR-SECRETARIA 1.978,00 0,00 605,00 0,00 8.782,84 0,00 0,00 0,00 0,00 29/02/2024
697 243700 ARLINDO MARCIO LACERDA OFICIAL DO MP CONTAGEM - COMARCA; CONTAGEM-PJ-15PJ 1.978,00 0,00 605,00 0,00 0,00 0,00 1.771,66 0,00 0,00 29/02/2024
698 111900 ARNALDO ALVES SOARES PROCURADOR DE JUSTICA BELO HORIZONTE - COMARCA; GABINETE DE PROCURADOR DE JUSTIÇA - SALA 903 1.978,00 0,00 3.382,14 0,00 22.004,26 0,00 0,00 0,00 672,35 29/02/2024
699 392100 ARNALDO DE ANDRADE OFICIAL DO MP DIVINÓPOLIS - COMARCA; DIVINOPOLIS-PJ-02PJ 1.978,00 0,00 605,00 0,00 5.938,87 0,00 1.771,66 0,00 0,00 29/02/2024
700 75900 ARNALDO GOMES RIBEIRO PROCURADOR DE JUSTICA BELO HORIZONTE - COMARCA; GABINETE DE PROCURADOR DE JUSTIÇA - SALA 602 1.978,00 0,00 3.787,99 0,00 18.634,99 0,00 0,00 0,00 776,46 29/02/2024
701 642400 ARTANE INARDE DE SIQUEIRA DAMASCENO ANALISTA DO MP BELO HORIZONTE - COMARCA; SECRETARIA DE ASSUNTOS INTERNACIONAIS 1.978,00 1.719,87 605,00 0,00 0,00 0,00 0,00 0,00 0,00 29/02/2024
702 737100 ARTHUR ALVARES SANTANA ESTAGIARIO UBERLANDIA; UBERLANDIA-PJ-23PJ 0,00 0,00 0,00 234,00 0,00 0,00 0,00 0,00 0,00 29/02/2024
703 733000 ARTHUR BRANDAO ALBUQUERQUE ASSESSOR ADMINISTRATIVO II BELO HORIZONTE - COMARCA; DIRETORIA DE PAGAMENTO DE PESSOAL-DPAG 0,00 0,00 0,00 342,00 0,00 0,00 0,00 0,00 0,00 29/02/2024
704 1665900 ARTHUR CHAVES DUARTE ESTAGIARIO TEOFILO OTONI; TEOFILO OTONI-PJ-01PJ 0,00 0,00 0,00 342,00 0,00 0,00 0,00 0,00 0,00 29/02/2024
705 1624000 ARTHUR CYRILLO RIBEIRO SILVA ESTAGIARIO BELO HORIZONTE; DIR CRIACAO E MIDIAS 0,00 0,00 0,00 288,00 0,00 0,00 0,00 0,00 0,00 29/02/2024
706 1667000 ARTHUR DE LIMA SOSSAI ESTAGIARIO LAVRAS; LAVRAS-PJ-01PJ 0,00 0,00 0,00 342,00 0,00 0,00 0,00 0,00 0,00 29/02/2024
707 700800 ARTHUR GUILHERME RODRIGUES SILVA ESTAGIARIO BELO HORIZONTE; CENTRAL DE APOIO TECNICO 0,00 0,00 0,00 342,00 0,00 0,00 0,00 0,00 0,00 29/02/2024
708 710000 ARTHUR HANNOUCHE ESTAGIARIO BELO HORIZONTE; BH-23PJ INFRACIONAL 1.978,00 0,00 605,00 0,00 2.819,48 0,00 0,00 0,00 0,00 29/02/2024
709 1433800 ARTHUR OLIVEIRA CARABETTI DINIZ ESTAGIARIO BELO HORIZONTE; BH-09PJ AUDITORIA MILITAR-GAB 073PJ 0,00 0,00 0,00 54,00 0,00 0,00 0,00 0,00 0,00 29/02/2024
710 1433500 ARTHUR SALIM DE PAULA LEITE ESTAGIARIO BELO HORIZONTE; BH-12PJ JUIZO CRIMINAL-GAB 106PJ 0,00 0,00 0,00 270,00 250,00 0,00 0,00 0,00 0,00 29/02/2024
711 1525800 ARTUR FERNANDES DE LIMA JUNIOR ESTAGIARIO SANTA RITA DO SAPUCAI; SANTA RITA DO SAPUCAI-PJ-01PJ 0,00 0,00 0,00 342,00 0,00 0,00 0,00 0,00 0,00 29/02/2024
712 221400 ARTUR FORSTER GIOVANNINI PROMOTOR 2A ENTRANCIA TRÊS PONTAS - COMARCA; TRES PONTAS-PJ-01PJ 1.978,00 0,00 3.584,52 0,00 18.957,16 0,00 0,00 0,00 579,25 29/02/2024
713 1674700 ARTUR ROCHA RIBEIRO ESTAGIARIO BELO HORIZONTE; BH-13PJ JUIZO DE TOXICOS-COORD PJ 0,00 0,00 0,00 342,00 0,00 0,00 0,00 0,00 0,00 29/02/2024
714 313500 ARY PEDROSA BITTENCOURT PROMOT.ENTRANC.ESPECIAL BELO HORIZONTE - COMARCA; BH-PJ AUXILIAR-GAB 032PJ 1.978,00 1.146,58 2.570,42 0,00 18.865,91 0,00 0,00 0,00 576,46 29/02/2024
715 315700 ATHAIDE FRANCISCO PERES OLIVEIRA PROMOTOR 2A ENTRANCIA UNAÍ - COMARCA; UNAI-PJ-01PJ 1.978,00 2.293,16 3.165,68 0,00 11.948,41 0,00 0,00 0,00 0,00 29/02/2024
716 707600 AUGUSTO CEZAR CAMPOS DA SILVA ESTAGIARIO ARCOS; ARCOS-PJ-02PJ 1.978,00 0,00 605,00 0,00 0,00 0,00 0,00 0,00 0,00 29/02/2024
717 742500 AUGUSTO EMMANUEL DE LIMA INVESTIGADOR DE POLICIA 2 BELO HORIZONTE - COMARCA; GAECO - SETOR POLICIAL CIVIL 0,00 0,00 0,00 180,00 0,00 0,00 0,00 0,00 0,00 29/02/2024
718 702900 AUGUSTO PENA FIGUEIREDO CAPITAO BELO HORIZONTE - COMARCA; NUCLEO DE OPERACOES DE SEGURANCA DE PESSOAL 0,00 0,00 0,00 324,00 0,00 0,00 0,00 0,00 0,00 29/02/2024
719 666600 AUGUSTO REIS BALLARDIM PROMOTOR 2A ENTRANCIA FORMIGA - COMARCA; FORMIGA-PJ-05PJ 1.978,00 0,00 3.313,43 0,00 17.922,61 0,00 0,00 0,00 547,64 29/02/2024
720 302100 AUGUSTO ROUSSEAU DE CASTRO ANALISTA DO MP CATAGUASES - COMARCA; CATAGUASES-PJ-02PJ 1.978,00 0,00 605,00 0,00 5.998,28 0,00 0,00 0,00 0,00 29/02/2024
721 1534500 AUGUSTO SANAVIA ROCHA ESTAGIARIO BELO HORIZONTE; GABINETE DE PROCURADOR DE JUSTIÇA - SALA 601 0,00 0,00 0,00 270,00 0,00 0,00 0,00 0,00 0,00 29/02/2024
722 540200 AUREA AVELAR BITTENCOURT OFICIAL DO MP BELO HORIZONTE - COMARCA; GRUPO ESP PROM JUST DEF PROB ADM PAT PUB 1.978,00 0,00 605,00 0,00 2.882,57 0,00 0,00 0,00 0,00 29/02/2024
723 633501 AUREA GONTIJO BIRCHAL ASSESSOR DE GABINETE I BELO HORIZONTE - COMARCA; PROCURADOR-GERAL DE JUSTIÇA 1.978,00 0,00 605,00 0,00 5.801,85 0,00 0,00 0,00 0,00 29/02/2024
724 183200 AURELIANO MAGELA DE REZENDE OFICIAL DO MP BELO HORIZONTE - COMARCA; COORD DE GABINETE DO PGJ 1.978,00 0,00 605,00 0,00 6.153,36 0,00 0,00 0,00 564,06 29/02/2024
725 730800 AURELIO LENTI CAMPOS FILGUEIRAS DE CASTRO ESTAGIARIO LAVRAS; LAVRAS-PJ-03PJ 1.978,00 0,00 605,00 0,00 6.005,36 0,00 0,00 0,00 550,49 29/02/2024
726 106500 AVAIDE MARCOS MARIANO PROMOT.ENTRANC.ESPECIAL UBERLÂNDIA - COMARCA; UBERLANDIA-PJ-13PJ 1.978,00 0,00 3.773,18 0,00 18.634,99 0,00 0,00 0,00 776,46 29/02/2024
727 629400 AYESKA DA COSTA VAL MOURA DABIEN OFICIAL DO MP BELO HORIZONTE - COMARCA; BH-09PJ AUDITORIA MILITAR-SECRETARIA 1.978,00 0,00 605,00 0,00 0,00 0,00 0,00 0,00 0,00 29/02/2024
728 1694800 AYLANNA SOARES ARAUJO ESTAGIARIO BELO HORIZONTE; BH-25PJ DEFESA DA EDUCACAO-SECRETARIA 0,00 0,00 0,00 306,00 0,00 0,00 0,00 0,00 0,00 29/02/2024
729 151800 AYLOR LUIZ MEIRELLES JUNIOR PROMOTOR 2A ENTRANCIA SÃO DOMINGOS DO PRATA - COMARCA; SAO DOMINGOS DO PRATA-PJ-UNPJ 1.978,00 0,00 3.111,57 0,00 25.236,93 0,00 0,00 0,00 771,13 29/02/2024
730 707400 AYMEE JOHANSSENN TYNEE CORREIA ALVES ASSESSOR PROMOTOR JUSTICA NOVA LIMA - COMARCA; NOVA LIMA-PJ-01PJ 0,00 0,00 0,00 342,00 0,00 0,00 0,00 0,00 0,00 29/02/2024
731 704800 BARBARA AZEVEDO PERPETUO ESTAGIARIO CONTAGEM; CONTAGEM-PJ-20PJ 0,00 0,00 0,00 342,00 0,00 0,00 0,00 0,00 0,00 29/02/2024
732 1617600 BARBARA BELARMINO FELIX DE LIMA ESTAGIARIO UBERABA; UBERABA-PJ-06PJ 0,00 0,00 0,00 324,00 0,00 0,00 0,00 0,00 0,00 29/02/2024
733 701600 BARBARA CHAVES OLIVEIRA ASSESSOR PROCURADOR JUSTICA BELO HORIZONTE - COMARCA; PROC. JUSTICA DIR. DIFUSOS E COLETIVOS-SEC 1.978,00 0,00 605,00 0,00 0,00 0,00 0,00 0,00 0,00 29/02/2024
734 1579300 BARBARA COLEHO BRANT GOMES ESTAGIARIO BELO HORIZONTE; BH-12PJ JUIZO CRIMINAL-GAB 103PJ 0,00 0,00 0,00 270,00 0,00 0,00 0,00 0,00 0,00 29/02/2024
735 1481800 BARBARA COTTA E SILVA ESTAGIARIO BELO HORIZONTE; GABINETE DE PROCURADOR DE JUSTIÇA - SALA 914 0,00 0,00 0,00 324,00 0,00 0,00 0,00 0,00 0,00 29/02/2024
736 691900 BARBARA COUTINHO REIS ASSESSOR PROCURADOR JUSTICA BELO HORIZONTE - COMARCA; GABINETE DE PROCURADOR DE JUSTIÇA - SALA 910 1.978,00 0,00 605,00 0,00 0,00 0,00 0,00 0,00 0,00 29/02/2024
737 1538200 BARBARA CRISTINA MELO BATISTA ESTAGIARIO BELO HORIZONTE; BH-10PJ EXECUÇÃO PENAL-GAB 080PJ 0,00 0,00 0,00 288,00 0,00 0,00 0,00 0,00 0,00 29/02/2024
738 692200 BARBARA CRISTINA MENDES BANDEIRA DE MELO DUTRA ASSESSOR PROCURADOR JUSTICA BELO HORIZONTE - COMARCA; GABINETE DE PROCURADOR DE JUSTIÇA - SALA 1009 -359,64 2.293,16 605,00 0,00 2.819,48 0,00 0,00 0,00 0,00 29/02/2024
739 743300 BARBARA CRISTINA SOUZA E SOUSA ASSESSOR PROCURADOR JUSTICA BELO HORIZONTE - COMARCA; GABINETE DE PROCURADOR DE JUSTIÇA - SALA 513 1.978,00 0,00 605,00 0,00 0,00 0,00 0,00 0,00 0,00 29/02/2024
740 723400 BARBARA CRISTINA TAVARES CARNEIRO ASSESSOR PROCURADOR JUSTICA BELO HORIZONTE - COMARCA; GABINETE DE PROCURADOR DE JUSTIÇA - SALA 501 1.978,00 0,00 605,00 0,00 2.819,48 0,00 0,00 0,00 0,00 29/02/2024
741 1643600 BARBARA DOS SANTOS CHOUCAIR ESTAGIARIO BELO HORIZONTE; CAO-DH CONT EXT ATIV POLIC E AP COMUNIT 0,00 0,00 0,00 180,00 0,00 0,00 0,00 0,00 0,00 29/02/2024
742 1473700 BARBARA FERREIRA DOS SANTOS ESTAGIARIO PAINS; ALFENAS-PJ-02PJ 0,00 0,00 0,00 342,00 0,00 0,00 0,00 0,00 0,00 29/02/2024
743 314700 BARBARA FRANCINE PRETTE NUNES PROMOTOR 1A ENTRANCIA PERDIZES - COMARCA; PERDIZES-PJ-UNPJ 1.978,00 0,00 3.405,30 0,00 6.810,59 0,00 0,00 0,00 520,25 29/02/2024
744 1539800 BARBARA GEOVANA SILVA SANTOS ESTAGIARIO BELO HORIZONTE; CAO-FUNDACOES 0,00 0,00 0,00 342,00 0,00 0,00 0,00 0,00 0,00 29/02/2024
745 1410100 BARBARA HELENA FROIS GUIMARAES GIL ESTAGIARIO BELO HORIZONTE; GABINETE DE PROCURADOR DE JUSTIÇA - SALA 814
746 652800 BARBARA JULIANNE MOREIRA CASTRO ASSESSOR PROCURADOR JUSTICA BELO HORIZONTE - COMARCA; ASSESS TECNICO-JUR JUNTO AS PROC. DE JUST 1.978,00 0,00 605,00 0,00 2.819,48 0,00 0,00 0,00 0,00 29/02/2024
747 742500 BARBARA KATLEN SOARES FERNANDES ESTAGIARIO DORES DO INDAIA; DORES DO INDAIA-PJ-UNPJ 0,00 0,00 0,00 180,00 0,00 0,00 0,00 0,00 0,00 29/02/2024
748 1450300 BARBARA LARISSA DAS GRACAS SOUZA ESTAGIARIO BELO HORIZONTE; BH-24PJ JUIZO REG BARREIRO-GAB 003PJ 0,00 0,00 0,00 234,00 0,00 0,00 0,00 0,00 0,00 29/02/2024
749 1457700 BARBARA LEDRES SILVA ESTAGIARIO MEDINA; MEDINA-PJ-UNPJ 0,00 0,00 0,00 324,00 0,00 0,00 0,00 0,00 0,00 29/02/2024
750 1674200 BARBARA LORRANE NUNES CAETANO ESTAGIARIO BELO HORIZONTE; ASSESS TECN DA JUNTA RECURSAL DO PROCON EST 0,00 0,00 0,00 324,00 0,00 0,00 0,00 0,00 0,00 29/02/2024
751 707700 BARBARA LOUISE PUFF DE OLIVEIRA ASSESSOR PROMOTOR JUSTICA RIBEIRÃO DAS NEVES - COMARCA; RIBEIRAO DAS NEVES-PJ-02PJ 1.978,00 0,00 605,00 0,00 5.991,41 0,00 0,00 0,00 0,00 29/02/2024
752 1521500 BARBARA LOURENCO LIMA ESTAGIARIO JANAUBA; JANAUBA-PJ-02PJ 0,00 0,00 0,00 342,00 0,00 0,00 0,00 0,00 0,00 29/02/2024
753 1562500 BARBARA MARINA ALVIM DE CASSIO ESTAGIARIO SAO JOAO DEL REI; SAO JOAO DEL REI-PJ-06PJ 0,00 0,00 0,00 324,00 0,00 0,00 0,00 0,00 0,00 29/02/2024
754 666500 BARBARA MARTINS DE SOUZA PROMOTOR 2A ENTRANCIA PONTE NOVA - COMARCA; PONTE NOVA-PJ-02PJ 1.978,00 1.146,58 2.381,02 0,00 17.922,60 0,00 0,00 0,00 547,64 29/02/2024
755 763100 BARBARA MINELLI FERNANDES ASSESSOR PROCURADOR JUSTICA BELO HORIZONTE - COMARCA; SUPER DE GESTAO DE PESSOAS-LOTACAO TEMPORARIA 179,82 0,00 605,00 0,00 0,00 0,00 0,00 0,00 587,39 29/02/2024
756 754500 BARBARA PENNA MACIEL ALVES ESTAGIARIO VESPASIANO; VESPASIANO-PJ-02PJ 1.978,00 0,00 605,00 0,00 0,00 0,00 0,00 0,00 0,00 29/02/2024
757 740600 BARBARA PORTES RODRIGUES DE CARVALHO PROMOTOR SUBSTITUTO FRANCISCO SÁ - COMARCA; FRANCISCO SA-PJ-UNPJ 0,00 0,00 0,00 198,00 0,00 0,00 0,00 0,00 0,00 29/02/2024
758 1536000 BARBARA PRADO KRETLI OLIVEIRA ESTAGIARIO GOVERNADOR VALADARES; GOVERNADOR VALADARES-PJ-17PJ 0,00 0,00 0,00 342,00 0,00 0,00 0,00 0,00 0,00 29/02/2024
759 663600 BARBARA REGINA PEREIRA DE PINHO MAGALHAES ASSESSOR PROMOTOR JUSTICA BELO HORIZONTE - COMARCA; CAO-DH CONT EXT ATIV POLIC E AP COMUNIT 1.978,00 0,00 605,00 0,00 0,00 0,00 0,00 0,00 0,00 29/02/2024
760 685500 BARBARA RODRIGUES DE PAULA PROMOTOR 2A ENTRANCIA MANTENA - COMARCA; MANTENA-PJ-01PJ 1.978,00 0,00 892,88 0,00 17.922,60 0,00 0,00 0,00 547,64 29/02/2024
761 717600 BARBARA TEODORO TOLENTINO ESTAGIARIO TRES CORACOES; TRES CORACOES-PJ-02PJ
762 546500 BARBARA ZACARONI GOULART OFICIAL DO MP BETIM - COMARCA; BETIM-PJ-08PJ 1.978,00 0,00 605,00 0,00 2.882,57 0,00 0,00 0,00 0,00 29/02/2024
763 1479200 BARBARACAMILA DE SOUZA LARA ESTAGIARIO JOAO PINHEIRO; JOAO PINHEIRO-PJ-02PJ
764 1542800 BARBARAH EMANUELLY SOUZA SANTOS ESTAGIARIO BARBACENA; BARBACENA-PJ-08PJ 0,00 0,00 0,00 342,00 0,00 0,00 0,00 0,00 0,00 29/02/2024
765 316500 BEATRIZ ABILVIA DA SILVA ANALISTA DO MP GOVERNADOR VALADARES - COMARCA; GOVERNADOR VALADARES-PJ-07PJ 1.978,00 0,00 605,00 0,00 5.530,05 0,00 0,00 0,00 0,00 29/02/2024
766 1498900 BEATRIZ APARECIDA DIAS BATISTA ESTAGIARIO MANHUMIRIM; MANHUMIRIM-PJ-02PJ 0,00 0,00 0,00 252,00 0,00 0,00 0,00 0,00 0,00 29/02/2024
767 311800 BEATRIZ APARECIDA SOARES GANEM OFICIAL DO MP ITAMBACURI - COMARCA; ITAMBACURI-PJ-02PJ 1.978,00 0,00 605,00 0,00 5.864,32 0,00 0,00 0,00 0,00 29/02/2024
768 266800 BEATRIZ AUGUSTA VILACA GOMES DE HUBER OFICIAL DO MP BELO HORIZONTE - COMARCA; BH-05PJ-JUÍZO SUCESSÕES-SEC 1.978,00 0,00 605,00 0,00 0,00 0,00 0,00 0,00 0,00 29/02/2024
769 235200 BEATRIZ BOTELHO BATISTA OFICIAL DO MP MATEUS LEME - COMARCA; MATEUS LEME-PJ-02PJ 1.978,00 0,00 605,00 0,00 0,00 0,00 0,00 0,00 0,00 29/02/2024
770 1632000 BEATRIZ BOUISSOU MORAIS SOARES ESTAGIARIO BELO HORIZONTE; BH-02PJ FAMILIA-GAB 027PJ
771 1480500 BEATRIZ CAMPOS VIEIRA FEIO ESTAGIARIO BELO HORIZONTE; GABINETE DE PROCURADOR DE JUSTICA - SALA 313 0,00 0,00 0,00 306,00 0,00 0,00 0,00 0,00 0,00 29/02/2024
772 1669800 BEATRIZ GONCALVES RAMOS ESTAGIARIO CONTAGEM; CONTAGEM-PJ-20PJ 0,00 0,00 0,00 162,00 0,00 0,00 0,00 0,00 0,00 29/02/2024
773 706600 BEATRIZ JOANA FERREIRA LOURENCO ESTAGIARIO BELO HORIZONTE; BH-17PJ PATRIMONIO PUBLICO 1.978,00 1.146,58 605,00 0,00 0,00 0,00 0,00 0,00 0,00 29/02/2024
774 1429500 BEATRIZ MACIEL ALMEIDA RIBEIRO ESTAGIARIO BELO HORIZONTE; GAECO 0,00 0,00 0,00 180,00 0,00 0,00 0,00 0,00 0,00 29/02/2024
775 719500 BEATRIZ MOREIRA COSTA ESTAGIARIO ALEM PARAIBA; ALEM PARAIBA-PJ-02PJ 1.978,00 0,00 1.496,68 0,00 17.026,47 0,00 0,00 0,00 520,25 29/02/2024
776 182300 BEATRIZ PAULA SOUSA RAMOS OFICIAL DO MP MARIANA - COMARCA; MARIANA-PJ-01PJ 1.978,00 0,00 605,00 0,00 0,00 0,00 0,00 0,00 0,00 29/02/2024
777 759600 BEATRIZ PERES FURLANI ASSESSOR PROMOTOR JUSTICA RIO POMBA - COMARCA 2.067,91 0,00 1.210,00 0,00 0,00 0,00 0,00 0,00 293,70 29/02/2024
778 1590400 BEATRIZ RIBEIRO SOARES MENDES ESTAGIARIO MONTES CLAROS; MONTES CLAROS-PJ-15PJ 0,00 0,00 0,00 306,00 0,00 0,00 0,00 0,00 0,00 29/02/2024
779 507000 BELCHIOR FRANKLIN AMARAL LEITE ANALISTA DO MP BELO HORIZONTE - COMARCA; CAO ORGAOS MPMG DESIG FUNC ELEITORAIS-SEC 1.978,00 0,00 605,00 0,00 6.031,87 0,00 0,00 0,00 0,00 29/02/2024
780 345100 BENITO ELIAS RODRIGUES ANALISTA DO MP BARBACENA - COMARCA; BARBACENA - SECRETARIA DAS PJS CRIMINAIS 1.978,00 1.146,58 605,00 0,00 0,00 0,00 0,00 0,00 0,00 29/02/2024
781 207300 BENITO VIEIRA DOS SANTOS ANALISTA DO MP BELO HORIZONTE - COMARCA; PROC JUST ESP ACOES COMP ORIG CRIMINAL-ASSESS 1.978,00 0,00 605,00 0,00 4.789,83 0,00 0,00 0,00 0,00 29/02/2024
782 84700 BERGSON CARDOSO GUIMARAES PROMOT.ENTRANC.ESPECIAL BELO HORIZONTE - COMARCA; BH-02PJ FAMILIA-GAB 014PJ 1.978,00 0,00 3.773,18 0,00 25.411,36 0,00 0,00 0,00 776,46 29/02/2024
783 480200 BERNADETE NUNES DOS SANTOS ANALISTA DO MP GUANHÃES - COMARCA; GUANHAES-PJ-02PJ 1.978,00 0,00 605,00 0,00 0,00 0,00 0,00 0,00 0,00 29/02/2024
784 755900 BERNARDO ANGELI BELO ESTAGIARIO BONFINOPOLIS DE MINAS; BONFINOPOLIS DE MINAS-PJ-UNPJ 1.978,00 0,00 605,00 0,00 0,00 0,00 0,00 0,00 0,00 29/02/2024
785 1503900 BERNARDO CARVALHO BAUMGRATZ DE MIRANDA ESTAGIARIO BELO HORIZONTE; BH-01PJ FAZENDA PUBLICA-GAB 008PJ 0,00 0,00 0,00 126,00 0,00 0,00 0,00 0,00 0,00 29/02/2024
786 456700 BERNARDO DE MOURA LIMA PAIVA JEHA PROMOTOR 2A ENTRANCIA ITAÚNA - COMARCA; ITAUNA-PJ-01PJ 1.978,00 0,00 3.584,52 0,00 17.922,60 0,00 0,00 0,00 547,64 29/02/2024
787 1670300 BERNARDO HENRIQUE PEREIRA MARCIAL ESTAGIARIO MANHUACU; MANHUACU-PJ-06PJ 0,00 0,00 0,00 342,00 0,00 0,00 0,00 0,00 0,00 29/02/2024
788 738300 BERNARDO SANGUINETTI DA CUNHA ROSA PROMOTOR SUBSTITUTO JAIBA - COMARCA; JAIBA-PJ-UNPJ 0,00 0,00 0,00 234,00 0,00 0,00 0,00 0,00 0,00 29/02/2024
789 1508100 BETANIA BEZERRA FIGUEIRA ESTAGIARIO UBERLANDIA; UBERLANDIA-PJ-24PJ 0,00 0,00 0,00 252,00 0,00 0,00 0,00 0,00 0,00 29/02/2024
790 162900 BETANIA CABRAL DE PINA LARCHER PROMOT.ENTRANC.ESPECIAL CONTAGEM - COMARCA; CONTAGEM-PJ-18PJ 1.978,00 0,00 3.773,18 0,00 20.934,99 0,00 0,00 0,00 639,68 29/02/2024
791 378400 BETANIA FARNESI DE SOUZA E SILVA OFICIAL DO MP CURVELO - COMARCA; CURVELO-PJ-01PJ 1.978,00 0,00 605,00 0,00 6.221,18 0,00 0,00 0,00 0,00 29/02/2024
792 387400 BETANIA MENDONCA DE ASSIS CARVALHO ANALISTA DO MP JUIZ DE FORA - COMARCA; JUIZ DE FORA-PJ-03PJ 1.978,00 1.146,58 605,00 0,00 0,00 0,00 0,00 0,00 0,00 29/02/2024
793 1573200 BETHANIA SILVA CLEMENTE ESTAGIARIO LEOPOLDINA; LEOPOLDINA-PJ-04PJ 0,00 0,00 0,00 252,00 0,00 0,00 0,00 0,00 0,00 29/02/2024
794 705800 BIANCA BERNARDES DA SILVA ESTAGIARIO LAVRAS; LAVRAS-PJ-06PJ 1.978,00 0,00 605,00 0,00 0,00 0,00 0,00 0,00 0,00 29/02/2024
795 714400 BIANCA DE CASTRO RAMOS ASSESSOR PROMOTOR JUSTICA BETIM - COMARCA; BETIM-PJ-13PJ 0,00 0,00 0,00 342,00 0,00 0,00 0,00 0,00 0,00 29/02/2024
796 1674800 BIANCA DE SOUZA VILELA ESTAGIARIO BELO HORIZONTE; BH-13PJ JUIZO DE TOXICOS-GAB 079PJ 0,00 0,00 0,00 234,00 0,00 0,00 0,00 0,00 0,00 29/02/2024
797 1579000 BIANCA ISABELA GOULART CORNELIO ESTAGIARIO BELO HORIZONTE; OUVIDORIA DO MPMG 0,00 0,00 0,00 180,00 0,00 0,00 0,00 0,00 0,00 29/02/2024
798 1446400 BIANCA MACHADO DOS SANTOS ESTAGIARIO ARAGUARI; ARAGUARI-PJ-01PJ 0,00 0,00 0,00 342,00 0,00 0,00 0,00 0,00 0,00 29/02/2024
799 450300 BIANCA OLIVEIRA DE ALBUQUERQUE ANALISTA DO MP BELO HORIZONTE - COMARCA; BH-10PJ EXECUÇÃO PENAL-SECRETARIA 1.978,00 1.146,58 605,00 0,00 0,00 0,00 0,00 0,00 0,00 29/02/2024
800 747700 BIANCA RIBEIRO BORGES ESTAGIARIO TURMALINA; TURMALINA-PJ-UNPJ 1.978,00 0,00 605,00 0,00 0,00 0,00 0,00 0,00 0,00 29/02/2024
801 535400 BIANCA SALOTO ROSSI ANALISTA DO MP SANTOS DUMONT - COMARCA; SANTOS DUMONT-PJ-01PJ 1.978,00 1.146,58 605,00 0,00 0,00 0,00 0,00 0,00 0,00 29/02/2024
802 1473300 BIANCA SILVA BRANDAO ESTAGIARIO PASSOS; PASSOS-PJ-05PJ 0,00 0,00 0,00 180,00 0,00 0,00 0,00 0,00 0,00 29/02/2024
803 1679900 BLANDINO SOUTO JUNIOR ESTAGIARIO UBERABA; COORD REG SAUDE MACROR SANIT TRIANGULO SUL 0,00 0,00 0,00 324,00 0,00 0,00 0,00 0,00 0,00 29/02/2024
804 120800 BRAS MARQUES DE SOUZA ANALISTA DO MP BELO HORIZONTE - COMARCA; SUPERINTENDENCIA DE GESTAO ADMINISTRATIVA 1.978,00 0,00 605,00 0,00 5.501,44 0,00 0,00 0,00 0,00 29/02/2024
805 1568500 BRENDA CUSTODIO DE ABREU ESTAGIARIO CONCEICAO DAS ALAGOAS; CONCEICAO DAS ALAGOAS-PJ-01PJ 0,00 0,00 0,00 126,00 863,33 0,00 0,00 0,00 0,00 29/02/2024
806 1686900 BRENDA FERREIRA PACHECO ESTAGIARIO JANUARIA; JANUARIA-PJ-02PJ 0,00 0,00 0,00 324,00 0,00 0,00 0,00 0,00 0,00 29/02/2024
807 1501700 BRENDA GONCALVES DE CARVALHO ESTAGIARIO BELO HORIZONTE; GABINETE DE PROCURADOR DE JUSTIÇA - SALA 902 0,00 0,00 0,00 126,00 0,00 0,00 0,00 0,00 0,00 29/02/2024
808 1484800 BRENDA IZABEL GONCALVES FRANCA ESTAGIARIO BELO HORIZONTE; BH-12PJ JUIZO CRIMINAL-GAB 094PJ 0,00 0,00 0,00 324,00 0,00 0,00 0,00 0,00 0,00 29/02/2024
809 756500 BRENDA LORRANA FRANCO ASSESSOR PROMOTOR JUSTICA UBERLÂNDIA - COMARCA; UBERLANDIA-PJ-20PJ 0,00 0,00 0,00 36,00 0,00 0,00 0,00 0,00 0,00 29/02/2024
810 714300 BRENDA NOMINATO CORREIA SIMOES ESTAGIARIO EXTREMA; EXTREMA-PJ-01PJ 1.978,00 0,00 605,00 0,00 3.524,36 0,00 0,00 0,00 323,07 29/02/2024
811 1645100 BRENDA PETEK DE OLIVEIRA ESTAGIARIO FRUTAL; FRUTAL-PJ-05PJ 0,00 0,00 0,00 324,00 0,00 0,00 0,00 0,00 0,00 29/02/2024
812 724400 BRENDA PIMENTEL DE SOUZA VIANA ASSESSOR PROMOTOR JUSTICA MANHUMIRIM - COMARCA; MANHUMIRIM-PJ-01PJ 0,00 0,00 0,00 342,00 0,00 0,00 0,00 0,00 0,00 29/02/2024
813 1476200 BRENDA RODRIGUES DIAS ESTAGIARIO BETIM; BETIM-PJ-02PJ 0,00 0,00 0,00 270,00 0,00 0,00 0,00 0,00 0,00 29/02/2024
814 710500 BRENNO VINICIUS MAGESTE ROSA ASSESSOR PROMOTOR JUSTICA MANHUAÇU - COMARCA; MANHUACU-PJ-02PJ 0,00 0,00 0,00 342,00 0,00 0,00 0,00 0,00 0,00 29/02/2024
815 741000 BRENO ALEXEI RODRIGUES DE OLIVEIRA PROMOTOR SUBSTITUTO TAIOBEIRAS - COMARCA; TAIOBEIRAS-PJ-UNPJ 0,00 0,00 0,00 216,00 0,00 0,00 0,00 0,00 0,00 29/02/2024
816 372400 BRENO COSTA DA SILVA COELHO PROMOTOR 2A ENTRANCIA VISCONDE DO RIO BRANCO - COMARCA; GAECO REGIONAL ZONA MATA-VISCONDE RIO BRANCO 1.978,00 1.146,58 2.759,82 0,00 17.922,61 0,00 0,00 0,00 547,64 29/02/2024
817 460900 BRENO CRISTIANO DE SOUZA REZENDE ANALISTA DO MP ITAÚNA - COMARCA; ITAUNA-PJ-02PJ 1.978,00 0,00 605,00 0,00 5.924,93 0,00 0,00 0,00 543,12 29/02/2024
818 1637200 BRENO DEL FRARO XIMENES ESTAGIARIO BELO HORIZONTE; GABINETE DE PROCURADOR DE JUSTIÇA - SALA 407 0,00 0,00 0,00 306,00 0,00 0,00 0,00 0,00 0,00 29/02/2024
819 96700 BRENO LINHARES LINTZ PROMOT.ENTRANC.ESPECIAL UBERLÂNDIA - COMARCA; UBERLANDIA-PJ-10PJ 1.978,00 0,00 0,00 0,00 25.411,36 0,00 0,00 0,00 776,46 29/02/2024
820 733800 BRENO MATEUS RAMOS BRAGA ESTAGIARIO BOCAIUVA; BOCAIUVA-PJ-02PJ 0,00 0,00 0,00 342,00 0,00 0,00 0,00 0,00 0,00 29/02/2024
821 439500 BRENO MAX DE JESUS SILVEIRA PROMOTOR 2A ENTRANCIA CARANGOLA - COMARCA; CARANGOLA-PJ-02PJ 1.978,00 0,00 1.136,40 0,00 17.922,61 0,00 0,00 0,00 547,64 29/02/2024
822 439300 BRENO NASCIMENTO PACHECO PROMOTOR 2A ENTRANCIA PATROCÍNIO - COMARCA; PATROCINIO-PJ-01PJ 1.978,00 0,00 3.584,52 0,00 17.922,60 0,00 0,00 0,00 547,64 29/02/2024
823 1594500 BRENO TRINDADE CASTRO ESTAGIARIO OLIVEIRA; OLIVEIRA-PJ-01PJ 0,00 0,00 0,00 342,00 0,00 0,00 0,00 0,00 0,00 29/02/2024
824 239000 BRENO VENANCIO ROMANINI OFICIAL DO MP BELO HORIZONTE - COMARCA; BH-20PJ ORD ECON TRIBUTARIA-SECRETARIA 1.978,00 0,00 605,00 0,00 6.221,18 0,00 0,00 0,00 570,27 29/02/2024
825 1469400 BRUNA ALMEIDA LOPES ESTAGIARIO JUIZ DE FORA; JUIZ DE FORA-PJ-04PJ 0,00 0,00 0,00 270,00 0,00 0,00 0,00 0,00 0,00 29/02/2024
826 1491400 BRUNA ALVES FERNANDES ESTAGIARIO CAPELINHA; CAPELINHA-PJ-01PJ 0,00 0,00 0,00 342,00 0,00 0,00 0,00 0,00 0,00 29/02/2024
827 1448700 BRUNA BARBOSA SOARES DE SOUZA ESTAGIARIO SAO LOURENCO; SAO LOURENCO-PJ-03PJ 0,00 0,00 0,00 342,00 0,00 0,00 0,00 0,00 0,00 29/02/2024
828 659300 BRUNA BODONI FACCIOLI PROMOT.ENTRANC.ESPECIAL TIMÓTEO - COMARCA; TIMOTEO-PJ-04PJ 1.978,00 0,00 3.773,18 0,00 18.865,91 0,00 0,00 0,00 576,46 29/02/2024
829 1621400 BRUNA BOECHAT DE SOUZA DOLABELLA ESTAGIARIO BELO HORIZONTE; BH-23PJ CIVEL-SETOR JURIDICO 0,00 0,00 0,00 252,00 0,00 0,00 0,00 0,00 0,00 29/02/2024
830 1625600 BRUNA CAMPIDELLI FERREIRA ESTAGIARIO JOAO MONLEVADE; JOAO MONLEVADE-PJ-02PJ 0,00 0,00 0,00 198,00 0,00 0,00 0,00 0,00 0,00 29/02/2024
831 1622700 BRUNA CARVALHO DE MAGALHAES ESTAGIARIO BELO HORIZONTE; GABINETE DE PROCURADOR DE JUSTIÇA - SALA 712
832 1641400 BRUNA COSTA MACHADO ESTAGIARIO UBERABA; UBERABA-PJ-03PJ 0,00 0,00 0,00 324,00 0,00 0,00 0,00 0,00 0,00 29/02/2024
833 1504100 BRUNA CRISTINA OLIVEIRA DOS SANTOS ESTAGIARIO VESPASIANO; VESPASIANO-PJ-06PJ 0,00 0,00 0,00 180,00 0,00 0,00 0,00 0,00 0,00 29/02/2024
834 1606600 BRUNA DA CUNHA SILVA ESTAGIARIO BARBACENA; BARBACENA-PJ-04PJ 0,00 0,00 0,00 342,00 0,00 0,00 0,00 0,00 0,00 29/02/2024
835 1675600 BRUNA DE NAZARE PECONICK MANSUR ESTAGIARIO BELO HORIZONTE; GABINETE DE PROCURADOR DE JUSTIÇA - SALA 514 0,00 0,00 0,00 162,00 0,00 0,00 0,00 0,00 0,00 29/02/2024
836 1557400 BRUNA DO PRADO SANTOS ESTAGIARIO POUSO ALEGRE; POUSO ALEGRE-PJ-06PJ 0,00 0,00 0,00 342,00 0,00 0,00 0,00 0,00 0,00 29/02/2024
837 1672100 BRUNA EDUARDA DA SILVA LOPES ESTAGIARIO SABARA; SABARA-PJ-01PJ 0,00 0,00 0,00 288,00 0,00 0,00 0,00 0,00 0,00 29/02/2024
838 1616700 BRUNA ELISA DE OLIVEIRA SILVA ESTAGIARIO CARMO DO PARANAIBA; CARMO DO PARANAIBA-PJ-01PJ 0,00 0,00 0,00 342,00 0,00 0,00 0,00 0,00 0,00 29/02/2024
839 1430400 BRUNA FERNANDES ABINEDER FERREIRA ESTAGIARIO BELO HORIZONTE; BH-09PJ AUDITORIA MILITAR-GAB 073PJ
840 1487700 BRUNA GOULART TAVARES ESTAGIARIO PARAISOPOLIS; PARAISOPOLIS-PJ-UNPJ 0,00 0,00 0,00 324,00 0,00 0,00 0,00 0,00 0,00 29/02/2024
841 722100 BRUNA HENRIQUE DE SOUZA ASSESSOR PROMOTOR JUSTICA PIRAPETINGA - COMARCA; PIRAPETINGA-PJ-UNPJ 1.978,00 0,00 605,00 0,00 2.819,48 0,00 0,00 0,00 258,45 29/02/2024
842 642300 BRUNA IZABELITA DE FATIMA OLIVEIRA COSTA OFICIAL DO MP BELO HORIZONTE - COMARCA; BH-02PJ FAMILIA-SECRETARIA 1.978,00 0,00 605,00 0,00 2.312,06 0,00 0,00 0,00 211,94 29/02/2024
843 513600 BRUNA KARLA MARTINS CARVALHO ANALISTA DO MP GOVERNADOR VALADARES - COMARCA; GOVERNADOR VALADARES-PJ-14PJ 1.978,00 0,00 605,00 0,00 5.924,93 0,00 0,00 0,00 0,00 29/02/2024
844 748400 BRUNA MAIA MENEZES ESTAGIARIO PARA DE MINAS; PARA DE MINAS-PJ-02PJ 1.978,00 0,00 605,00 0,00 0,00 0,00 0,00 0,00 0,00 29/02/2024
845 415100 BRUNA MARIA SOARES OLIVEIRA COSTA RAMOS ANALISTA DO MP UBÁ - COMARCA; COORD REG BACIA DO RIO PARAIBA DO SUL 1.978,00 0,00 605,00 0,00 973,48 0,00 0,00 0,00 89,24 29/02/2024
846 1558200 BRUNA MAYRA TERRA ESTAGIARIO VESPASIANO; VESPASIANO-PJ-05PJ 0,00 0,00 0,00 198,00 0,00 0,00 0,00 0,00 0,00 29/02/2024
847 692900 BRUNA MENDES COELHO ASSESSOR PROCURADOR JUSTICA BELO HORIZONTE - COMARCA; GABINETE DE PROCURADOR DE JUSTIÇA - SALA 801 1.978,00 0,00 605,00 0,00 0,00 0,00 0,00 0,00 0,00 29/02/2024
848 1575000 BRUNA MENDES DOS SANTOS ESTAGIARIO MONTES CLAROS; COORD REG PJ DEF EDUC DIR CRIANCA ADOL NORTE 0,00 0,00 0,00 342,00 0,00 0,00 0,00 0,00 0,00 29/02/2024
849 470000 BRUNA MORAES ANALISTA DO MP TOMBOS - COMARCA; TOMBOS-PJ-UNPJ 1.978,00 0,00 605,00 0,00 6.194,82 0,00 0,00 0,00 0,00 29/02/2024
850 1681000 BRUNA MORAIS DE SOUZA ESTAGIARIO NOVA ERA; NOVA ERA-PJ-UNPJ 0,00 0,00 0,00 342,00 0,00 0,00 0,00 0,00 0,00 29/02/2024
851 709200 BRUNA NASCIMENTO ROCHA ESTAGIARIO BELO HORIZONTE; PROC. JUSTICA CRIMINAL 0,00 0,00 0,00 342,00 0,00 0,00 0,00 0,00 0,00 29/02/2024
852 614700 BRUNA NATTANY DE LIMA OFICIAL DO MP MANTENA - COMARCA; MANTENA-PJ-01PJ 1.978,00 1.146,58 605,00 0,00 2.312,06 0,00 0,00 0,00 0,00 29/02/2024
853 729800 BRUNA PAULA AMARAL CEOLIN ASSESSOR PROMOTOR JUSTICA COMARCA - JUATUBA; JUATUBA-PJ-UNPJ 1.978,00 0,00 605,00 0,00 3.524,36 0,00 0,00 0,00 323,07 29/02/2024
854 631800 BRUNA RAPOSO JORGE OFICIAL DO MP JUIZ DE FORA - COMARCA; JUIZ DE FORA-PJ-06PJ 1.978,00 1.146,58 605,00 0,00 2.312,06 0,00 0,00 0,00 0,00 29/02/2024
855 1690400 BRUNA SOUSA DE OLIVEIRA ESTAGIARIO CONCEICAO DO MATO DENTRO; CONCEICAO DO MATO DENTRO-PJ-UNPJ 0,00 0,00 0,00 324,00 0,00 0,00 0,00 0,00 0,00 29/02/2024
856 1524700 BRUNA STEHLING SCHIRMER ESTAGIARIO BELO HORIZONTE; PROC. JUSTICA DIR. DIFUSOS E COLETIVOS 0,00 0,00 0,00 0,00 493,33 0,00 0,00 0,00 0,00 29/02/2024
857 724700 BRUNA STEPHANIE TOLEDO FERNANDES ESTAGIARIO UBERLANDIA; UBERLANDIA-PJ-21PJ 0,00 0,00 0,00 342,00 0,00 0,00 0,00 0,00 0,00 29/02/2024
858 699300 BRUNA URSINE TIMO ASSESSOR PROCURADOR JUSTICA BELO HORIZONTE - COMARCA; PROC JUST ESP ACOES COMP ORIG CRIMINAL-GAB 1.978,00 0,00 605,00 0,00 0,00 0,00 0,00 0,00 0,00 29/02/2024
859 710300 BRUNA VANDERLEY FARIAS ESTAGIARIO BELO HORIZONTE; CAO-FUNDACOES 1.978,00 1.146,58 605,00 0,00 2.819,48 0,00 0,00 0,00 0,00 29/02/2024
860 225100 BRUNO ALEXANDER VIEIRA SOARES PROMOT.ENTRANC.ESPECIAL BELO HORIZONTE - COMARCA; BH-21PJ TUTELA FUNDACOES-GAB 135PJ 1.978,00 0,00 3.459,28 0,00 19.954,91 0,00 0,00 0,00 609,73 29/02/2024
861 463800 BRUNO ALVES TEIXEIRA ANALISTA DO MP UBERLÂNDIA - COMARCA; UBERLANDIA-PJ-04PJ 1.978,00 0,00 605,00 0,00 5.924,93 0,00 0,00 0,00 0,00 29/02/2024
862 538500 BRUNO AUGUSTO DA SILVA OFICIAL DO MP SANTA LUZIA - COMARCA; SANTA LUZIA-PJ-03PJ 1.978,00 0,00 605,00 0,00 0,00 0,00 0,00 0,00 0,00 29/02/2024
863 740300 BRUNO AUGUSTO PEREIRA ESTAGIARIO MATIAS BARBOSA; MATIAS BARBOSA-PJ-UNPJ 1.978,00 0,00 605,00 0,00 0,00 0,00 0,00 0,00 0,00 29/02/2024
864 318200 BRUNO BARROS DE SOUZA OFICIAL DO MP BELO HORIZONTE - COMARCA; DIRETORIA GESTAO CONTRATOS CONVENIOS 1.978,00 0,00 605,00 0,00 5.776,81 0,00 0,00 0,00 0,00 29/02/2024
865 737800 BRUNO BONFIM RIBEIRO ESTAGIARIO ARAGUARI; ARAGUARI-PJ-02PJ 1.978,00 0,00 1.785,76 0,00 0,00 0,00 0,00 0,00 0,00 29/02/2024
866 740100 BRUNO BRANDI LICHACOVSKI PROMOTOR SUBSTITUTO TURMALINA - COMARCA; TURMALINA-PJ-UNPJ 0,00 0,00 0,00 252,00 0,00 0,00 0,00 0,00 0,00 29/02/2024
867 459600 BRUNO CASTELAR LUGAO MENDES OFICIAL DO MP BELO HORIZONTE - COMARCA; PROC JUST ATUACAO TRIBUNAIS SUPERIORES 1.978,00 1.146,58 605,00 0,00 5.696,49 0,00 0,00 0,00 0,00 29/02/2024
868 361300 BRUNO CESAR MEDEIROS GIARDINI PROMOT.ENTRANC.ESPECIAL IPATINGA - COMARCA; IPATINGA-PJ-06PJ 1.978,00 0,00 3.111,56 0,00 18.865,91 0,00 0,00 0,00 576,46 29/02/2024
869 427400 BRUNO CESAR RIBEIRO DE PAIVA ANALISTA DO MP BELO HORIZONTE - COMARCA; DIRETORIA DO COLEGIO E DA CAMARA DE PJ 1.978,00 0,00 605,00 0,00 5.391,60 0,00 0,00 0,00 0,00 29/02/2024
870 1425600 BRUNO CEZAR SOARES ESTAGIARIO PEDRO LEOPOLDO; PEDRO LEOPOLDO-PJ-02PJ 0,00 0,00 0,00 342,00 0,00 0,00 0,00 0,00 0,00 29/02/2024
871 380900 BRUNO CIRILO ANTUNES OFICIAL DO MP VARGINHA - COMARCA; VARGINHA-PJ-05PJ 1.978,00 0,00 605,00 0,00 5.776,81 0,00 0,00 0,00 0,00 29/02/2024
872 666700 BRUNO DE CARVALHO VASCONCELOS PROMOTOR SUBSTITUTO CORINTO - COMARCA; CORINTO-PJ-UNPJ 1.978,00 1.146,58 2.381,02 0,00 17.026,47 0,00 0,00 0,00 520,25 29/02/2024
873 329000 BRUNO DE MELO REIS ANALISTA DO MP PATROCÍNIO - COMARCA; PATROCINIO-PJ-02PJ 1.978,00 2.293,16 605,00 0,00 5.167,75 0,00 0,00 0,00 0,00 29/02/2024
874 1437500 BRUNO EDUARDO DE ANDRADE GONZAGA ESTAGIARIO BELO HORIZONTE; PROC JUST ATUACAO TRIBUNAIS SUPERIORES-GAB001 0,00 0,00 0,00 306,00 0,00 0,00 0,00 0,00 0,00 29/02/2024
875 339700 BRUNO FERNANDO TORRES LANA PROMOT.ENTRANC.ESPECIAL UBÁ - COMARCA; UBA-PJ-05PJ 1.978,00 1.146,58 2.407,13 0,00 18.865,91 0,00 0,00 0,00 576,46 29/02/2024
876 697800 BRUNO GAZZOLA BEZERRA FALCAO ASSESSOR PROCURADOR JUSTICA BELO HORIZONTE - COMARCA; PROCURADOR-GERAL ADJUNTO JURIDICO- GABINETE 1.978,00 0,00 605,00 0,00 2.819,48 0,00 0,00 0,00 0,00 29/02/2024
877 744900 BRUNO GIORDANO MORAES ESTAGIARIO BELO HORIZONTE; BH-18PJ VIOLENCIA DOMESTICA-SECRETARIA 1.978,00 0,00 605,00 0,00 0,00 0,00 0,00 0,00 0,00 29/02/2024
878 360300 BRUNO GUERRA DE OLIVEIRA PROMOT.ENTRANC.ESPECIAL UBÁ - COMARCA; UBA-PJ-06PJ 1.978,00 0,00 2.055,39 0,00 18.865,91 0,00 0,00 0,00 576,46 29/02/2024
879 378300 BRUNO HERDY LOPES DE OLIVEIRA ANALISTA DO MP GOVERNADOR VALADARES - COMARCA; GOVERNADOR VALADARES-PJ-03PJ 1.978,00 0,00 605,00 0,00 5.338,75 0,00 0,00 0,00 0,00 29/02/2024
880 529700 BRUNO JOSE BUENO DIAS OFICIAL DO MP SÃO SEBASTIÃO DO PARAÍSO - COMARCA; SAO SEBASTIAO DO PARAISO-PJ-02PJ 1.978,00 0,00 605,00 0,00 2.882,57 0,00 0,00 0,00 264,24 29/02/2024
881 691600 BRUNO JOSE RIBEIRO ASSESSOR PROMOTOR JUSTICA CLÁUDIO - COMARCA; CLAUDIO-PJ-UNPJ 1.978,00 0,00 605,00 0,00 0,00 0,00 0,00 0,00 0,00 29/02/2024
882 350100 BRUNO LAUD SERRANO DOS REIS OFICIAL DO MP UBÁ - COMARCA; UBA-PJ-02PJ 1.978,00 0,00 605,00 0,00 6.221,18 0,00 0,00 0,00 0,00 29/02/2024
883 728900 BRUNO LIMA PITANGA ASSESSOR PROMOTOR JUSTICA BELO HORIZONTE - COMARCA; NUCLEO DA EXECUCAO PENAL 0,00 0,00 0,00 342,00 0,00 0,00 0,00 0,00 0,00 29/02/2024
884 745900 BRUNO LUIZ MARQUES ROCHA OFICIAL DO MP RIBEIRÃO DAS NEVES - COMARCA; RIBEIRAO NEVES-SEC PJ EXECUCAO PENAL 0,00 0,00 0,00 126,00 0,00 0,00 0,00 0,00 0,00 29/02/2024
885 530600 BRUNO MARQUES DE ALMEIDA ROSSI PROMOTOR 1A ENTRANCIA PRESIDENTE OLEGÁRIO - COMARCA; PRESIDENTE OLEGARIO-PJ-UNPJ 1.978,00 0,00 3.405,30 0,00 17.026,47 0,00 0,00 0,00 520,25 29/02/2024
886 373800 BRUNO MARTINO DE ALBUQUERQUE ANALISTA DO MP PONTE NOVA - COMARCA; PONTE NOVA-PJ-03PJ 1.978,00 0,00 605,00 0,00 5.338,75 0,00 0,00 0,00 0,00 29/02/2024
887 722500 BRUNO MARZOLA MURTA ESTAGIARIO BOCAIUVA; BOCAIUVA-PJ-02PJ 1.978,00 0,00 605,00 0,00 0,00 0,00 0,00 0,00 0,00 29/02/2024
888 732900 BRUNO NOGUEIRA GUIMARAES ASSESSOR ADMINISTRATIVO I BELO HORIZONTE - COMARCA; COORD DE INCLUSAO E MOBILIZACAO SOCIAIS 0,00 0,00 0,00 324,00 0,00 0,00 0,00 0,00 0,00 29/02/2024
889 470400 BRUNO NOVAIS CABRAL ANALISTA DO MP MUTUM - COMARCA; MUTUM-PJ-UNPJ 1.978,00 1.146,58 605,00 0,00 5.924,93 0,00 0,00 0,00 0,00 29/02/2024
890 457300 BRUNO OLIVEIRA MULLER PROMOT.ENTRANC.ESPECIAL ITABIRA - COMARCA; ITABIRA-PJ-04PJ 1.978,00 2.293,16 3.773,18 0,00 18.865,92 0,00 0,00 0,00 576,46 29/02/2024
891 648600 BRUNO RIBEIRO E MELO COORDENADOR I BELO HORIZONTE - COMARCA; DIR RELACOES INSTITUCIONAIS 1.978,00 0,00 605,00 0,00 5.928,90 0,00 0,00 0,00 1.625,80 29/02/2024
892 369200 BRUNO ROBERTO DIAS DE OLIVEIRA OFICIAL DO MP BELO HORIZONTE - COMARCA; BH-22PJ PES COM DEF E IDOSOS-SECRETARIA 1.978,00 0,00 605,00 0,00 5.776,81 0,00 0,00 0,00 0,00 29/02/2024
893 547700 BRUNO ROBERTO SOUZA GONCALVES ANALISTA DO MP PARACATU - COMARCA; PARACATU-PJ-03PJ 1.978,00 1.146,58 605,00 0,00 5.924,93 0,00 0,00 0,00 0,00 29/02/2024
894 546100 BRUNO SA VIEIRA ANALISTA DO MP BARBACENA - COMARCA; BARBACENA-PJ-SECRETARIA 1.978,00 1.146,58 605,00 0,00 0,00 0,00 0,00 0,00 0,00 29/02/2024
895 438200 BRUNO SALES PEREIRA ANALISTA DO MP BELO HORIZONTE - COMARCA; CENTRAL DE APOIO TECNICO-SETOR CONTABIL 1.978,00 0,00 605,00 0,00 5.899,83 0,00 0,00 0,00 540,82 29/02/2024
896 537400 BRUNO SANT'ANA CESAR ANALISTA DO MP BELO HORIZONTE - COMARCA; BH-12PJ JUIZO CRIMINAL-GAB 105PJ 1.978,00 0,00 605,00 0,00 5.924,93 0,00 0,00 0,00 0,00 29/02/2024
897 343500 BRUNO SCHIAVO CRUZ PROMOT.ENTRANC.ESPECIAL IPATINGA - COMARCA; GAECO REGIONAL DE IPATINGA 1.978,00 2.293,16 3.773,18 0,00 18.865,91 0,00 0,00 0,00 576,46 29/02/2024
898 684000 BRUNO TORRANO AMORIM DE ALMEIDA PROMOTOR 2A ENTRANCIA PARACATU - COMARCA; PARACATU-PJ-04PJ 1.978,00 1.146,58 3.584,52 0,00 17.922,60 0,00 0,00 0,00 547,64 29/02/2024
899 753600 BRUNO WELBHER MOTERANI DA COSTA ESTAGIARIO BELO HORIZONTE; EXTINTA - DIRETORIA SERVIÇOS GERAIS E TRANS 1.978,00 0,00 605,00 0,00 0,00 0,00 0,00 0,00 0,00 29/02/2024
900 720300 BRUNO YOGUI SHIMABUKURO PROMOTOR SUBSTITUTO ITABIRA - COMARCA; ITABIRA-PJ-03PJ 0,00 0,00 0,00 306,00 0,00 0,00 0,00 0,00 0,00 29/02/2024
901 727700 BYANKA DA SILVA MORAIS ASSESSOR PROCURADOR JUSTICA BELO HORIZONTE - COMARCA; GABINETE DE PROCURADOR DE JUSTIÇA - SALA 805 1.978,00 0,00 605,00 0,00 0,00 0,00 0,00 0,00 0,00 29/02/2024
902 655800 CAEL KALINOWSKI SOUZA MATTA INVESTIGADOR DE POLICIA 2 BELO HORIZONTE - COMARCA; NUCLEO DE INFORMACOES E INTELIGENCIA 1.978,00 0,00 0,00 0,00 0,00 0,00 0,00 0,00 0,00 29/02/2024
903 748100 CAETANO ALBERTO MARTINS BOTELHO ASSESSOR PROMOTOR JUSTICA COROMANDEL - COMARCA; COROMANDEL-PJ-02PJ 1.978,00 0,00 605,00 0,00 0,00 0,00 0,00 0,00 0,00 29/02/2024
904 1556000 CAINAN ANDRADE VALIM GARCIA ESTAGIARIO TRES CORACOES; TRES CORACOES-PJ-03PJ 0,00 0,00 0,00 270,00 666,67 0,00 0,00 0,00 0,00 29/02/2024
905 719000 CAIO AUGUSTO BOGUS PROMOTOR SUBSTITUTO RAUL SOARES - COMARCA; RAUL SOARES-PJ-UNPJ 1.978,00 0,00 892,88 0,00 17.026,47 0,00 0,00 0,00 520,25 29/02/2024
906 666900 CAIO CESAR ESPIRITO SANTO DO NASCIMENTO PROMOTOR 2A ENTRANCIA SALINAS - COMARCA; SALINAS-PJ-01PJ 1.978,00 0,00 3.576,05 0,00 17.922,61 0,00 0,00 0,00 547,64 29/02/2024
907 685600 CAIO CESAR FERREIRA PROMOTOR SUBSTITUTO IPATINGA - COMARCA; IPATINGA-PJ-08PJ 1.978,00 2.293,16 1.488,14 0,00 17.026,47 0,00 0,00 0,00 520,25 29/02/2024
908 719100 CAIO DEZONTINI BERNARDES PROMOTOR SUBSTITUTO CONCEIÇÃO DO MATO DENTRO - COMARCA; CONCEICAO DO MATO DENTRO-PJ-UNPJ 0,00 0,00 0,00 342,00 0,00 0,00 0,00 0,00 0,00 29/02/2024
909 1411800 CAIO EMANUEL FERNANDES GOUVEIA ESTAGIARIO MONTES CLAROS; MONTES CLAROS-PJ-15PJ 0,00 0,00 0,00 342,00 0,00 0,00 0,00 0,00 0,00 29/02/2024
910 724300 CAIO FELLIPH PEREIRA BREDER DE MELO ESTAGIARIO 0,00 0,00 0,00 342,00 0,00 0,00 0,00 0,00 0,00 29/02/2024
911 405800 CAIO FERNANDO RODRIGUES DE OLIVEIRA ANALISTA DO MP BELO HORIZONTE - COMARCA; ASSESSORIA JURIDICO-ADMINISTRATIVA 1.978,00 0,00 605,00 0,00 5.840,90 0,00 0,00 0,00 0,00 29/02/2024
912 530000 CAIO GUEDES DE OLIVEIRA ANALISTA DO MP DIAMANTINA - COMARCA; DIAMANTINA-PJ-02PJ 1.978,00 0,00 605,00 0,00 5.924,93 0,00 0,00 0,00 0,00 29/02/2024
913 1577900 CAIO LAGE OLIVEIRA ESTAGIARIO BELO HORIZONTE; CAO-CRIANCAS E ADOLESCENTES-SECRETARIA 0,00 0,00 0,00 324,00 0,00 0,00 0,00 0,00 0,00 29/02/2024
914 1551700 CAIO MARINI LIMA COSTA ESTAGIARIO BELO HORIZONTE; CENT ESTAD COOPERACAO TECNICO-JURIDICA
915 491400 CAIO MIRANDA JUNQUEIRA ANALISTA DO MP BELO HORIZONTE - COMARCA; CENT ESTAD COOPERACAO TECNICO-JURIDICA 1.978,00 0,00 605,00 0,00 5.924,93 0,00 0,00 0,00 543,12 29/02/2024
916 743500 CAIO MONTEIRO ESTAGIARIO BRUMADINHO; BRUMADINHO-PJ-01PJ 1.978,00 0,00 605,00 0,00 0,00 0,00 0,00 0,00 0,00 29/02/2024
917 668300 CAIO PALLU COSTA PROMOT.ENTRANC.ESPECIAL TEÓFILO OTONI - COMARCA; TEOFILO OTONI-PJ-02PJ 1.978,00 0,00 1.894,00 0,00 13.835,00 0,00 0,00 0,00 576,46 29/02/2024
918 1667800 CAIO VIEIRA ANDRADE ESTAGIARIO POCOS DE CALDAS; POCOS DE CALDAS-PJ-03PJ 0,00 0,00 0,00 324,00 0,00 0,00 0,00 0,00 0,00 29/02/2024
919 171000 CAIUS VINICIUS GONZAGA GOULART PROMOT.ENTRANC.ESPECIAL BELO HORIZONTE - COMARCA; BH-12PJ JUIZO CRIMINAL-GAB 106PJ 1.978,00 0,00 1.909,44 0,00 21.043,91 0,00 0,00 0,00 643,01 29/02/2024
920 727900 CALEBE JUNGER DE JESUS PEREIRA ESTAGIARIO BELO HORIZONTE; BH-23PJ DEF DIR CRIAN ADOL 1.978,00 0,00 0,00 0,00 0,00 0,00 0,00 0,00 0,00 29/02/2024
921 82300 CALIXTO OLIVEIRA SOUZA PROMOT.ENTRANC.ESPECIAL DIVINÓPOLIS - COMARCA; DIVINOPOLIS-PJ-01PJ 1.978,00 0,00 3.773,18 0,00 25.411,36 0,00 0,00 0,00 776,46 29/02/2024
922 415800 CAMILA ALVES DA SILVA ANALISTA DO MP CAETÉ - COMARCA; CAETE-PJ-01PJ 1.978,00 0,00 605,00 0,00 5.840,90 0,00 0,00 0,00 0,00 29/02/2024
923 684900 CAMILA APARECIDA PIRES PROMOTOR SUBSTITUTO CAETÉ - COMARCA; CAETE-PJ-01PJ 1.978,00 0,00 892,88 0,00 5.675,49 0,00 0,00 0,00 520,25 29/02/2024
924 1469500 CAMILA AZEVEDO BAHIA ESTAGIARIO JUIZ DE FORA; JUIZ DE FORA-PJ-10PJ 0,00 0,00 0,00 324,00 0,00 0,00 0,00 0,00 0,00 29/02/2024
925 555800 CAMILA CAROLINE ROCHA CHAVES OFICIAL DO MP SALINAS - COMARCA; SALINAS-PJ-01PJ 1.978,00 1.146,58 605,00 0,00 0,00 0,00 0,00 0,00 0,00 29/02/2024
926 747700 CAMILA CATIA VILELA VIANA ASSESSOR DE CAO BELO HORIZONTE - COMARCA; CAO-SAUDE-ASSESSORIA 1.978,00 0,00 605,00 0,00 0,00 0,00 0,00 0,00 0,00 29/02/2024
927 445200 CAMILA CONDE ROCHA ANALISTA DO MP CONTAGEM - COMARCA; CONTAGEM-PJ-21PJ 1.978,00 0,00 605,00 0,00 5.744,64 0,00 0,00 0,00 0,00 29/02/2024
928 720200 CAMILA COSTA GARRIDO TERRES PROMOTOR SUBSTITUTO BELO HORIZONTE - COMARCA; BH-16PJ HABITACAO URBANISMO-GAB 118PJ 0,00 0,00 0,00 342,00 0,00 0,00 0,00 0,00 0,00 29/02/2024
929 419900 CAMILA CUNNINGHAM PIMENTA DE PADUA ANALISTA DO MP BELO HORIZONTE - COMARCA; ASSESSORIA PSICOSSOCIAL 1.978,00 0,00 605,00 0,00 0,00 0,00 0,00 0,00 0,00 29/02/2024
930 703700 CAMILA D ANGELO DA SILVA ESTAGIARIO UNAI; UNAI-PJ-02PJ 0,00 0,00 0,00 306,00 0,00 0,00 0,00 0,00 0,00 29/02/2024
931 742700 CAMILA DA SILVA GONCALVES ANALISTA DO MP BELO HORIZONTE - COMARCA; DIV FISCAL ADM CONT TERCEIRIZACAO 0,00 0,00 0,00 180,00 0,00 0,00 0,00 0,00 0,00 29/02/2024
932 1676100 CAMILA DE CASTRO BORGES ESTAGIARIO UBERLANDIA; UBERLANDIA-PJ-18PJ 0,00 0,00 0,00 270,00 0,00 0,00 0,00 0,00 0,00 29/02/2024
933 714200 CAMILA DE SOUSA CUNHA ASSESSOR PROMOTOR JUSTICA PRADOS - COMARCA; PRADOS-PJ-UNPJ 0,00 0,00 0,00 342,00 0,00 0,00 0,00 0,00 0,00 29/02/2024
934 507700 CAMILA ELIZABETH RODRIGUES ANALISTA DO MP BELO HORIZONTE - COMARCA; BH-02PJ FAMILIA-SECRETARIA 1.978,00 0,00 605,00 0,00 5.190,19 0,00 0,00 0,00 0,00 29/02/2024
935 1663600 CAMILA FERREIRA DA SILVA PEREIRA ESTAGIARIO SETE LAGOAS; SETE LAGOAS-PJ-02PJ 0,00 0,00 0,00 342,00 0,00 0,00 0,00 0,00 0,00 29/02/2024
936 372700 CAMILA FONSECA LIMONGE ANALISTA DO MP BETIM - COMARCA; BETIM-PJ-01PJ 1.978,00 0,00 605,00 0,00 5.338,75 0,00 0,00 0,00 0,00 29/02/2024
937 1672400 CAMILA FRANCA LACERDA ESTAGIARIO DIAMANTINA; DIAMANTINA-PJ-COORD PJ 0,00 0,00 0,00 342,00 0,00 0,00 0,00 0,00 0,00 29/02/2024
938 621300 CAMILA GOLFETO DE SOUSA VALENTE OFICIAL DO MP CARANGOLA - COMARCA; CARANGOLA-PJ-SECRETARIA 1.978,00 1.719,87 605,00 0,00 2.312,06 0,00 0,00 0,00 0,00 29/02/2024
939 409800 CAMILA GONCALVES COSTA RIBEIRO ANALISTA DO MP IPATINGA - COMARCA; GAECO REGIONAL DE IPATINGA 1.978,00 1.146,58 605,00 0,00 5.776,81 0,00 0,00 0,00 0,00 29/02/2024
940 335000 CAMILA GONTIJO DE PAIVA ANALISTA DO MP BELO HORIZONTE - COMARCA; COORD DE CONTROLE CONSTITUCIONALIDADE 1.978,00 0,00 605,00 0,00 5.998,28 0,00 0,00 0,00 0,00 29/02/2024
941 693400 CAMILA HECKSHER MONTEIRO ASSESSOR PROCURADOR JUSTICA BELO HORIZONTE - COMARCA; GABINETE DE PROCURADOR DE JUSTIÇA - SALA 613 1.978,00 0,00 605,00 0,00 0,00 0,00 0,00 0,00 0,00 29/02/2024
942 696000 CAMILA IMACULADA OLIVEIRA ASSESSOR PROCURADOR JUSTICA BELO HORIZONTE - COMARCA; GABINETE DE PROCURADOR DE JUSTICA - SALA 312 1.978,00 0,00 605,00 0,00 2.819,48 0,00 0,00 0,00 0,00 29/02/2024
943 1486600 CAMILA KELLEN SILVA ALMONDES ESTAGIARIO MANTENA; MANTENA-PJ-03PJ 0,00 0,00 0,00 306,00 0,00 0,00 0,00 0,00 0,00 29/02/2024
944 1456800 CAMILA LOBO SILVA ESTAGIARIO CONGONHAS; CONGONHAS-PJ-01PJ 0,00 0,00 0,00 342,00 0,00 0,00 0,00 0,00 0,00 29/02/2024
945 1478300 CAMILA MARIA DE OLIVEIRA ESTAGIARIO CARATINGA; CARATINGA-PJ-04PJ 0,00 0,00 0,00 342,00 0,00 0,00 0,00 0,00 0,00 29/02/2024
946 547800 CAMILA MATTARELLI DE ABREU E SILVA ANALISTA DO MP BELO HORIZONTE - COMARCA; CAO-VIOLENCIA DOMESTICA E FAMILIAR 1.978,00 0,00 605,00 0,00 0,00 0,00 0,00 0,00 0,00 29/02/2024
947 735800 CAMILA REGINA DE OLIVEIRA ASSESSOR ADMINISTRATIVO II BELO HORIZONTE - COMARCA; CENTRO AUTOCOMPOSICAO DE CONFLITOS 0,00 0,00 0,00 306,00 0,00 0,00 0,00 0,00 0,00 29/02/2024
948 752700 CAMILA RODRIGUES MAURO ASSESSOR PROMOTOR JUSTICA CONTAGEM - COMARCA; CONTAGEM-PJ-22PJ 0,00 0,00 0,00 36,00 0,00 0,00 0,00 0,00 0,00 29/02/2024
949 1679300 CAMILA TEIXEIRA COSTA ALPINO ESTAGIARIO UBA; UBA-PJ-06PJ 0,00 0,00 0,00 342,00 0,00 0,00 0,00 0,00 0,00 29/02/2024
950 758300 CAMILA VENANCIO DIAS ASSESSOR PROCURADOR JUSTICA BELO HORIZONTE - COMARCA; PROC. JUSTICA DIR. DIFUSOS E COLETIVOS-SEC 1.978,00 0,00 605,00 0,00 0,00 0,00 0,00 0,00 0,00 29/02/2024
951 1635500 CAMILA VIEIRA DE CARVALHO ESTAGIARIO BELO HORIZONTE; DIR CRIACAO E MIDIAS 0,00 0,00 0,00 324,00 0,00 0,00 0,00 0,00 0,00 29/02/2024
952 725700 CAMILA VIEIRA DOS SANTOS ESTAGIARIO JUIZ DE FORA; JUIZ DE FORA-PJ-21PJ 0,00 0,00 0,00 342,00 0,00 0,00 0,00 0,00 0,00 29/02/2024
953 1508000 CAMILA VIEIRA FREITAS ESTAGIARIO VARGINHA; COORD REG PP SUDOESTE MINAS GERAIS VARGINHA 0,00 0,00 0,00 324,00 0,00 0,00 0,00 0,00 0,00 29/02/2024
954 1409900 CAMILLE DE CARVALHO COELHO ESTAGIARIO GUANHAES; GUANHAES-PJ-02PJ 0,00 0,00 0,00 306,00 0,00 0,00 0,00 0,00 0,00 29/02/2024
955 430000 CANDIDA MARINA COSTA ANALISTA DO MP BELO HORIZONTE - COMARCA; DIRET DE INFORMACAO E CONHECIMENTO-DINC/CEAF 1.978,00 0,00 605,00 0,00 0,00 0,00 0,00 0,00 0,00 29/02/2024
956 614300 CARINA CORTIELHA OFICIAL DO MP BELO HORIZONTE - COMARCA; BH-23PJ CIVEL-FISC AC POL PUB I 1.978,00 0,00 605,00 0,00 2.312,06 0,00 0,00 0,00 0,00 29/02/2024
957 380400 CARINA DIAS FACANHA DE SOUZA ANALISTA DO MP SANTA RITA DO SAPUCAÍ - COMARCA; SANTA RITA DO SAPUCAI-PJ-01PJ 1.978,00 1.146,58 605,00 0,00 5.338,75 0,00 0,00 0,00 0,00 29/02/2024
958 255000 CARLA ADRIANA DE MENEZES OFICIAL DO MP BELO HORIZONTE - COMARCA; CENT DE APOIO TEC-SETOR DEF,IDOSO E INFANC 1.978,00 0,00 605,00 0,00 6.221,18 0,00 0,00 0,00 0,00 29/02/2024
959 425100 CARLA ADRIANA DINIZ AMARAL OFICIAL DO MP CONTAGEM - COMARCA; CONTAGEM-PJ-SECRETARIA 1.978,00 0,00 605,00 0,00 5.965,51 0,00 0,00 0,00 0,00 29/02/2024
960 508100 CARLA ALESSANDRA FONSECA ANALISTA DO MP BELO HORIZONTE - COMARCA; CAO-ORDEM ECONOMICA E TRIBUTARIA-SECRETARIA 1.978,00 0,00 605,00 0,00 5.924,93 0,00 0,00 0,00 0,00 29/02/2024
961 607100 CARLA ANGELICA DIAS MIRANDA OFICIAL DO MP SANTA LUZIA - COMARCA; SANTA LUZIA-PJ-SECRETARIA 1.978,00 0,00 605,00 0,00 0,00 0,00 0,00 0,00 0,00 29/02/2024
962 351500 CARLA APARECIDA MENDES RAMIRIO OFICIAL DO MP PASSOS - COMARCA; PASSOS-PJ-01PJ 1.978,00 0,00 605,00 0,00 0,00 0,00 0,00 0,00 0,00 29/02/2024
963 752600 CARLA CHRISTIAN DE LIMA OFICIAL DO MP MARTINHO CAMPOS - COMARCA; MARTINHO CAMPOS-PJ-UNPJ 1.978,00 0,00 605,00 0,00 0,00 0,00 0,00 0,00 0,00 29/02/2024
964 1636600 CARLA CRISTINA OLIVEIRA DE SOUSA ESTAGIARIO PITANGUI; PITANGUI-PJ-02PJ 0,00 0,00 0,00 324,00 0,00 0,00 0,00 0,00 0,00 29/02/2024
965 713100 CARLA DOS SANTOS SOUZA ASSESSOR PROMOTOR JUSTICA ESPERA FELIZ - COMARCA; ESPERA FELIZ-PJ-UNPJ 0,00 0,00 0,00 342,00 0,00 0,00 0,00 0,00 0,00 29/02/2024
966 1498400 CARLA EDUARDA DA SILVA MONCAO ESTAGIARIO MONTES CLAROS; MONTES CLAROS-PJ-17PJ 0,00 0,00 0,00 342,00 0,00 0,00 0,00 0,00 0,00 29/02/2024
967 741300 CARLA FEITOSA DE PAULA DIAS PROMOTOR SUBSTITUTO ARINOS - COMARCA; ARINOS-PJ-UNPJ 0,00 0,00 0,00 180,00 0,00 0,00 0,00 0,00 0,00 29/02/2024
968 442800 CARLA GONCALVES COSTA SOALHEIRO ANALISTA DO MP GOVERNADOR VALADARES - COMARCA; GOVERNADOR VALADARES-PJ-11PJ 1.978,00 1.146,58 605,00 0,00 5.870,43 0,00 0,00 0,00 0,00 29/02/2024
969 321500 CARLA GONCALVES MASSOTE OFICIAL DO MP CAMPO BELO - COMARCA; CAMPO BELO-PJ-02PJ 1.978,00 0,00 605,00 0,00 5.776,81 0,00 0,00 0,00 0,00 29/02/2024
970 429200 CARLA HAUTEQUESTT BECHARA ANALISTA DO MP BELO HORIZONTE - COMARCA; DIRETORIA DE INTELIGENCIA 1.978,00 0,00 605,00 0,00 5.391,60 0,00 0,00 0,00 0,00 29/02/2024
971 157400 CARLA MARIA ALESSI LAFETA DE CARVALHO PROCURADOR DE JUSTICA BELO HORIZONTE - COMARCA; GABINETE DE PROCURADOR DE JUSTIÇA - SALA 513 1.978,00 0,00 3.111,57 0,00 0,00 0,00 0,00 0,00 0,00 29/02/2024
972 1594000 CARLA MARTINS SOUZA ESTAGIARIO CONTAGEM; CONTAGEM-PJ-12PJ 0,00 0,00 0,00 342,00 0,00 0,00 0,00 0,00 0,00 29/02/2024
973 247500 CARLA MATILDE GUIMARAES DE OLIVEIRA OFICIAL DO MP ITAJUBA - COMARCA; ITAJUBA-PJ-SECRETARIA 1.978,00 0,00 605,00 0,00 0,00 0,00 0,00 0,00 0,00 29/02/2024
974 226100 CARLA MERLI DA CONCEICAO ANALISTA DO MP BELO HORIZONTE - COMARCA; CENTRAL DE APOIO TECNICO-SETOR CONTABIL 1.978,00 0,00 605,00 0,00 0,00 0,00 0,00 0,00 0,00 29/02/2024
975 685700 CARLA PRISCILLA PEREIRA VIANA PROMOTOR 2A ENTRANCIA ABRE CAMPO - COMARCA; ABRE CAMPO-PJ-01PJ 1.978,00 0,00 925,40 0,00 18.770,74 0,00 0,00 0,00 630,10 29/02/2024
976 343100 CARLA REGINA GOULART SALARO DUVANEL PROMOT.ENTRANC.ESPECIAL GOVERNADOR VALADARES - COMARCA; GOVERNADOR VALADARES-PJ-06PJ 1.978,00 0,00 3.047,32 0,00 18.865,91 0,00 0,00 0,00 576,46 29/02/2024
977 1402100 CARLA ROBERTA MONTEIRO NASCIMENTO ESTAGIARIO BELO HORIZONTE; BH-13PJ JUIZO DE TOXICOS-COORD PJ 0,00 0,00 0,00 234,00 0,00 0,00 0,00 0,00 0,00 29/02/2024
978 532600 CARLA RODRIGUES FAZUOLI PROMOTOR 2A ENTRANCIA SACRAMENTO - COMARCA; SACRAMENTO-PJ-02PJ 1.978,00 0,00 3.584,52 0,00 0,00 0,00 0,00 0,00 0,00 29/02/2024
979 181401 CARLO MICHEL GAUDENSI COELHO ANALISTA DO MP BELO HORIZONTE - COMARCA; BH-08PJ JUIZADO ESPECIAL-GAB 013PJ 1.978,00 0,00 605,00 0,00 6.091,94 0,00 0,00 0,00 0,00 29/02/2024
980 634000 CARLOS ALBERTO AMORMINO TRIGUEIRO ANALISTA DO MP BELO HORIZONTE - COMARCA; DIRET DE APOIO AS PROCURADORIAS DE JUSTICA 1.978,00 1.146,58 605,00 0,00 0,00 0,00 0,00 0,00 0,00 29/02/2024
981 232300 CARLOS ALBERTO DA SILVEIRA ISOLDI FILHO PROMOT.ENTRANC.ESPECIAL BELO HORIZONTE - COMARCA; BH-09PJ AUDITORIA MILITAR-GAB 072PJ 1.978,00 0,00 3.773,18 0,00 21.043,91 0,00 0,00 0,00 643,01 29/02/2024
982 637900 CARLOS ALBERTO DE MOURA OFICIAL DO MP SETE LAGOAS - COMARCA; SETE LAGOAS-PJ-07PJ 1.978,00 0,00 605,00 0,00 0,00 0,00 0,00 0,00 0,00 29/02/2024
983 638700 CARLOS ALBERTO FERREIRA BRAGA ANALISTA DO MP VESPASIANO - COMARCA; VESPASIANO-PJ-06PJ 1.978,00 0,00 605,00 0,00 6.112,95 0,00 0,00 0,00 0,00 29/02/2024
984 54400 CARLOS ALBERTO RIBEIRO MOREIRA PROMOTOR 2A ENTRANCIA LAVRAS - COMARCA; LAVRAS-PJ-02PJ 1.978,00 0,00 3.246,86 0,00 25.411,36 0,00 0,00 0,00 776,46 29/02/2024
985 375801 CARLOS ALBERTO ROCHA ANALISTA DO MP VARGINHA - COMARCA; GAECO REGIONAL DE VARGINHA 1.978,00 2.293,16 605,00 0,00 5.776,81 0,00 0,00 0,00 0,00 29/02/2024
986 110700 CARLOS ALBERTO VALERA PROMOT.ENTRANC.ESPECIAL UBERABA - COMARCA; UBERABA-PJ-08PJ 1.978,00 0,00 2.191,94 0,00 25.411,36 0,00 0,00 0,00 776,46 29/02/2024
987 94200 CARLOS ANDRE MARIANI BITTENCOURT PROCURADOR DE JUSTICA BELO HORIZONTE - COMARCA; PROCURADORIA-GERAL ADJUNTA INSTITUCIONAL 1.978,00 0,00 3.971,77 0,00 16.940,91 0,00 0,00 0,00 0,00 29/02/2024
988 462800 CARLOS ANDREI SOARES FAGUNDES ANALISTA DO MP MONTES CLAROS - COMARCA; MONTES CLAROS-PJ-09PJ 1.978,00 0,00 605,00 0,00 5.924,93 0,00 0,00 0,00 0,00 29/02/2024
989 1678000 CARLOS ANTONIO NASCIMENTO CARVALHO ESTAGIARIO MANGA; MANGA-PJ-01PJ
990 370300 CARLOS AUGUSTO BUENO DIAS ASSESSOR ADMINISTRATIVO IV BELO HORIZONTE - COMARCA; DIRETORIA DE FISCALIZACAO DE OBRAS 1.978,00 0,00 605,00 0,00 0,00 0,00 0,00 0,00 0,00 29/02/2024
991 66200 CARLOS AUGUSTO CANEDO GONCALVES DA SILVA PROCURADOR DE JUSTICA BELO HORIZONTE - COMARCA; GABINETE DE PROCURADOR DE JUSTIÇA - SALA 911 1.978,00 0,00 3.971,77 0,00 0,00 0,00 0,00 0,00 0,00 29/02/2024
992 83200 CARLOS AUGUSTO ESTEVES DE CARVALHO PROMOT.ENTRANC.ESPECIAL JUIZ DE FORA - COMARCA; JUIZ DE FORA-PJ-16PJ 1.978,00 0,00 2.976,28 0,00 8.470,45 0,00 0,00 0,00 776,46 29/02/2024
993 143500 CARLOS AUGUSTO GOMES BRAGA PROMOT.ENTRANC.ESPECIAL BELO HORIZONTE - COMARCA; BH-03PJ EMPRESARIAL-GAB 036PJ 1.978,00 0,00 3.773,18 0,00 22.004,25 0,00 0,00 0,00 672,35 29/02/2024
994 110800 CARLOS CESAR MARQUES LUZ PROMOTOR 1A ENTRANCIA JACUTINGA - COMARCA; JACUTINGA-PJ-UNPJ 1.978,00 0,00 876,62 0,00 24.197,42 0,00 0,00 0,00 739,37 29/02/2024
995 505100 CARLOS CEZAR CARVALHO ANALISTA DO MP CONTAGEM - COMARCA; CONTAGEM-PJ-02PJ 1.978,00 0,00 605,00 0,00 5.924,93 0,00 0,00 0,00 0,00 29/02/2024
996 344300 CARLOS EDUARDO AVANZI DE ALMEIDA PROMOTOR 2A ENTRANCIA CAMPO BELO - COMARCA; CAMPO BELO-PJ-03PJ 1.978,00 0,00 3.584,52 0,00 17.922,61 0,00 0,00 0,00 547,64 29/02/2024
997 196800 CARLOS EDUARDO DE OLIVEIRA MARINHO OFICIAL DO MP ALPINÓPOLIS - COMARCA; ALPINOPOLIS-PJ-UNPJ 1.978,00 0,00 605,00 0,00 6.036,14 0,00 0,00 0,00 0,00 29/02/2024
998 1485700 CARLOS EDUARDO DOS SANTOS WALTER ESTAGIARIO BETIM; BETIM-PJ-09PJ 0,00 0,00 0,00 342,00 0,00 0,00 0,00 0,00 0,00 29/02/2024
999 157500 CARLOS EDUARDO DUTRA PIRES PROMOT.ENTRANC.ESPECIAL SETE LAGOAS - COMARCA; SETE LAGOAS-PJ-02PJ 1.978,00 0,00 2.705,71 0,00 25.411,36 0,00 0,00 0,00 776,46 29/02/2024
1000 483200 CARLOS EDUARDO FERNANDES NEVES RIBEIRO PROMOT.ENTRANC.ESPECIAL BARBACENA - COMARCA; BARBACENA-PJ-08PJ 1.978,00 1.146,58 3.773,18 0,00 18.865,91 0,00 0,00 0,00 576,46 29/02/2024
1001 315400 CARLOS EDUARDO FERREIRA PINTO PROMOT.ENTRANC.ESPECIAL BELO HORIZONTE - COMARCA; CAO-MEIO AMBIENTE 1.978,00 1.146,58 2.922,17 0,00 18.865,91 0,00 0,00 0,00 576,46 29/02/2024
1002 1549300 CARLOS EDUARDO LACERDA LOPES ESTAGIARIO NOVA SERRANA; NOVA SERRANA-PJ-01PJ 0,00 0,00 0,00 342,00 0,00 0,00 0,00 0,00 0,00 29/02/2024
1003 55300 CARLOS EDUARDO MAFRA CAVALCANTI PROCURADOR DE JUSTICA BELO HORIZONTE - COMARCA; GABINETE DE PROCURADOR DE JUSTIÇA - SALA 503 1.978,00 0,00 3.246,86 0,00 0,00 0,00 0,00 0,00 0,00 29/02/2024
1004 1666700 CARLOS EDUARDO MAGRI DA SILVA ESTAGIARIO BARBACENA; BARBACENA-PJ-07PJ 0,00 0,00 0,00 342,00 0,00 0,00 0,00 0,00 0,00 29/02/2024
1005 650800 CARLOS EDUARDO NIZA DA SILVA OFICIAL DO MP IGARAPÉ - COMARCA; IGARAPE-PJ-01PJ 1.978,00 1.146,58 605,00 0,00 1.919,30 0,00 0,00 0,00 175,94 29/02/2024
1006 491800 CARLOS EDUARDO ROMAN OFICIAL DO MP BARBACENA - COMARCA; BARBACENA-PJ-09PJ 1.978,00 0,00 605,00 0,00 0,00 0,00 0,00 0,00 0,00 29/02/2024
1007 1684500 CARLOS EDUARDO SANTOS DIAS ESTAGIARIO ALMENARA; ALMENARA-PJ-01PJ 0,00 0,00 0,00 306,00 0,00 0,00 0,00 0,00 0,00 29/02/2024
1008 157600 CARLOS EUGENIO SOUTO MAIOR FILIZOLA JUNIOR PROMOT.ENTRANC.ESPECIAL BELO HORIZONTE - COMARCA; BH-07PJ 03 TRIBUNAL DO JURI-GAB 061PJ 1.978,00 0,00 3.595,61 0,00 8.397,03 0,00 0,00 0,00 0,00 29/02/2024
1009 299300 CARLOS HENRIQUE BICALHO ANALISTA DO MP BELO HORIZONTE - COMARCA; BH-17PJ PATRIMONIO PUBLICO-SECRETARIA 1.978,00 1.146,58 605,00 0,00 5.536,88 0,00 0,00 0,00 507,55 29/02/2024
1010 351600 CARLOS HENRIQUE FELICIO DA FONSECA OFICIAL DO MP JUIZ DE FORA - COMARCA; JUIZ DE FORA-PJ-21PJ 1.978,00 0,00 605,00 0,00 6.221,18 0,00 0,00 0,00 0,00 29/02/2024
1011 1598200 CARLOS HENRIQUE GOULART DIAS ESTAGIARIO VARGINHA; VARGINHA-PJ-02PJ 0,00 0,00 0,00 342,00 0,00 0,00 0,00 0,00 0,00 29/02/2024
1012 1648800 CARLOS HENRIQUE MARTINS ALCANTARA ESTAGIARIO CONSELHEIRO LAFAIETE; CONSELHEIRO LAFAIETE-PJ-03PJ 0,00 0,00 0,00 342,00 0,00 0,00 0,00 0,00 0,00 29/02/2024
1013 1473800 CARLOS HENRIQUE PEREIRA DA SILVA ESTAGIARIO CARATINGA; CARATINGA-PJ-06PJ
1014 729100 CARLOS HENRIQUE TEIXEIRA BRAGA ASSESSOR ADMINISTRATIVO II BELO HORIZONTE - COMARCA; DIRETORIA DE SUPORTE E MANUTENCAO 1.978,00 0,00 605,00 0,00 0,00 0,00 0,00 0,00 0,00 29/02/2024
1015 210900 CARLOS HENRIQUE TORRES DE SOUZA PROMOT.ENTRANC.ESPECIAL BELO HORIZONTE - COMARCA; BH-06PJ JUIZO CIVEL-GAB 055PJ 1.978,00 0,00 3.773,18 0,00 21.043,92 0,00 0,00 0,00 643,01 29/02/2024
1016 104600 CARLOS JOSE E SILVA FORTES PROMOT.ENTRANC.ESPECIAL DIVINÓPOLIS - COMARCA; DIVINOPOLIS-PJ-06PJ 1.978,00 0,00 3.273,91 0,00 21.814,37 0,00 0,00 0,00 666,55 29/02/2024
1017 85400 CARLOS JOSE VIEIRA OFICIAL DO MP BELO HORIZONTE - COMARCA; DIRETORIA DO COLEGIO E DA CAMARA DE PJ 1.978,00 0,00 605,00 0,00 5.501,44 0,00 0,00 0,00 0,00 29/02/2024
1018 735700 CARLOS MAGNO DE SOUSA VILACA MAJOR BELO HORIZONTE - COMARCA; GAECO - SETOR POLICIAL MILITAR 0,00 0,00 0,00 342,00 0,00 0,00 0,00 0,00 0,00 29/02/2024
1019 229100 CARLOS MERCES DE OLIVEIRA ANALISTA DO MP BELO HORIZONTE - COMARCA; CENTRAL DE APOIO TECN-SETOR DE MEIO AMBIENTE 1.978,00 0,00 605,00 0,00 0,00 0,00 0,00 0,00 0,00 29/02/2024
1020 538300 CARLOS RANGEL SILVA DE MELO ANALISTA DO MP BELO HORIZONTE - COMARCA; DIVISAO DE CONTROLE IMOBILIARIO 1.978,00 2.293,16 605,00 0,00 0,00 0,00 0,00 0,00 0,00 29/02/2024
1021 265100 CARLOS REIFF MIRANDA ANALISTA DO MP BELO HORIZONTE - COMARCA; BH-19PJ SAUDE-SECRETARIA 150PJ 1.978,00 0,00 605,00 0,00 0,00 0,00 0,00 0,00 0,00 29/02/2024
1022 1685800 CARLOS ROBERTO VITOR JUNIOR ESTAGIARIO BELO HORIZONTE; CAO-CRIANCAS E ADOLESCENTES-SECRETARIA 0,00 0,00 0,00 72,00 0,00 0,00 0,00 0,00 0,00 29/02/2024
1023 305400 CARLOS ROCHA DE SOUZA OFICIAL DO MP MONTALVÂNIA - COMARCA; MONTALVANIA-PJ-SECRETARIA 1.978,00 0,00 605,00 0,00 0,00 263,69 0,00 0,00 0,00 29/02/2024
1024 371600 CARLOS SAMUEL BORGES CUNHA PROMOT.ENTRANC.ESPECIAL BARBACENA - COMARCA; BARBACENA-PJ-07PJ 1.978,00 1.146,58 2.570,42 0,00 18.865,91 0,00 0,00 0,00 576,46 29/02/2024
1025 744500 CARLOS THIAGO COSTA FIGUEREDO OFICIAL DO MP PARAOPEBA - COMARCA; PARAOPEBA-PJ-UNPJ 0,00 0,00 0,00 144,00 0,00 0,00 0,00 0,00 0,00 29/02/2024
1026 1436300 CARLOS VINICIUS JOTA COSTA ESTAGIARIO BELO HORIZONTE; GABINETE DE PROCURADOR DE JUSTIÇA - SALA 912 0,00 0,00 0,00 18,00 0,00 0,00 0,00 0,00 0,00 29/02/2024
1027 293400 CARLOS WILDE RIBEIRO DE MELLO PROMOT.ENTRANC.ESPECIAL JUIZ DE FORA - COMARCA; JUIZ DE FORA-PJ-26PJ 1.978,00 0,00 3.355,08 0,00 6.288,64 0,00 0,00 0,00 576,46 29/02/2024
1028 399900 CARMELITA EVANGELISTA DE SOUZA OFICIAL DO MP JOÃO PINHEIRO - COMARCA; JOAO PINHEIRO-PJ-01PJ 1.978,00 0,00 605,00 0,00 5.920,22 0,00 0,00 0,00 0,00 29/02/2024
1029 202000 CARMEN LUCIA MARIZ DE MACEDO OFICIAL DO MP BELO HORIZONTE - COMARCA; DIRETORIA GESTAO COMPRAS LICITACOES 1.978,00 0,00 605,00 0,00 5.476,60 0,00 0,00 0,00 0,00 29/02/2024
1030 1581200 CAROLAINE CORREA DA SILVA ESTAGIARIO SAO JOAO NEPOMUCENO; SAO JOAO NEPOMUCENO-PJ-02PJ 0,00 0,00 0,00 324,00 0,00 0,00 0,00 0,00 0,00 29/02/2024
1031 733400 CAROLAINE GAIONE COSTA ESTAGIARIO JUATUBA; AIMORES-PJ-UNPJ 1.978,00 0,00 605,00 0,00 0,00 0,00 0,00 0,00 0,00 29/02/2024
1032 1654500 CAROLANE PEIXOTO DE SOUZA ESTAGIARIO JOAO MONLEVADE; JOAO MONLEVADE-PJ-03PJ 0,00 0,00 0,00 252,00 0,00 0,00 0,00 0,00 0,00 29/02/2024
1033 1633100 CAROLINA ALVES CASTELO BRANCO ESTAGIARIO POMPEU; POMPEU-PJ-UNPJ 0,00 0,00 0,00 342,00 0,00 0,00 0,00 0,00 0,00 29/02/2024
1034 1462200 CAROLINA AMANDA DA SILVA ESTAGIARIO BAEPENDI; BAEPENDI-PJ-UNPJ 0,00 0,00 0,00 342,00 0,00 0,00 0,00 0,00 0,00 29/02/2024
1035 359700 CAROLINA ANDRADE BORGES DE MATTOS PROMOTOR SUBSTITUTO BICAS - COMARCA; BICAS-PJ-UNPJ 1.978,00 0,00 2.922,17 0,00 17.026,47 0,00 0,00 0,00 520,25 29/02/2024
1036 720100 CAROLINA AQUINO DE SOUSA NUNES ESTAGIARIO RIBEIRAO DAS NEVES; RIBEIRAO DAS NEVES-PJ-04PJ 0,00 0,00 0,00 198,00 0,00 0,00 0,00 0,00 0,00 29/02/2024
1037 1404300 CAROLINA BARBOSA GUEDES ESTAGIARIO UBERLANDIA; UBERLANDIA-PJ-05PJ 0,00 0,00 0,00 288,00 250,00 0,00 0,00 0,00 0,00 29/02/2024
1038 1403600 CAROLINA BEDESCHI CALAIS ESTAGIARIO BELO HORIZONTE; GABINETE DE PROCURADOR DE JUSTIÇA - SALA 707 0,00 0,00 0,00 54,00 185,00 0,00 0,00 0,00 0,00 29/02/2024
1039 1582400 CAROLINA CAETANO OLIVEIRA ESTAGIARIO TEOFILO OTONI; TEOFILO OTONI-PJ-04PJ 0,00 0,00 0,00 288,00 0,00 0,00 0,00 0,00 0,00 29/02/2024
1040 701900 CAROLINA CARVALHO COSTA ASSESSOR PROCURADOR JUSTICA BELO HORIZONTE - COMARCA; GABINETE DE PROCURADOR DE JUSTIÇA - SALA 811 0,00 0,00 0,00 306,00 0,00 0,00 0,00 0,00 0,00 29/02/2024
1041 611000 CAROLINA CERIGATTO PROMOT.ENTRANC.ESPECIAL GOVERNADOR VALADARES - COMARCA; GOVERNADOR VALADARES-PJ-11PJ 1.978,00 0,00 0,00 0,00 18.865,91 0,00 0,00 0,00 576,46 29/02/2024
1042 228500 CAROLINA CHIARELLA DOS SANTOS RIBEIRO COORDENADOR I BELO HORIZONTE - COMARCA; DIVISAO DE SERVICOS 1.978,00 0,00 605,00 0,00 3.689,09 0,00 0,00 0,00 0,00 29/02/2024
1043 446500 CAROLINA COSTA VAL RODRIGUES ANALISTA DO MP BELO HORIZONTE - COMARCA; DIVISAO DE MATERIAIS 1.978,00 0,00 605,00 0,00 5.702,15 0,00 0,00 0,00 522,70 29/02/2024
1044 751500 CAROLINA DA MATTA AMBROSIO OFICIAL DO MP MANHUMIRIM - COMARCA; MANHUMIRIM-PJ-02PJ 0,00 0,00 0,00 36,00 0,00 0,00 0,00 0,00 0,00 29/02/2024
1045 1688000 CAROLINA DE CAMARGOS PEREIRA BARCELLOS ESTAGIARIO BELO HORIZONTE; BH-09PJ AUDITORIA MILITAR-GAB 161PJ 0,00 0,00 0,00 342,00 0,00 0,00 0,00 0,00 0,00 29/02/2024
1046 603501 CAROLINA DOMINGOS BRANDAO RABELLO ANALISTA DO MP BARROSO - COMARCA; BARROSO-PJ-01PJ 1.978,00 2.293,16 605,00 0,00 0,00 0,00 0,00 0,00 0,00 29/02/2024
1047 1613600 CAROLINA DORNELAS DE MELO ESTAGIARIO BELO HORIZONTE; PROC. JUSTICA DIR. DIFUSOS E COLETIVOS-SEC 0,00 0,00 0,00 72,00 0,00 0,00 0,00 0,00 0,00 29/02/2024
1048 404300 CAROLINA DOS SANTOS VIEIRA ANALISTA DO MP BELO HORIZONTE - COMARCA; BH-08PJ JUIZADO ESPECIAL-SECRETARIA 1.978,00 0,00 605,00 0,00 5.338,75 0,00 0,00 0,00 489,39 29/02/2024
1049 1654400 CAROLINA ESPERANCINI COLMANETTI ESTAGIARIO GOVERNADOR VALADARES; GOVERNADOR VALADARES-PJ-05PJ 0,00 0,00 0,00 324,00 0,00 0,00 0,00 0,00 0,00 29/02/2024
1050 634600 CAROLINA FRARE LAMEIRINHA PROMOTOR 2A ENTRANCIA PATOS DE MINAS - COMARCA; COORD REG BACIAS PARACATU,URUCUIA E ABAETE 1.978,00 0,00 2.976,28 0,00 0,00 0,00 0,00 0,00 0,00 29/02/2024
1051 405401 CAROLINA GENTIL MEDEIROS MARQUEZ PROMOTOR 2A ENTRANCIA LAGOA SANTA - COMARCA; LAGOA SANTA - 03ª PJ 1.978,00 1.146,58 3.584,52 0,00 17.922,60 0,00 0,00 0,00 547,64 29/02/2024
1052 551200 CAROLINA LOPES ARANTES MASCARENHAS ANALISTA DO MP BELO HORIZONTE - COMARCA; CAO-VIOLENCIA DOMESTICA E FAMILIAR 1.978,00 1.031,92 605,00 0,00 5.924,93 0,00 0,00 0,00 0,00 29/02/2024
1053 622600 CAROLINA LOREDO LOPES CATIZANI OFICIAL DO MP RIBEIRÃO DAS NEVES - COMARCA; RIBEIRAO DAS NEVES-PJ-12PJ 1.978,00 0,00 605,00 0,00 0,00 0,00 0,00 0,00 0,00 29/02/2024
1054 362900 CAROLINA MARQUES ANDRADE PROMOT.ENTRANC.ESPECIAL UBERABA - COMARCA; UBERABA-PJ-16PJ 1.978,00 0,00 3.773,18 0,00 18.865,91 0,00 0,00 0,00 576,46 29/02/2024
1055 741600 CAROLINA MARTINS VITA ESTAGIARIO ARAGUARI; ARAGUARI-PJ-03PJ 1.978,00 0,00 1.120,73 0,00 0,00 0,00 0,00 0,00 0,00 29/02/2024
1056 748700 CAROLINA MEIRE DE FARIA ESTAGIARIO BELO HORIZONTE; BH-12PJ JUIZO CRIMINAL 1.978,00 0,00 605,00 0,00 0,00 0,00 0,00 0,00 0,00 29/02/2024
1057 457400 CAROLINA MELO CAMPOS MOREIRA PROMOTOR 2A ENTRANCIA NOVA LIMA - COMARCA; NOVA LIMA-PJ-03PJ 1.978,00 0,00 2.218,68 0,00 6.256,91 0,00 0,00 0,00 630,10 29/02/2024
1058 382200 CAROLINA MENDES CHAVES LIN ANALISTA DO MP BELO HORIZONTE - COMARCA; BH-12PJ JUIZO CRIMINAL-GAB 088PJ 1.978,00 1.146,58 605,00 0,00 0,00 0,00 0,00 0,00 0,00 29/02/2024
1059 313600 CAROLINA MENDONCA DE SIQUEIRA PROMOT.ENTRANC.ESPECIAL BETIM - COMARCA; BETIM-PJ-08PJ 1.978,00 0,00 1.677,54 0,00 18.865,91 0,00 0,00 0,00 576,46 29/02/2024
1060 461900 CAROLINA MURTA TEIXEIRA DIAS ANALISTA DO MP BELO HORIZONTE - COMARCA; DIR CRIACAO E MIDIAS 1.978,00 0,00 605,00 0,00 0,00 0,00 0,00 0,00 0,00 29/02/2024
1061 509600 CAROLINA PINTO DE OLIVEIRA SOUZA ANALISTA DO MP MURIAÉ - COMARCA; MURIAE-PJ-01PJ 1.978,00 1.146,58 605,00 0,00 5.924,93 0,00 0,00 0,00 0,00 29/02/2024
1062 1684300 CAROLINA PINTO MIRANDA ESTAGIARIO BELO HORIZONTE; CENTRO AUTOCOMPOSICAO DE CONFLITOS 0,00 0,00 0,00 342,00 0,00 0,00 0,00 0,00 0,00 29/02/2024
1063 526400 CAROLINA QUEIROZ DE CARVALHO PROMOT.ENTRANC.ESPECIAL CONSELHEIRO LAFAIETE - COMARCA; CONSELHEIRO LAFAIETE-PJ-02PJ 1.978,00 0,00 1.945,81 0,00 12.577,27 0,00 0,00 0,00 0,00 29/02/2024
1064 1412700 CAROLINA REIS SILVA ESTAGIARIO PATOS DE MINAS; PATOS DE MINAS-PJ-04PJ 0,00 0,00 0,00 162,00 0,00 0,00 0,00 0,00 0,00 29/02/2024
1065 667000 CAROLINA RITA TORRES GRUBER PROMOTOR 2A ENTRANCIA SÃO FRANCISCO - COMARCA; SAO FRANCISCO-PJ-01PJ 1.978,00 0,00 892,88 0,00 17.922,60 0,00 0,00 0,00 547,64 29/02/2024
1066 629100 CAROLINA RODRIGUES AMARAL ANALISTA DO MP BELO HORIZONTE - COMARCA; PROC. JUSTICA DIR. DIFUSOS E COLETIVOS-SEC 1.978,00 0,00 605,00 0,00 2.172,48 0,00 0,00 0,00 0,00 29/02/2024
1067 502600 CAROLINA RODRIGUES RUBEN ANALISTA DO MP BELO HORIZONTE - COMARCA; BH-18PJ VIOLENCIA DOMESTICA-GAB 007PJ 1.978,00 2.293,16 605,00 0,00 5.924,93 0,00 0,00 0,00 0,00 29/02/2024
1068 754000 CAROLINA SILVA MASSON CURSI OFICIAL DO MP CANÁPOLIS - COMARCA; CANAPOLIS-PJ-UNPJ 0,00 0,00 0,00 18,00 0,00 0,00 0,00 0,00 0,00 29/02/2024
1069 1616800 CAROLINA SOARES DA FONSECA ESTAGIARIO SETE LAGOAS; SETE LAGOAS-PJ-10PJ 0,00 0,00 0,00 342,00 0,00 0,00 0,00 0,00 0,00 29/02/2024
1070 1561300 CAROLINA TORRES HADDAD ESTAGIARIO JUIZ DE FORA; JUIZ DE FORA-PJ-17PJ 0,00 0,00 0,00 342,00 0,00 0,00 0,00 0,00 0,00 29/02/2024
1071 529600 CAROLINA VAZ DE MELO MAMBRINI ANALISTA DO MP BELO HORIZONTE - COMARCA; BH-14PJ DEFESA CONSUMIDOR-GAB 005PJ 1.978,00 0,00 605,00 0,00 0,00 0,00 0,00 0,00 0,00 29/02/2024
1072 619100 CAROLINA ZAKHIA NARDELLI RODRIGUES ANALISTA DO MP NEPOMUCENO - COMARCA; NEPOMUCENO-PJ-UNPJ 1.978,00 1.146,58 605,00 0,00 4.888,07 0,00 0,00 0,00 0,00 29/02/2024
1073 517600 CAROLINE ALVES DE OLIVEIRA MULLER ANALISTA DO MP VISCONDE DO RIO BRANCO - COMARCA; VISCONDE DO RIO BRANCO-PJ-01PJ 1.978,00 0,00 605,00 0,00 641,87 0,00 0,00 0,00 58,84 29/02/2024
1074 373200 CAROLINE ANTUNES RIBEIRO OFICIAL DO MP JACUI - COMARCA; JACUI-PJ-UNPJ 1.978,00 0,00 605,00 0,00 5.776,81 0,00 0,00 0,00 0,00 29/02/2024
1075 723500 CAROLINE CORDEIRO FERNANDES MACHADO ASSESSOR PROMOTOR JUSTICA BELO HORIZONTE - COMARCA; COORD DE INCLUSAO E MOBILIZACAO SOCIAIS 0,00 0,00 0,00 342,00 0,00 0,00 0,00 0,00 0,00 29/02/2024
1076 556800 CAROLINE DE SOUZA CARDOSO DOMINGUES OFICIAL DO MP BRASÍLIA DE MINAS - COMARCA; BRASILIA DE MINAS-PJ-02PJ 1.978,00 0,00 605,00 0,00 0,00 0,00 0,00 0,00 0,00 29/02/2024
1077 1585300 CAROLINE DO VALLE SILVA ESTAGIARIO JUIZ DE FORA; JUIZ DE FORA-PJ-02PJ 0,00 0,00 0,00 342,00 0,00 0,00 0,00 0,00 0,00 29/02/2024
1078 1561500 CAROLINE DOS SANTOS LOURENCO ESTAGIARIO SAO LOURENCO; SAO LOURENCO-PJ-04PJ 0,00 0,00 0,00 324,00 0,00 0,00 0,00 0,00 0,00 29/02/2024
1079 1540100 CAROLINE FERNANDA ALVES SOUSA ESTAGIARIO ITAUNA; ITAUNA-PJ-01PJ 0,00 0,00 0,00 342,00 0,00 0,00 0,00 0,00 0,00 29/02/2024
1080 751700 CAROLINE GUIMARAES DAMASCENO ASSESSOR PROMOTOR JUSTICA SANTA LUZIA - COMARCA; SANTA LUZIA-PJ-07PJ 0,00 0,00 0,00 36,00 0,00 0,00 0,00 0,00 0,00 29/02/2024
1081 1498300 CAROLINE LIMA LOIOLA ESTAGIARIO GOVERNADOR VALADARES; GOVERNADOR VALADARES-PJ-08PJ 0,00 0,00 0,00 306,00 0,00 0,00 0,00 0,00 0,00 29/02/2024
1082 499400 CAROLINE MARQUES DE LOURDES MARZULLO OFICIAL DO MP JUIZ DE FORA - COMARCA; JUIZ DE FORA-PJ-08PJ 1.978,00 1.719,87 605,00 0,00 6.254,73 0,00 0,00 0,00 0,00 29/02/2024
1083 616800 CAROLINE MONTEIRO DE BARROS ANALISTA DO MP CONTAGEM - COMARCA; CONTAGEM-PJ-11PJ 1.978,00 1.146,58 605,00 0,00 2.172,48 0,00 0,00 0,00 0,00 29/02/2024
1084 1395700 CAROLINE OLIVEIRA MOREIRA DOS SANTOS ESTAGIARIO IBIRITE; IBIRITE-PJ-03PJ 0,00 0,00 0,00 126,00 1.110,00 0,00 0,00 0,00 0,00 29/02/2024
1085 1401200 CAROLINE ORLETTI GUARISE ESTAGIARIO GOVERNADOR VALADARES; GOVERNADOR VALADARES-PJ-01PJ 0,00 0,00 0,00 234,00 458,33 0,00 0,00 0,00 0,00 29/02/2024
1086 342500 CAROLINE PESTANA GOMES PROMOT.ENTRANC.ESPECIAL VESPASIANO - COMARCA; VESPASIANO-PJ-06PJ 1.978,00 2.293,16 3.773,18 0,00 18.865,91 0,00 0,00 0,00 576,46 29/02/2024
1087 1621600 CAROLINE STHEFANE TEIXEIRA MIRANDA ESTAGIARIO LAGOA DA PRATA; LAGOA DA PRATA-PJ-02PJ 0,00 0,00 0,00 342,00 0,00 0,00 0,00 0,00 0,00 29/02/2024
1088 618100 CAROLINE VASCONCELOS COSTA LANZA ANALISTA DO MP PARAOPEBA - COMARCA; PARAOPEBA-PJ-UNPJ 1.978,00 2.293,16 605,00 0,00 5.974,31 0,00 0,00 0,00 547,65 29/02/2024
1089 699000 CAROLLINA RODRIGUES SOUTO AMARAL ASSESSOR PROCURADOR JUSTICA BELO HORIZONTE - COMARCA; GABINETE DE PROCURADOR DE JUSTIÇA-SALA1105-T3 1.978,00 0,00 605,00 0,00 0,00 0,00 0,00 0,00 0,00 29/02/2024
1090 210600 CASSANDRA DA CONCEICAO DANTAS SERRAO PROMOT.ENTRANC.ESPECIAL BELO HORIZONTE - COMARCA; BH-02PJ FAMILIA-GAB 026PJ 1.978,00 0,00 2.566,91 0,00 19.954,91 0,00 0,00 0,00 609,73 29/02/2024
1091 604000 CASSIA APARECIDA DA SILVA OFICIAL DO MP PARACATU - COMARCA; PARACATU-PJ-01PJ 1.978,00 0,00 605,00 0,00 0,00 0,00 0,00 0,00 0,00 29/02/2024
1092 268800 CASSIA BEATRIZ TEIXEIRA OFICIAL DO MP BELO HORIZONTE - COMARCA; PROC. JUSTICA DE HABEAS CORPUS 1.978,00 0,00 605,00 0,00 5.945,91 0,00 0,00 0,00 0,00 29/02/2024
1093 500000 CASSIA DE OLIVEIRA COSTA VIANA ANALISTA DO MP SETE LAGOAS - COMARCA; SETE LAGOAS-PJ-09PJ 1.978,00 0,00 605,00 0,00 4.822,89 0,00 0,00 0,00 442,10 29/02/2024
1094 368800 CASSIA LUISA BATISTA MENDONCA WEBER COORDENADOR II BELO HORIZONTE - COMARCA; DIVISÃO DE EDUCAÇÃO PARA O CONSUMO 1.978,00 0,00 605,00 0,00 5.338,75 0,00 0,00 0,00 0,00 29/02/2024
1095 622200 CASSIA VAZ DE AZEVEDO LISBOA MARZANO ASSESSOR ADMINISTRATIVO III BELO HORIZONTE - COMARCA; CGMP-DIR ESTAGIO PROBATORIO E ORIENT 1.978,00 0,00 605,00 0,00 4.777,92 0,00 0,00 0,00 0,00 29/02/2024
1096 156100 CASSIA VIRGINIA SERRA TEIXEIRA GONTIJO PROCURADOR DE JUSTICA BELO HORIZONTE - COMARCA; GABINETE DE PROCURADOR DE JUSTIÇA - SALA 804 1.978,00 0,00 3.111,57 0,00 25.411,36 0,00 0,00 0,00 776,46 29/02/2024
1097 720200 CASSIO DA SILVA COSTA MOREIRA ESTAGIARIO BELO HORIZONTE; DIRETORIA DE PRODUCAO EDITORIAL 0,00 0,00 0,00 342,00 0,00 0,00 0,00 0,00 0,00 29/02/2024
1098 121000 CASSIO HENRIQUE AFONSO DA SILVA OFICIAL DO MP BELO HORIZONTE - COMARCA; CGMP-ASSESSORIA TECNICA 1.978,00 0,00 605,00 0,00 4.766,13 0,00 0,00 0,00 0,00 29/02/2024
1099 1689400 CASSIO PORTELLA AVILA ESTAGIARIO RIO PRETO; RIO PRETO-PJ-UNPJ 0,00 0,00 0,00 342,00 0,00 0,00 0,00 0,00 0,00 29/02/2024
1100 756700 CATARINA ANNONI CESAR ASSESSOR PROCURADOR JUSTICA BELO HORIZONTE - COMARCA; GABINETE DE PROCURADOR DE JUSTIÇA - SALA 610 1.978,00 0,00 605,00 0,00 0,00 0,00 0,00 0,00 0,00 29/02/2024
1101 512001 CATARINA NATALINO CALIXTO COORDENADOR II BELO HORIZONTE - COMARCA; DIRETORIA GESTAO COMPRAS LICITACOES 1.978,00 1.146,58 605,00 0,00 5.716,57 0,00 0,00 0,00 524,02 29/02/2024
1102 606200 CATARINE DE SIQUEIRA DE QUADROS ANALISTA DO MP CONTAGEM - COMARCA; CONTAGEM-PJ-08PJ 1.978,00 1.146,58 605,00 0,00 5.924,93 0,00 0,00 0,00 543,12 29/02/2024
1103 1680100 CATHARINA DE SENA BORGES TEIXEIRA CARDOSO ESTAGIARIO BELO HORIZONTE; DIRET DE ESTAGIOS E CONVENIOS ACADEMICOS 0,00 0,00 0,00 234,00 0,00 0,00 0,00 0,00 0,00 29/02/2024
1104 1592300 CATHARINA VENANCIO COSTA ESTAGIARIO BELO HORIZONTE; BH-12PJ JUIZO CRIMINAL-GAB 085PJ 0,00 0,00 0,00 324,00 0,00 0,00 0,00 0,00 0,00 29/02/2024
1105 1557900 CATHARINE VIEIRA CORDEIRO ESTAGIARIO BELO HORIZONTE; GABINETE DE PROCURADOR DE JUSTIÇA - SALA 911 0,00 0,00 0,00 0,00 1.048,33 0,00 0,00 0,00 0,00 29/02/2024
1106 1610700 CATIA CAETANO OLIMPIO ESTAGIARIO CONTAGEM; CONTAGEM-PJ-03PJ 0,00 0,00 0,00 198,00 0,00 0,00 0,00 0,00 0,00 29/02/2024
1107 622300 CECILIA APARECIDA PEREIRA ASSUNCAO OFICIAL DO MP TRÊS PONTAS - COMARCA; TRES PONTAS-PJ-SECRETARIA 1.978,00 1.146,58 605,00 0,00 0,00 0,00 0,00 0,00 0,00 29/02/2024
1108 1602200 CECILIA ARAUJO DE FREITAS ESTAGIARIO BELO HORIZONTE; COORD DE INCLUSAO E MOBILIZACAO SOCIAIS 0,00 0,00 0,00 270,00 0,00 0,00 0,00 0,00 0,00 29/02/2024
1109 711000 CECILIA DE SA FREITAS FERNANDES ESTAGIARIO UBERLANDIA; UBERLANDIA-PJ-07PJ 1.978,00 0,00 605,00 0,00 0,00 0,00 0,00 0,00 0,00 29/02/2024
1110 538000 CECILIA FONTES DE MATOS PIMENTEL ANALISTA DO MP PALMA - COMARCA; PALMA-PJ-UNPJ 1.978,00 1.146,58 605,00 0,00 5.924,93 0,00 0,00 0,00 0,00 29/02/2024
1111 748900 CECILIA KRUEL DE MAGALHAES PINTO ASSESSOR ADMINISTRATIVO IV BELO HORIZONTE - COMARCA; CAO-MEIO AMBIENTE 0,00 0,00 0,00 126,00 0,00 0,00 0,00 0,00 0,00 29/02/2024
1112 1629300 CECILIA ROSALINE FERREIRA DE ARRUDA ESTAGIARIO PARACATU; COORD REG PP NOROESTE MINAS GERAIS PARACATU 0,00 0,00 0,00 342,00 0,00 0,00 0,00 0,00 0,00 29/02/2024
1113 261300 CECILIO ANTONIO CAMPOS DOS REIS ANALISTA DO MP BELO HORIZONTE - COMARCA; AUDITORIA INTERNA 1.978,00 0,00 605,00 0,00 5.167,75 0,00 0,00 0,00 1.710,25 29/02/2024
1114 386400 CEFAS AMORELI DE FIGUEIREDO OFICIAL DO MP CABO VERDE - COMARCA; CABO VERDE-PJ-SECRETARIA 1.978,00 0,00 605,00 0,00 3.513,14 0,00 0,00 0,00 0,00 29/02/2024
1115 105600 CELIA BEATRIZ GOMES DOS SANTOS PROCURADOR DE JUSTICA BELO HORIZONTE - COMARCA; COORD DE CONTROLE CONSTITUCIONALIDADE 1.978,00 0,00 2.272,80 0,00 25.411,36 0,00 0,00 0,00 776,46 29/02/2024
1116 421000 CELINA BENEDITA DE SOUZA ALMEIDA OFICIAL DO MP CAMBUÍ - COMARCA; CAMBUI-PJ-01PJ 1.978,00 0,00 605,00 0,00 5.787,46 0,00 0,00 0,00 0,00 29/02/2024
1117 252900 CELIO DE MELO CASTOR ANALISTA DO MP BELO HORIZONTE - COMARCA; DIVISAO FROTA 1.978,00 0,00 605,00 0,00 0,00 0,00 0,00 0,00 0,00 29/02/2024
1118 486300 CELIO DIMAS ESTEVES RUAS PROMOT.ENTRANC.ESPECIAL CORONEL FABRICIANO - COMARCA; CORONEL FABRICIANO-PJ-02PJ 1.978,00 0,00 2.570,42 0,00 12.577,28 0,00 0,00 0,00 576,46 29/02/2024
1119 395700 CELIO FERREIRA LIMA OFICIAL DO MP CONTAGEM - COMARCA; CONTAGEM-PJ-SECRETARIA 1.978,00 0,00 605,00 0,00 0,00 0,00 0,00 0,00 0,00 29/02/2024
1120 281300 CELMA REGINA PEREIRA SANTOS ANALISTA DO MP BELO HORIZONTE - COMARCA; DIRET DE INFORMACAO E CONHECIMENTO-DINC/CEAF 1.978,00 0,00 605,00 0,00 0,00 0,00 0,00 0,00 0,00 29/02/2024
1121 535600 CELSO MEDEIROS DE PAIVA OFICIAL DO MP RIO PRETO - COMARCA; RIO PRETO-PJ-SECRETARIA 1.978,00 0,00 605,00 0,00 2.882,57 0,00 0,00 0,00 264,24 29/02/2024
1122 157700 CELSO PENNA FERNANDES JUNIOR PROMOT.ENTRANC.ESPECIAL BELO HORIZONTE - COMARCA; BH-23PJ CIVEL-GAB 162PJ 1.978,00 0,00 3.773,18 0,00 25.411,35 0,00 0,00 0,00 776,46 29/02/2024
1123 93700 CESAR ANTONIO COSSI PROCURADOR DE JUSTICA BELO HORIZONTE - COMARCA; GABINETE DE PROCURADOR DE JUSTIÇA - SALA 805 1.978,00 0,00 3.300,97 0,00 8.470,45 0,00 0,00 0,00 776,46 29/02/2024
1124 293100 CESAR ANTONIO DE LIMA PROMOT.ENTRANC.ESPECIAL POÇOS DE CALDAS - COMARCA; POCOS DE CALDAS-PJ-03PJ 1.978,00 0,00 3.773,18 0,00 12.577,27 0,00 0,00 0,00 0,00 29/02/2024
1125 293800 CESAR AUGUSTO DOS SANTOS PROMOT.ENTRANC.ESPECIAL BELO HORIZONTE - COMARCA; BH-12PJ JUIZO CRIMINAL-GAB 091PJ 1.978,00 0,00 1.136,40 0,00 18.865,91 0,00 0,00 0,00 576,46 29/02/2024
1126 367000 CESAR NARVAES DE AVELAR OFICIAL DO MP BELO HORIZONTE - COMARCA; DIRET DE INFORMACAO E CONHECIMENTO-DINC/CEAF 1.978,00 0,00 605,00 0,00 0,00 0,00 0,00 0,00 0,00 29/02/2024
1127 226500 CESAR SILVEIRA BARROUIN OFICIAL DO MP IGARAPÉ - COMARCA; IGARAPE-PJ-02PJ 1.978,00 0,00 605,00 0,00 5.439,23 0,00 0,00 0,00 0,00 29/02/2024
1128 293500 CESAR YOSHIKAWA PROMOT.ENTRANC.ESPECIAL BELO HORIZONTE - COMARCA; BH-12PJ JUIZO CRIMINAL-GAB 083PJ 1.978,00 0,00 3.030,40 0,00 16.350,45 0,00 0,00 0,00 576,46 29/02/2024
1129 121400 CEZAR MORENO CONCEICAO TAVARES OFICIAL DO MP BELO HORIZONTE - COMARCA; COORD DE INCLUSAO E MOBILIZACAO SOCIAIS 1.978,00 1.146,58 605,00 0,00 5.501,45 0,00 0,00 0,00 0,00 29/02/2024
1130 1624600 CEZAR RODRIGUES ROSA ESTAGIARIO DIVINOPOLIS; DIVINOPOLIS-PJ-07PJ 0,00 0,00 0,00 342,00 0,00 0,00 0,00 0,00 0,00 29/02/2024
1131 1664400 CHARLE ARAUJO FORZAN ESTAGIARIO ESMERALDAS; ESMERALDAS-PJ-01PJ 0,00 0,00 0,00 342,00 0,00 0,00 0,00 0,00 0,00 29/02/2024
1132 664100 CHARLES BARBOSA DA SILVA 3O. SARGENTO BELO HORIZONTE - COMARCA; NUCLEO DE OPERACOES DE SEGURANCA DE PESSOAL 1.978,00 0,00 0,00 0,00 0,00 0,00 0,00 0,00 435,41 29/02/2024
1133 210400 CHARLES DANIEL FRANCA SALOMAO PROMOT.ENTRANC.ESPECIAL PARÁ DE MINAS - COMARCA; PARA DE MINAS-PJ-02PJ 1.978,00 0,00 2.435,14 0,00 13.956,66 0,00 0,00 0,00 0,00 29/02/2024
1134 669200 CHARLES HENRIQUE SQUARCIO CABO BELO HORIZONTE - COMARCA; GAECO - SETOR POLICIAL MILITAR 1.978,00 0,00 0,00 0,00 0,00 0,00 0,00 0,00 0,00 29/02/2024
1135 243800 CHARLES MARTINS MUNIZ OFICIAL DO MP BELO HORIZONTE - COMARCA; LAB TECNOLOGIA CONTRA LAVAGEM DINHEIRO 1.978,00 0,00 0,00 0,00 6.091,94 0,00 0,00 0,00 558,43 29/02/2024
1136 193500 CHARLIN CESAR KOURLY OFICIAL DO MP ARAGUARI - COMARCA; ARAGUARI-PJ-07PJ 1.978,00 0,00 605,00 0,00 6.213,67 0,00 0,00 0,00 0,00 29/02/2024
1137 385500 CHILLEN PEIXOTO DE MOURA OFICIAL DO MP BELO HORIZONTE - COMARCA; DIVISAO DE MATERIAIS 1.978,00 2.293,16 605,00 0,00 0,00 0,00 0,00 0,00 0,00 29/02/2024
1138 534500 CHRISTIAN DOUGLAS BRITO RUAS OFICIAL DO MP BOCAIÚVA - COMARCA; BOCAIUVA-PJ-03PJ 1.978,00 0,00 605,00 0,00 2.882,57 0,00 0,00 0,00 0,00 29/02/2024
1139 370600 CHRISTIAN KARINE FELIX PRATES ASSESSOR ADMINISTRATIVO IV BELO HORIZONTE - COMARCA; SUPRIN DE PLANEJAMENTO E COORDENACAO 1.978,00 0,00 605,00 0,00 5.795,29 0,00 0,00 0,00 531,23 29/02/2024
1140 435800 CHRISTIANA BAHIA ANDRADE PINA ANALISTA DO MP BELO HORIZONTE - COMARCA; LABORATORIO TECNOLOGIA INTELIGENCIA 1.978,00 0,00 605,00 0,00 5.391,60 0,00 0,00 0,00 0,00 29/02/2024
1141 516800 CHRISTIANE FERREIRA DO NASCIMENTO ANALISTA DO MP POUSO ALEGRE - COMARCA; POUSO ALEGRE-PJ-04PJ 1.978,00 0,00 605,00 0,00 5.924,93 0,00 0,00 0,00 543,12 29/02/2024
1142 176000 CHRISTIANE JUNQUEIRA PULITI ANDRADE DE BARROS ASSESSOR ADM. ESPECIAL BELO HORIZONTE - COMARCA; PROCURADORIA-GERAL ADJUNTA INSTITUCIONAL 1.978,00 0,00 605,00 0,00 5.501,44 0,00 0,00 0,00 0,00 29/02/2024
1143 1521700 CHRISTIANE KENIA GOMES ALVES ESTAGIARIO CURVELO; CURVELO-PJ-05PJ 0,00 0,00 0,00 252,00 0,00 0,00 0,00 0,00 0,00 29/02/2024
1144 319200 CHRISTIANE MARIA DE ASSIS RUSSO OFICIAL DO MP BELO HORIZONTE - COMARCA; CAO-ORDEM ECONOMICA E TRIBUTARIA-SECRETARIA 1.978,00 1.146,58 605,00 0,00 0,00 0,00 0,00 0,00 0,00 29/02/2024
1145 510300 CHRISTIANE MARY DE CARVALHO FERREIRA ANALISTA DO MP BELO HORIZONTE - COMARCA; DIRETORIA DE SISTEMAS DE INFORMACAO 1.978,00 0,00 605,00 0,00 0,00 0,00 0,00 0,00 0,00 29/02/2024
1146 424900 CHRISTIANE PEREIRA TURNER DE ARAUJO OFICIAL DO MP BELO HORIZONTE - COMARCA; CAO-PATRIMONIO PUBLICO 1.978,00 1.146,58 605,00 0,00 5.776,81 0,00 0,00 0,00 0,00 29/02/2024
1147 731000 CHRISTIANE TEIXEIRA ANTUNA ASSESSOR ADMINISTRATIVO III BELO HORIZONTE - COMARCA; DIR CONTEUDO JORNALISTICO 0,00 0,00 0,00 306,00 83,33 0,00 0,00 0,00 0,00 29/02/2024
1148 513700 CHRISTIANE VIEIRA SOARES PEDERSOLI COORDENADOR II BELO HORIZONTE - COMARCA; ASSESSORIA JURIDICA DO PROCON-MG 1.978,00 1.146,58 605,00 0,00 5.913,70 0,00 0,00 0,00 0,00 29/02/2024
1149 163300 CHRISTIANNE COTRIM ASSAD BENSOUSSAN PROMOT.ENTRANC.ESPECIAL BELO HORIZONTE - COMARCA; BH-12PJ JUIZO CRIMINAL-GAB 087PJ 1.978,00 0,00 3.773,18 0,00 7.014,64 0,00 0,00 0,00 643,01 29/02/2024
1150 371400 CHRISTIANO LEONARDO GONZAGA GOMES PROMOTOR 2A ENTRANCIA SABARÁ - COMARCA; SABARA-PJ-01PJ 1.978,00 0,00 2.859,30 0,00 17.922,61 0,00 0,00 0,00 547,64 29/02/2024
1151 412300 CHRYSTIAN MACHADO RIBEIRO ANALISTA DO MP VARGINHA - COMARCA; VARGINHA-PJ-04PJ 1.978,00 0,00 605,00 0,00 5.840,90 0,00 0,00 0,00 0,00 29/02/2024
1152 513800 CHRYSTIANE DO NASCIMENTO DE MAGALHAES OFICIAL DO MP UBERLÂNDIA - COMARCA; UBERLANDIA-PJ-10PJ 1.978,00 0,00 605,00 0,00 1.514,37 0,00 0,00 0,00 0,00 29/02/2024
1153 497900 CIBELE DE FREITAS SANCHES DIAS ANALISTA DO MP BELO HORIZONTE - COMARCA; BH-12PJ JUIZO CRIMINAL-GAB 103PJ 1.978,00 0,00 605,00 0,00 5.924,93 0,00 0,00 0,00 543,12 29/02/2024
1154 500900 CIBELLE SILVA PRADO ALVARENGA ANALISTA DO MP ITANHANDU - COMARCA; ITANHANDU-PJ-UNPJ 1.978,00 1.146,58 605,00 0,00 5.924,93 0,00 0,00 0,00 0,00 29/02/2024
1155 1637900 CINARA MARCIELLE LIMA PEREIRA ESTAGIARIO ARINOS; ARINOS-PJ-UNPJ 0,00 0,00 0,00 324,00 0,00 0,00 0,00 0,00 0,00 29/02/2024
1156 296400 CINTIA APARECIDA MOREIRA NAVES E RODRIGUES ANALISTA DO MP CAMPO BELO - COMARCA; CAMPO BELO-PJ-01PJ 1.978,00 0,00 605,00 0,00 5.998,28 0,00 0,00 0,00 0,00 29/02/2024
1157 171200 CINTIA MARIA OLIVEIRA DE LUCENA PROMOT.ENTRANC.ESPECIAL BELO HORIZONTE - COMARCA; BH-23PJ INFRACIONAL-GAB 144PJ 1.978,00 0,00 1.894,00 0,00 19.954,91 0,00 0,00 0,00 609,73 29/02/2024
1158 407900 CINTIA NETO COMELLI ANALISTA DO MP BELO HORIZONTE - COMARCA; CENTRAL DE APOIO TECNICO-SETOR CONTABIL 1.978,00 0,00 605,00 0,00 0,00 0,00 0,00 0,00 0,00 29/02/2024
1159 304700 CINTIA QUEIROZ OFICIAL DO MP BELO HORIZONTE - COMARCA; OUVIDORIA DO MPMG 1.978,00 0,00 605,00 0,00 5.776,81 0,00 0,00 0,00 0,00 29/02/2024
1160 163000 CINTIA ROBERTA GOMES DE LIMA PROMOTOR 2A ENTRANCIA VARGINHA - COMARCA; COORD REG PJ DEF EDUC DIR CRIANCA ADOL SUL 1.978,00 0,00 2.435,14 0,00 0,00 0,00 0,00 0,00 0,00 29/02/2024
1161 286100 CIRO CANGUSSU CORDEIRO OFICIAL DO MP IPATINGA - COMARCA; IPATINGA-PJ-09PJ 1.978,00 1.146,58 605,00 0,00 0,00 0,00 0,00 0,00 0,00 29/02/2024
1162 689900 CISSA NOGUEIRA COLEN ASSESSOR PROCURADOR JUSTICA BELO HORIZONTE - COMARCA; GABINETE DE PROCURADOR DE JUSTIÇA - SALA 608 1.978,00 0,00 605,00 0,00 0,00 0,00 0,00 0,00 0,00 29/02/2024
1163 1634700 CLARA CARVALHO PEREIRA DOS REIS ESTAGIARIO BELO HORIZONTE; BH-08PJ JUIZADO ESPECIAL-GAB 168PJ 0,00 0,00 0,00 162,00 185,00 0,00 0,00 0,00 0,00 29/02/2024
1164 1625700 CLARA DANIELE MOURA DE SOUSA ESTAGIARIO BELO HORIZONTE; PROC JUST ATUACAO TRIBUNAIS SUPERIORES-GAB005 0,00 0,00 0,00 180,00 0,00 0,00 0,00 0,00 0,00 29/02/2024
1165 681700 CLARA FERREIRA ALKIMIM ASSESSOR PROMOTOR JUSTICA PEDRA AZUL - COMARCA; PEDRA AZUL-PJ-02PJ 1.978,00 0,00 605,00 0,00 352,44 0,00 0,00 0,00 32,31 29/02/2024
1166 1643700 CLARA INEZ RIBEIRO MIRANDA FERREIRA ESTAGIARIO PEDRA AZUL; PEDRA AZUL-PJ-01PJ 0,00 0,00 0,00 324,00 0,00 0,00 0,00 0,00 0,00 29/02/2024
1167 756100 CLARA LIMA LIPOVETSKY ASSESSOR PROMOTOR JUSTICA BELO HORIZONTE - COMARCA; CAO-FUNDACOES-ASSESSORIA JURIDICA 1.978,00 0,00 605,00 0,00 0,00 0,00 0,00 0,00 0,00 29/02/2024
1168 484900 CLARA MARIA HOEHNE SEPULVEDA PROMOT.ENTRANC.ESPECIAL SETE LAGOAS - COMARCA; SETE LAGOAS-PJ-09PJ 1.978,00 0,00 3.773,18 0,00 18.865,91 0,00 0,00 0,00 576,46 29/02/2024
1169 740500 CLARA MINELLI FERNANDES ESTAGIARIO MONTES CLAROS; COORD REG PATRI PUB ORD TRIB-NORTE MINAS 1.978,00 0,00 892,88 0,00 0,00 0,00 0,00 0,00 0,00 29/02/2024
1170 1615800 CLARA PORTELLA FERREIRA ESTAGIARIO BELO HORIZONTE; BH-PJ AUXILIAR-GAB 141PJ 0,00 0,00 0,00 144,00 493,33 0,00 0,00 0,00 0,00 29/02/2024
1171 723100 CLARA PRADO CAMPOS ASSESSOR PROCURADOR JUSTICA BELO HORIZONTE - COMARCA; GABINETE DE PROCURADOR DE JUSTIÇA - SALA 1006 1.978,00 0,00 605,00 0,00 0,00 0,00 0,00 0,00 0,00 29/02/2024
1172 1572200 CLARA RIHS MATOS VIEIRA ESTAGIARIO TEOFILO OTONI; TEOFILO OTONI-PJ-08PJ 0,00 0,00 0,00 324,00 0,00 0,00 0,00 0,00 0,00 29/02/2024
1173 695500 CLARA RODRIGUES BLACH ASSESSOR PROCURADOR JUSTICA BELO HORIZONTE - COMARCA; GABINETE DE PROCURADOR DE JUSTIÇA - SALA 1003 1.978,00 0,00 605,00 0,00 0,00 0,00 0,00 0,00 0,00 29/02/2024
1174 1598100 CLARA RODRIGUES DE SALLES ESTAGIARIO SANTA LUZIA; SANTA LUZIA-PJ-04PJ 0,00 0,00 0,00 342,00 0,00 0,00 0,00 0,00 0,00 29/02/2024
1175 1681900 CLAREANE MENDONCA DE OLIVEIRA ESTAGIARIO UBERLANDIA; UBERLANDIA-PJ-20PJ 0,00 0,00 0,00 306,00 0,00 0,00 0,00 0,00 0,00 29/02/2024
1176 1523100 CLARICE ALVES NOGUEIRA ESTAGIARIO UBERABA; UBERABA-PJ-14PJ 0,00 0,00 0,00 342,00 0,00 0,00 0,00 0,00 0,00 29/02/2024
1177 412500 CLARICE GOMES MAROTTA ANALISTA DO MP BELO HORIZONTE - COMARCA; COORD ESTADUAL DE DEFESA DOS ANIMAIS 1.978,00 0,00 605,00 0,00 5.241,84 0,00 0,00 0,00 0,00 29/02/2024
1178 1675900 CLARICE SOUZA CARVALHO ESTAGIARIO BARBACENA; BARBACENA-PJ-06PJ 0,00 0,00 0,00 342,00 0,00 0,00 0,00 0,00 0,00 29/02/2024
1179 605300 CLARISSA AZEVEDO ROCHA OFICIAL DO MP BELO HORIZONTE - COMARCA; BH-16PJ HABITACAO URBANISMO-GAB 117PJ 1.978,00 0,00 605,00 0,00 0,00 0,00 0,00 0,00 0,00 29/02/2024
1180 308100 CLARISSA DUARTE BELLONI DIRETOR-GERAL BELO HORIZONTE - COMARCA; DIRETORIA-GERAL 1.978,00 1.719,87 605,00 0,00 4.766,12 0,00 0,00 0,00 0,00 29/02/2024
1181 730500 CLARISSA FERNANDES ABREU ASSESSOR PROMOTOR JUSTICA SANTOS DUMONT - COMARCA; SANTOS DUMONT-PJ-02PJ 0,00 0,00 0,00 324,00 0,00 0,00 0,00 0,00 0,00 29/02/2024
1182 1638300 CLARISSA FREITAS MARTINS ESTAGIARIO TIMOTEO; TIMOTEO-PJ-01PJ 0,00 0,00 0,00 342,00 0,00 0,00 0,00 0,00 0,00 29/02/2024
1183 402100 CLARISSA GOBBO DOS SANTOS PROMOT.ENTRANC.ESPECIAL BELO HORIZONTE - COMARCA; GRUPO ESP PROM JUST DEF PROB ADM PAT PUB 1.978,00 0,00 3.773,18 0,00 18.865,91 0,00 0,00 0,00 576,46 29/02/2024
1184 743200 CLARISSA GODINHO PRATES ASSESSOR ADMINISTRATIVO I GOVERNADOR VALADARES - COMARCA; COOR REG APOIO COM INC MOB VALE DO RIO DOCE 1.978,00 0,00 605,00 0,00 0,00 0,00 0,00 0,00 0,00 29/02/2024
1185 497100 CLARISSA ROCHA GUIDI ANALISTA DO MP BELO HORIZONTE - COMARCA; BH-02PJ FAMILIA-SECRETARIA 1.978,00 2.293,16 605,00 0,00 5.190,19 0,00 0,00 0,00 0,00 29/02/2024
1186 661600 CLARISSE PEREZ DO NASCIMENTO NASCIF MENDES PROMOTOR 1A ENTRANCIA PIRANGA - COMARCA; PIRANGA-PJ-UNPJ 1.978,00 2.293,16 3.405,30 0,00 17.026,48 0,00 0,00 0,00 520,25 29/02/2024
1187 641800 CLARISSE TAVARES GONCALVES OFICIAL DO MP BELO HORIZONTE - COMARCA; BH-07PJ 01 TRIBUNAL JURI-SECRETARIA 1.978,00 0,00 605,00 0,00 0,00 0,00 0,00 0,00 0,00 29/02/2024
1188 463700 CLAUDIA ADRIANA FERRAO DIAS ANALISTA DO MP SETE LAGOAS - COMARCA; SETE LAGOAS-PJ-06PJ 1.978,00 0,00 605,00 0,00 0,00 0,00 0,00 0,00 0,00 29/02/2024
1189 415400 CLAUDIA ALMEIDA DE VASCONCELLOS BARROS OFICIAL DO MP BELO HORIZONTE - COMARCA; DIVISAO DE SERVICOS 1.978,00 0,00 605,00 0,00 5.951,00 0,00 0,00 0,00 733,05 29/02/2024
1190 207000 CLAUDIA APARECIDA VILELA MACHADO ANALISTA DO MP BELO HORIZONTE - COMARCA; CENTRAL DE APOIO TECNICO-SETOR CONTABIL 1.978,00 0,00 605,00 0,00 4.789,83 0,00 0,00 0,00 439,07 29/02/2024
1191 314400 CLAUDIA AUGUSTA LOPES DE MENDONCA PROMOT.ENTRANC.ESPECIAL BELO HORIZONTE - COMARCA; BH-09PJ AUDITORIA MILITAR-GAB 074PJ 1.978,00 0,00 3.773,18 0,00 6.288,64 0,00 0,00 0,00 576,46 29/02/2024
1192 365700 CLAUDIA BREGUEZ CUNHA ANALISTA DO MP VARGINHA - COMARCA; VARGINHA-PJ-07PJ 1.978,00 1.146,58 605,00 0,00 0,00 0,00 0,00 0,00 0,00 29/02/2024
1193 430500 CLAUDIA CECILIA SANTANA VENCESLAU OFICIAL DO MP BELO HORIZONTE - COMARCA; LAB TECNOLOGIA CONTRA LAVAGEM DINHEIRO 1.978,00 0,00 605,00 0,00 2.962,47 0,00 0,00 0,00 0,00 29/02/2024
1194 1480200 CLAUDIA DE AQUINO ESTAGIARIO BUENOPOLIS; BUENOPOLIS-PJ-UNPJ 0,00 0,00 0,00 270,00 0,00 0,00 0,00 0,00 0,00 29/02/2024
1195 98300 CLAUDIA DE OLIVEIRA IGNEZ PROMOTOR 2A ENTRANCIA NOVA LIMA - COMARCA; NOVA LIMA-PJ-01PJ 1.978,00 1.146,58 2.164,57 0,00 24.096,86 0,00 0,00 0,00 736,29 29/02/2024
1196 167300 CLAUDIA DO AMARAL XAVIER PROMOT.ENTRANC.ESPECIAL BELO HORIZONTE - COMARCA; BH-18PJ DIREITOS HUMANOS-GAB 125PJ 1.978,00 0,00 2.326,91 0,00 24.297,35 0,00 0,00 0,00 742,42 29/02/2024
1197 163100 CLAUDIA FERREIRA DE SOUZA PROMOT.ENTRANC.ESPECIAL BELO HORIZONTE - COMARCA; BH-02PJ FAMILIA-GAB 035PJ 1.978,00 0,00 1.623,43 0,00 11.858,63 0,00 0,00 0,00 0,00 29/02/2024
1198 174500 CLAUDIA FERREIRA PACHECO DE FREITAS PROMOT.ENTRANC.ESPECIAL BELO HORIZONTE - COMARCA; SECRETARIA-GERAL-GABINETE 1.978,00 0,00 3.773,18 0,00 19.954,91 0,00 0,00 0,00 609,73 29/02/2024
1199 213601 CLAUDIA GONCALVES CALIXTO ASSESSOR PROCURADOR JUSTICA BELO HORIZONTE - COMARCA; PROC. JUSTICA DIR. DIFUSOS E COLETIVOS-SEC 1.978,00 0,00 605,00 0,00 0,00 0,00 0,00 0,00 0,00 29/02/2024
1200 480400 CLAUDIA GOULART DE SOUZA OFICIAL DO MP PASSOS - COMARCA; PASSOS-PJ-06PJ 1.978,00 0,00 605,00 0,00 6.211,29 0,00 0,00 0,00 0,00 29/02/2024
1201 519800 CLAUDIA HELENA CORREA DE ALMEIDA ANALISTA DO MP BELO HORIZONTE - COMARCA; BH-12PJ JUIZO CRIMINAL-GAB 096PJ 1.978,00 0,00 605,00 0,00 5.924,93 0,00 0,00 0,00 0,00 29/02/2024
1202 422100 CLAUDIA IACOMINI CABRAL ANALISTA DO MP BELO HORIZONTE - COMARCA; CENT DE APOIO TEC-SETOR DEF,IDOSO E INFANC 1.978,00 0,00 605,00 0,00 5.092,07 0,00 0,00 0,00 466,77 29/02/2024
1203 258200 CLAUDIA LAGE MICHALAROS ANALISTA DO MP BELO HORIZONTE - COMARCA; CENTRAL DE APOIO TECN-SETOR DE MEIO AMBIENTE 1.978,00 0,00 605,00 0,00 0,00 0,00 0,00 0,00 0,00 29/02/2024
1204 706400 CLAUDIA LARICO YANAPA ESTAGIARIO ARAXA; ARAXA-PJ-03PJ 1.978,00 0,00 605,00 0,00 0,00 0,00 0,00 0,00 0,00 29/02/2024
1205 175200 CLAUDIA LOPES SILVA SCIOLI PROMOT.ENTRANC.ESPECIAL POUSO ALEGRE - COMARCA; POUSO ALEGRE-PJ-07PJ 1.978,00 0,00 3.273,91 0,00 19.900,46 0,00 0,00 0,00 608,07 29/02/2024
1206 433600 CLAUDIA LUIZA SANTIAGO FELICIO ANALISTA DO MP BELO HORIZONTE - COMARCA; CENT DE APOIO TEC-SETOR DEF,IDOSO E INFANC 1.978,00 0,00 605,00 0,00 5.391,60 0,00 0,00 0,00 0,00 29/02/2024
1207 317000 CLAUDIA MACHADO ALVES OFICIAL DO MP BELO HORIZONTE - COMARCA; DIR GOVERNANCA TECNOLOGIA INFORMACAO 1.978,00 0,00 605,00 0,00 5.618,84 0,00 0,00 0,00 0,00 29/02/2024
1208 155300 CLAUDIA MACIEL MIRANDA OFICIAL DO MP CONGONHAS - COMARCA; CONGONHAS-PJ-02PJ 1.978,00 0,00 605,00 0,00 0,00 0,00 0,00 0,00 0,00 29/02/2024
1209 746300 CLAUDIA MAGDA SANTANA ANALISTA DO MP BELO HORIZONTE - COMARCA; DIRETORIA DE ADMINISTRACAO FINANCEIRA 0,00 0,00 0,00 126,00 0,00 0,00 0,00 0,00 0,00 29/02/2024
1210 242200 CLAUDIA MICHELLE DIAS MUNIZ BALEEIRO OFICIAL DO MP MONTE AZUL - COMARCA; MONTE AZUL-PJ-SECRETARIA 1.978,00 0,00 605,00 0,00 5.439,23 0,00 0,00 0,00 0,00 29/02/2024
1211 755900 CLAUDIA NATIVIDADE ASSESSOR ADMINISTRATIVO II BELO HORIZONTE - COMARCA; CENTRO ESTADUAL DE APOIO AS VITIMAS 1.978,00 0,00 605,00 0,00 0,00 0,00 0,00 0,00 0,00 29/02/2024
1212 236500 CLAUDIA NETO COMELLI PROMOT.ENTRANC.ESPECIAL BELO HORIZONTE - COMARCA; BH-23PJ INFRACIONAL-GAB 039PJ 1.978,00 0,00 3.773,18 0,00 6.633,49 0,00 0,00 0,00 608,07 29/02/2024
1213 623000 CLAUDIA PATRICIA SILVA RODRIGUES RAPOSEIRAS OFICIAL DO MP BELO HORIZONTE - COMARCA; DIVISÃO DE EDUCAÇÃO PARA O CONSUMO 1.978,00 1.146,58 605,00 0,00 0,00 0,00 0,00 0,00 0,00 29/02/2024
1214 418400 CLAUDIA REGINA MARTINS BONIFACIO OFICIAL DO MP ITUIUTABA - COMARCA; ITUIUTABA-PJ-06PJ 1.978,00 0,00 605,00 0,00 5.776,81 0,00 0,00 0,00 0,00 29/02/2024
1215 498300 CLAUDIA SOUTO FARIAS BRAUN OFICIAL DO MP TEÓFILO OTONI - COMARCA; TEOFILO OTONI-PJ-SECRETARIA 1.978,00 0,00 605,00 0,00 2.882,57 0,00 0,00 0,00 0,00 29/02/2024
1216 79600 CLAUDIA SPRANGER E SILVA LUIZ MOTTA PROCURADOR DE JUSTICA BELO HORIZONTE - COMARCA; GABINETE DE PROCURADOR DE JUSTIÇA - SALA 706 1.978,00 0,00 3.971,77 0,00 18.634,99 0,00 0,00 0,00 776,46 29/02/2024
1217 206500 CLAUDIA VALERIA FONSECA ANDRADE ANALISTA DO MP BELO HORIZONTE - COMARCA; BH-23PJ INF-FISC MED SOC FEC 1.978,00 0,00 605,00 0,00 5.432,10 0,00 0,00 0,00 0,00 29/02/2024
1218 1499800 CLAUDIELLE COSTA DE ARAUJO ESTAGIARIO JEQUITINHONHA; JEQUITINHONHA-PJ-COORD PJ 0,00 0,00 0,00 324,00 0,00 0,00 0,00 0,00 0,00 29/02/2024
1219 277500 CLAUDIO ANTONIO BORGES BRUNSWICK ALVARES OFICIAL DO MP BELO HORIZONTE - COMARCA; ASSESSORIA JURIDICA DO PROCON-MG 1.978,00 0,00 605,00 0,00 0,00 0,00 0,00 0,00 0,00 29/02/2024
1220 444800 CLAUDIO ARESIO DO CARMO ANALISTA DO MP SETE LAGOAS - COMARCA; SETE LAGOAS-PJ-05PJ 1.978,00 0,00 605,00 0,00 6.055,23 0,00 0,00 0,00 0,00 29/02/2024
1221 532100 CLAUDIO DANIEL FONSECA DE ALMEIDA PROMOTOR 2A ENTRANCIA MARIANA - COMARCA; MARIANA-PJ-02PJ 1.978,00 1.146,58 2.570,42 0,00 17.922,60 0,00 0,00 0,00 547,64 29/02/2024
1222 76700 CLAUDIO EMANUEL DA CUNHA PROCURADOR DE JUSTICA BELO HORIZONTE - COMARCA; GABINETE DE PROCURADOR DE JUSTICA - SALA 311 1.978,00 0,00 1.623,43 0,00 25.411,35 0,00 0,00 0,00 776,46 29/02/2024
1223 100500 CLAUDIO FERREIRA DE OLIVEIRA FILHO PROMOTOR 2A ENTRANCIA LAMBARI - COMARCA; LAMBARI-PJ-UNPJ 1.978,00 0,00 3.111,57 0,00 25.236,93 0,00 0,00 0,00 771,13 29/02/2024
1224 545100 CLAUDIO HENRIQUE MACEDO DE SOUZA FRANSOZO ANALISTA DO MP OURO PRETO - COMARCA; OURO PRETO-PJ-03PJ 1.978,00 1.146,58 605,00 0,00 0,00 0,00 0,00 0,00 0,00 29/02/2024
1225 353500 CLAUDIO HENRIQUE PEDRO DA ROCHA OFICIAL DO MP BELO HORIZONTE - COMARCA; DIVISAO DE SERVICOS 1.978,00 0,00 605,00 0,00 5.776,81 0,00 0,00 0,00 0,00 29/02/2024
1226 265800 CLAUDIO KUPIDLOWSKY FERNANDES OFICIAL DO MP BELO HORIZONTE - COMARCA; SECRETARIA DO PROCON-MG 1.978,00 0,00 605,00 0,00 6.221,18 0,00 0,00 0,00 0,00 29/02/2024
1227 193600 CLAUDIO LEITE FONTES OFICIAL DO MP ITUIUTABA - COMARCA; ITUIUTABA-PJ-02PJ 1.978,00 1.146,58 605,00 0,00 5.924,93 0,00 0,00 0,00 0,00 29/02/2024
1228 102000 CLAUDIO LUIZ GONCALVES MARINS PROMOTOR 2A ENTRANCIA GUAXUPÉ - COMARCA; GUAXUPE-PJ-03PJ 1.978,00 0,00 3.584,52 0,00 25.236,93 0,00 0,00 0,00 771,13 29/02/2024
1229 163200 CLAUDIO MAIA DE BARROS PROMOT.ENTRANC.ESPECIAL BELO HORIZONTE - COMARCA; COORD EST PJ TRIBUNAL JURI 1.978,00 0,00 3.409,19 0,00 21.043,91 0,00 0,00 0,00 643,01 29/02/2024
1230 329400 CLAUDIO MARCIO BERNARDES OFICIAL DO MP ITAÚNA - COMARCA; ITAUNA-PJ-03PJ 1.978,00 1.146,58 605,00 0,00 0,00 0,00 0,00 0,00 0,00 29/02/2024
1231 270200 CLAUDIO RABELO ALVES OFICIAL DO MP FORMIGA - COMARCA; FORMIGA-PJ-03PJ 1.978,00 0,00 605,00 0,00 6.055,23 14,91 0,00 0,00 0,00 29/02/2024
1232 264700 CLAUDIO ROBERTO KFURI DE ARAUJO ANALISTA DO MP BELO HORIZONTE - COMARCA; CENTRAL DE APOIO TECNICO-SETOR DE INFORMATICA 1.978,00 0,00 605,00 0,00 0,00 0,00 0,00 0,00 0,00 29/02/2024
1233 543300 CLAUDIO SILVA DE CARVALHO ANALISTA DO MP CAMPO BELO - COMARCA; CAMPO BELO-PJ-03PJ 1.978,00 0,00 605,00 0,00 5.785,94 0,00 0,00 0,00 0,00 29/02/2024
1234 144300 CLAUDIO VARELLA DE SOUZA PROCURADOR DE JUSTICA BELO HORIZONTE - COMARCA; GABINETE DE PROCURADOR DE JUSTIÇA - SALA 712 1.978,00 0,00 1.488,14 0,00 25.411,36 0,00 0,00 0,00 776,46 29/02/2024
1235 160700 CLAUDIO VICENTE HESS ASSESSOR DE GABINETE I BELO HORIZONTE - COMARCA; CENTRAL DE APOIO TECNICO-SETOR DE INFORMATICA 1.978,00 0,00 605,00 0,00 5.439,23 0,00 0,00 0,00 0,00 29/02/2024
1236 312900 CLAUDIO VIEIRA FIRPE OFICIAL DO MP BELO HORIZONTE - COMARCA; DIR RELACOES INSTITUCIONAIS 1.978,00 0,00 605,00 0,00 5.776,81 0,00 0,00 0,00 0,00 29/02/2024
1237 634100 CLEA CRISTINA GUERRA DE FREITAS COSTA OFICIAL DO MP BELO HORIZONTE - COMARCA; BH-18PJ VIOLENCIA DOMESTICA-SECRETARIA 1.978,00 0,00 605,00 0,00 0,00 0,00 0,00 0,00 0,00 29/02/2024
1238 244800 CLEBER AUGUSTO DO NASCIMENTO PROMOTOR 2A ENTRANCIA CAMPO BELO - COMARCA; CAMPO BELO-PJ-04PJ 1.978,00 0,00 3.584,52 0,00 17.922,61 0,00 0,00 0,00 547,64 29/02/2024
1239 439000 CLEBER COUTO PROMOT.ENTRANC.ESPECIAL PATOS DE MINAS - COMARCA; GAECO REGIONAL DE PATOS DE MINAS 1.978,00 1.146,58 3.773,18 0,00 18.865,91 0,00 0,00 0,00 576,46 29/02/2024
1240 459200 CLEIA ZILLE PEREIRA ANALISTA DO MP BELO HORIZONTE - COMARCA; BH-07PJ 01 TRIBUNAL DO JURI-GAB 059PJ 1.978,00 1.719,87 605,00 0,00 5.924,93 0,00 0,00 0,00 0,00 29/02/2024
1241 481800 CLEIDE CARDOSO DA SILVA ANALISTA DO MP MANHUAÇU - COMARCA; MANHUACU-PJ-04PJ 1.978,00 0,00 605,00 0,00 5.924,93 0,00 0,00 0,00 0,00 29/02/2024
1242 225000 CLEIDE PEREIRA DA SILVA PROMOT.ENTRANC.ESPECIAL BELO HORIZONTE - COMARCA; BH-09PJ AUDITORIA MILITAR-GAB 161PJ 1.978,00 0,00 1.244,63 0,00 13.266,98 0,00 0,00 0,00 608,07 29/02/2024
1243 347600 CLEIDIMAR DE OLIVEIRA SILVA OFICIAL DO MP PATOS DE MINAS - COMARCA; PATOS DE MINAS-PJ-03PJ 1.978,00 0,00 605,00 0,00 6.221,18 0,00 0,00 0,00 0,00 29/02/2024
1244 396500 CLEIDISON BATISTA DE ANDRADE OFICIAL DO MP RESPLENDOR - COMARCA; RESPLENDOR-PJ-UNPJ 1.978,00 0,00 605,00 0,00 6.020,33 0,00 0,00 0,00 0,00 29/02/2024
1245 535100 CLEISON ALVES DA SILVA ANALISTA DO MP BOA ESPERANÇA - COMARCA; BOA ESPERANCA-PJ-01PJ 1.978,00 0,00 605,00 0,00 5.776,81 0,00 0,00 0,00 0,00 29/02/2024
1246 298100 CLEONICE AUGUSTA BARROS DE OLIVEIRA ANALISTA DO MP JUIZ DE FORA - COMARCA; JUIZ DE FORA-PJ-08PJ 1.978,00 0,00 605,00 0,00 0,00 0,00 0,00 0,00 0,00 29/02/2024
1247 114301 CLERES PEREIRA DA SILVA JUNIOR ASSESSOR ADMINISTRATIVO I BELO HORIZONTE - COMARCA; GAECO - SECRETARIA 1.978,00 0,00 605,00 0,00 0,00 0,00 0,00 0,00 0,00 29/02/2024
1248 264100 CLETO HENRIQUE ANDRADE SILVA ANALISTA DO MP BELO HORIZONTE - COMARCA; DIRETORIA DE SISTEMAS DE INFORMACAO 1.978,00 0,00 605,00 0,00 1.291,94 0,00 0,00 0,00 118,43 29/02/2024
1249 334400 CLEUBA DE OLIVEIRA BARCELOS GONCALVES OFICIAL DO MP DIVINÓPOLIS - COMARCA; COORD REG SAUDE MACRORREGIAO SANITARIA OESTE 1.978,00 0,00 605,00 0,00 5.776,81 0,00 0,00 0,00 0,00 29/02/2024
1250 347500 CLEUSA CORDEIRO DA MATA PIMENTA OFICIAL DO MP CAMPO BELO - COMARCA; CAMPO BELO-PJ-01PJ 1.978,00 0,00 605,00 0,00 5.395,63 0,00 0,00 0,00 0,00 29/02/2024
1251 92400 CLEVERSON RAYMUNDO SBARZI GUEDES PROMOT.ENTRANC.ESPECIAL JUIZ DE FORA - COMARCA; JUIZ DE FORA-PJ-07PJ 1.978,00 0,00 3.773,18 0,00 25.411,36 0,00 0,00 0,00 776,46 29/02/2024
1252 675000 CLEVERTON FRANCISCO GONCALVES DA SILVA CAPITAO 1.978,00 0,00 0,00 0,00 0,00 0,00 0,00 0,00 0,00 29/02/2024
1253 510200 CLEZIO SALES SILVA OFICIAL DO MP BRASÓPOLIS - COMARCA; BRASOPOLIS-PJ-UNPJ 1.978,00 1.146,58 605,00 0,00 2.882,57 0,00 0,00 0,00 0,00 29/02/2024
1254 1514200 CLICIA LAIANE DE ASSIS BENTO ESTAGIARIO ERVALIA; ERVALIA-PJ-UNPJ 0,00 0,00 0,00 342,00 0,00 0,00 0,00 0,00 0,00 29/02/2024
1255 323000 CLOTILDE DE PADUA VIEIRA OFICIAL DO MP BELO HORIZONTE - COMARCA; BH-19PJ SAUDE-SECRETARIA 129PJ 1.978,00 0,00 605,00 0,00 0,00 0,00 0,00 0,00 0,00 29/02/2024
1256 285200 CLOVIS ANDRE LUDTKE OFICIAL DO MP BELO HORIZONTE - COMARCA; DIVISAO DE MANUTENCAO PREDIAL 1.978,00 0,00 605,00 0,00 6.087,86 0,00 0,00 0,00 0,00 29/02/2024
1257 381100 CONCEICAO APARECIDA TEIXEIRA ARANTES ANALISTA DO MP BELO HORIZONTE - COMARCA; BH-23PJ INFRACIONAL-ASS JURIDICA 1.978,00 1.146,58 605,00 0,00 0,00 0,00 0,00 0,00 2.641,07 29/02/2024
1258 249900 CONSTANTINO CEZAR GOMES MOTA OFICIAL DO MP MONTES CLAROS - COMARCA; COORD REG BACIA RIOS VERDE GRANDE E PARDO 1.978,00 2.293,16 605,00 0,00 6.221,18 0,00 0,00 0,00 0,00 29/02/2024
1259 594800 COSME COELHO TEIXEIRA 2O. SARGENTO BELO HORIZONTE - COMARCA; NUCLEO DE CONTRAINTELIGENCIA 1.978,00 0,00 0,00 0,00 0,00 0,00 0,00 0,00 0,00 29/02/2024
1260 481000 CRISHMA ANALIA LOMBELLO ANALISTA DO MP JUIZ DE FORA - COMARCA; JUIZ DE FORA-PJ-13PJ 1.978,00 0,00 605,00 0,00 2.962,47 0,00 0,00 0,00 271,56 29/02/2024
1261 523900 CRISTHYANE BAZOLI COSTA GUEDES COUTO OFICIAL DO MP BELO HORIZONTE - COMARCA; BH-04PJ JUIZO REG PÚBLICOS-SECRETARIA 1.978,00 0,00 605,00 0,00 6.057,50 0,00 0,00 0,00 0,00 29/02/2024
1262 731700 CRISTIAN DA SILVA BUENO ESTAGIARIO DIVINO; DIVINO-PJ-UNPJ 0,00 0,00 0,00 342,00 0,00 0,00 0,00 0,00 0,00 29/02/2024
1263 187000 CRISTIAN DAYVSON EVANGELISTA OFICIAL DO MP JUIZ DE FORA - COMARCA; JUIZ DE FORA-PJ-13PJ 1.978,00 0,00 605,00 0,00 5.977,03 0,00 0,00 0,00 0,00 29/02/2024
1264 245000 CRISTIAN LUCIO DA SILVA PROMOT.ENTRANC.ESPECIAL BELO HORIZONTE - COMARCA; BH-07PJ 03 TRIBUNAL DO JURI-GAB 064PJ 1.978,00 1.719,87 3.773,18 0,00 18.865,91 0,00 0,00 0,00 576,46 29/02/2024
1265 682100 CRISTIAN TRISTAO DE ANDRADE ASSESSOR PROMOTOR JUSTICA TRÊS CORACOES - COMARCA; TRES CORACOES-PJ-04PJ 1.978,00 0,00 605,00 0,00 0,00 0,00 0,00 0,00 0,00 29/02/2024
1266 319800 CRISTIANA GONCALVES DOS SANTOS GUSMAO OFICIAL DO MP SETE LAGOAS - COMARCA; SETE LAGOAS-PJ-04PJ 1.978,00 0,00 605,00 0,00 0,00 0,00 0,00 0,00 0,00 29/02/2024
1267 520600 CRISTIANA JANAINA BARBOZA JUVENCIO DOS SANTOS ANALISTA DO MP BELO HORIZONTE - COMARCA; BH-02PJ FAMILIA-SECRETARIA 1.978,00 0,00 605,00 0,00 2.962,47 0,00 0,00 0,00 0,00 29/02/2024
1268 195600 CRISTIANA SOARES HALABI OFICIAL DO MP UBERABA - COMARCA; UBERABA-PJ-01PJ 1.978,00 0,00 605,00 0,00 5.167,75 0,00 0,00 0,00 0,00 29/02/2024
1269 218900 CRISTIANE ALVES BELLES OFICIAL DO MP JUIZ DE FORA - COMARCA; JUIZ DE FORA-PJ-10PJ 1.978,00 1.719,87 605,00 0,00 4.624,13 0,00 0,00 0,00 0,00 29/02/2024
1270 1449100 CRISTIANE APARECIDA CALDEIRA SILVA ESTAGIARIO CONTAGEM; CONTAGEM-PJ-09PJ 0,00 0,00 0,00 288,00 0,00 0,00 0,00 0,00 0,00 29/02/2024
1271 291600 CRISTIANE CAMPOS AMORIM BARONY PROMOTOR 2A ENTRANCIA CARANGOLA - COMARCA; CARANGOLA-PJ-03PJ 1.978,00 0,00 3.584,52 0,00 17.922,61 0,00 0,00 0,00 547,64 29/02/2024
1272 263600 CRISTIANE CARVALHO COUTINHO OFICIAL DO MP BELO HORIZONTE - COMARCA; BH-23PJ INFRACIONAL-SEC EXP 1.978,00 0,00 605,00 0,00 0,00 0,00 0,00 0,00 0,00 29/02/2024
1273 541000 CRISTIANE COELHO ALVES OFICIAL DO MP ITABIRA - COMARCA; ITABIRA-PJ-03PJ 1.978,00 0,00 605,00 0,00 2.882,57 0,00 0,00 0,00 264,24 29/02/2024
1274 441700 CRISTIANE CORRADO DE ANDRADE ANALISTA DO MP BELO HORIZONTE - COMARCA; DIRETORIA DE SISTEMAS DE INFORMACAO 1.978,00 0,00 605,00 0,00 5.297,12 0,00 0,00 0,00 0,00 29/02/2024
1275 375100 CRISTIANE DAS DORES ERCIO DE LIMA OFICIAL DO MP GOVERNADOR VALADARES - COMARCA; COOR REG APOIO COM INC MOB VALE DO RIO DOCE 1.978,00 0,00 605,00 0,00 6.216,30 0,00 0,00 0,00 0,00 29/02/2024
1276 178800 CRISTIANE DE LIMA HOSKEN OFICIAL DO MP BELO HORIZONTE - COMARCA; DIRETORIA DE INTELIGENCIA 1.978,00 0,00 605,00 0,00 6.213,67 0,00 0,00 0,00 0,00 29/02/2024
1277 494000 CRISTIANE DE MELO MARQUEZ OLIVEIRA ANALISTA DO MP UBERLÂNDIA - COMARCA; UBERLANDIA-PJ-06PJ 1.978,00 1.146,58 605,00 0,00 5.627,11 0,00 0,00 0,00 515,82 29/02/2024
1278 266100 CRISTIANE DE OLIVEIRA CASTRO OFICIAL DO MP BELO HORIZONTE - COMARCA; BH-14PJ DEFESA CONSUMIDOR-SECRETARIA 1.978,00 0,00 605,00 0,00 0,00 0,00 1.771,66 0,00 0,00 29/02/2024
1279 329500 CRISTIANE DOS REIS SILVA OFICIAL DO MP ARAXÁ - COMARCA; ARAXA-PJ-04PJ 1.978,00 0,00 605,00 0,00 1.925,60 0,00 0,00 0,00 0,00 29/02/2024
1280 719100 CRISTIANE FERNANDES FERREIRA ESTAGIARIO ALPINOPOLIS; ALPINOPOLIS-PJ-UNPJ 0,00 0,00 0,00 342,00 0,00 0,00 0,00 0,00 0,00 29/02/2024
1281 301600 CRISTIANE GODINHO PIRES ANALISTA DO MP BETIM - COMARCA; BETIM-PJ-06PJ 1.978,00 0,00 605,00 0,00 5.998,28 0,00 0,00 0,00 0,00 29/02/2024
1282 406100 CRISTIANE GONCALVES CHAVES ANALISTA DO MP BELO HORIZONTE - COMARCA; BH-06PJ JUIZO CIVEL-SECRETARIA 1.978,00 0,00 605,00 0,00 0,00 0,00 0,00 0,00 0,00 29/02/2024
1283 487600 CRISTIANE LOPES DE OLIVEIRA OFICIAL DO MP DIVINÓPOLIS - COMARCA; DIVINOPOLIS-PJ-03PJ 1.978,00 0,00 605,00 0,00 4.803,64 0,00 0,00 0,00 0,00 29/02/2024
1284 502500 CRISTIANE MACIEL DE OLIVEIRA GOMES ANALISTA DO MP JUIZ DE FORA - COMARCA; JUIZ DE FORA-PJ-02PJ 1.978,00 1.146,58 605,00 0,00 5.924,93 0,00 0,00 0,00 0,00 29/02/2024
1285 285500 CRISTIANE MAGALHAES LOURENCO ANALISTA DO MP BELO HORIZONTE - COMARCA; CENTRAL DE APOIO TECNICO-SETOR CONTABIL 1.978,00 0,00 605,00 0,00 5.167,75 0,00 0,00 0,00 473,71 29/02/2024
1286 536500 CRISTIANE MICHELE DE SOUZA ANALISTA DO MP BARÃO DE COCAIS - COMARCA; BARAO DE COCAIS-PJ-UNPJ 1.978,00 0,00 605,00 0,00 0,00 0,00 0,00 0,00 0,00 29/02/2024
1287 346600 CRISTIANE NOGUEIRA ANDRADE ANALISTA DO MP BELO HORIZONTE - COMARCA; CENTRAL DE APOIO TECNICO-SETOR CONTABIL 1.978,00 0,00 605,00 0,00 0,00 0,00 0,00 0,00 0,00 29/02/2024
1288 234000 CRISTIANE OLIVEIRA TOSTES OFICIAL DO MP JUIZ DE FORA - COMARCA; JUIZ DE FORA-PJ-08PJ 1.978,00 1.146,58 605,00 0,00 5.749,43 0,00 0,00 0,00 0,00 29/02/2024
1289 445800 CRISTIANE ORZIL COSTA OFICIAL DO MP SANTA LUZIA - COMARCA; SANTA LUZIA-PJ-05PJ 1.978,00 1.146,58 605,00 0,00 5.768,98 0,00 0,00 0,00 0,00 29/02/2024
1290 616100 CRISTIANE PAES RODRIGUES MARCICANO ANALISTA DO MP CATAGUASES - COMARCA; CATAGUASES-PJ-05PJ 1.978,00 1.146,58 605,00 0,00 6.112,95 0,00 0,00 0,00 560,35 29/02/2024
1291 612300 CRISTIANE RIBEIRO DOS REIS ARCANJO OFICIAL DO MP BELO HORIZONTE - COMARCA; DIRETORIA DE PAGAMENTO DE PESSOAL-DPAG
1292 257700 CRISTIANE RODRIGUES PAES NUNES ANALISTA DO MP BELO HORIZONTE - COMARCA; BH-22PJ PES COM DEF E IDOSOS-ORIENTACAO PSIC 1.978,00 1.146,58 605,00 0,00 5.167,75 0,00 0,00 0,00 473,71 29/02/2024
1293 510800 CRISTIANE SANTOS FERNANDES ORNELES ANALISTA DO MP BELO HORIZONTE - COMARCA; BH-03PJ EMPRESARIAL-SECRETARIA 1.978,00 0,00 605,00 0,00 5.924,93 0,00 0,00 0,00 0,00 29/02/2024
1294 535701 CRISTIANE SANTOS MIRANDA ANALISTA DO MP CONTAGEM - COMARCA; CONTAGEM-PJ-03PJ 1.978,00 0,00 605,00 0,00 6.243,14 0,00 0,00 0,00 0,00 29/02/2024
1295 163400 CRISTIANO CASSIOLATO PROMOTOR 1A ENTRANCIA CARMO DO RIO CLARO - COMARCA; CARMO DO RIO CLARO-PJ-UNPJ 1.978,00 0,00 3.405,30 0,00 18.992,12 0,00 0,00 0,00 580,32 29/02/2024
1296 484000 CRISTIANO CESAR PIMENTA DAYRELL DA CUNHA PROMOT.ENTRANC.ESPECIAL SETE LAGOAS - COMARCA; SETE LAGOAS-PJ-05PJ 1.978,00 1.146,58 3.773,18 0,00 18.865,92 0,00 0,00 0,00 576,46 29/02/2024
1297 299901 CRISTIANO DA COSTA MATA PROMOT.ENTRANC.ESPECIAL IPATINGA - COMARCA; IPATINGA-PJ-10PJ 1.978,00 1.146,58 3.773,18 0,00 18.865,91 0,00 0,00 0,00 576,46 29/02/2024
1298 536200 CRISTIANO DE OLIVEIRA ANALISTA DO MP CONCEIÇÃO DO MATO DENTRO - COMARCA; CONCEICAO DO MATO DENTRO-PJ-UNPJ 1.978,00 2.293,16 605,00 0,00 5.924,93 0,00 0,00 0,00 0,00 29/02/2024
1299 1598700 CRISTIANO DE OLIVEIRA CORREA ESTAGIARIO ARAXA; ARAXA-PJ-03PJ 0,00 0,00 0,00 342,00 0,00 0,00 0,00 0,00 0,00 29/02/2024
1300 675100 CRISTIANO GERALDO CUNHA CABO BELO HORIZONTE - COMARCA; GAECO - SETOR POLICIAL MILITAR 1.978,00 0,00 0,00 0,00 0,00 0,00 0,00 0,00 0,00 29/02/2024
1301 1399200 CRISTIANO MORAIS COSTA ESTAGIARIO BELO HORIZONTE; DIVISAO DE MANUTENCAO PREDIAL 0,00 0,00 0,00 234,00 2.208,33 0,00 0,00 0,00 0,00 29/02/2024
1302 440000 CRISTIANO MOREIRA SILVA PROMOTOR 2A ENTRANCIA CAPELINHA - COMARCA; CAPELINHA-PJ-02PJ 1.978,00 1.146,58 1.809,37 0,00 11.948,40 0,00 0,00 0,00 547,64 29/02/2024
1303 167400 CRISTIANO ROCHA GAZAL PROMOTOR 1A ENTRANCIA CAMBUQUIRA - COMARCA; CAMBUQUIRA-PJ-UNPJ 1.978,00 0,00 2.543,37 0,00 17.725,98 0,00 0,00 0,00 580,32 29/02/2024
1304 477400 CRISTIANO SOARES ELEUTERIO ANALISTA DO MP BELO HORIZONTE - COMARCA; GABINETE DE PROCURADOR DE JUSTIÇA-SALA1109-T3 1.978,00 0,00 605,00 0,00 6.124,75 0,00 0,00 0,00 0,00 29/02/2024
1305 449400 CRISTIANO TEIXEIRA RODRIGUES LANA ANALISTA DO MP BELO HORIZONTE - COMARCA; BH-18PJ VIOLENCIA DOMESTICA-SECRETARIA 1.978,00 0,00 605,00 0,00 6.031,87 0,00 0,00 0,00 0,00 29/02/2024
1306 720400 CRISTIANO XAVIER RAMOS ESTAGIARIO SAO FRANCISCO; SAO FRANCISCO-PJ-01PJ 1.978,00 0,00 1.824,03 0,00 17.922,61 0,00 0,00 0,00 547,64 29/02/2024
1307 106600 CRISTINA BECHARA KALLAS PROMOTOR 2A ENTRANCIA PASSOS - COMARCA; PASSOS-PJ-03PJ 1.978,00 0,00 3.584,52 0,00 8.470,45 0,00 0,00 0,00 776,46 29/02/2024
1308 239400 CRISTINA DE FATIMA CRUZ E SILVA OFICIAL DO MP MONTE SANTO DE MINAS - COMARCA; MONTE SANTO DE MINAS-PJ-SECRETARIA 1.978,00 0,00 605,00 0,00 0,00 0,00 0,00 0,00 0,00 29/02/2024
1309 1647800 CRISTINA DE JESUS RODRIGUES DE CASTRO SOUZA ESTAGIARIO BELO HORIZONTE; CAO-FUNDACOES 0,00 0,00 0,00 342,00 0,00 0,00 0,00 0,00 0,00 29/02/2024
1310 544000 CRISTINA DE OLIVEIRA TERRA ANALISTA DO MP BELO HORIZONTE - COMARCA; BH-18PJ VIOLENCIA DOMESTICA-SECRETARIA 1.978,00 0,00 605,00 0,00 5.924,93 0,00 0,00 0,00 0,00 29/02/2024